<?xml version="1.0" encoding="UTF-8" standalone="no" ?>
<gpx xmlns="http://www.topografix.com/GPX/1/1" xmlns:xsi="http://www.w3.org/2001/XMLSchema-instance" xsi:schemaLocation="http://www.topografix.com/GPX/1/1 http://www.topografix.com/GPX/1/1/gpx.xsd" version="1.1" creator="VisuGPX - https://www.visugpx.com">
  <metadata>
    <name>Mont Cassini_Sources du Tarn</name>
    <desc><![CDATA[Démarrage depuis le parking du Mas Camargue. Suivre l'itinéraire balisé jaune jusqu'au sommet du Mont Cassini en passant par le Mas de la Barque. Puis, suivre le cours du Tarn naissant pour rejoindre le point de départ.]]></desc>
  </metadata>
  <trk>
    <name><![CDATA[Mont Cassini_Sources du Tarn_1]]></name>
    <trkseg>
      <trkpt lat="44.38703" lon="3.81892">
        <ele>1347</ele>
        <time>2016-05-15T08:57:45Z</time>
      </trkpt>
      <trkpt lat="44.38717" lon="3.81926">
        <ele>1348</ele>
        <time>2016-05-15T08:58:51Z</time>
      </trkpt>
      <trkpt lat="44.38719" lon="3.81939">
        <ele>1347</ele>
        <time>2016-05-15T08:59:00Z</time>
      </trkpt>
      <trkpt lat="44.38719" lon="3.81954">
        <ele>1347</ele>
        <time>2016-05-15T08:59:10Z</time>
      </trkpt>
      <trkpt lat="44.38714" lon="3.81966">
        <ele>1352</ele>
        <time>2016-05-15T08:59:19Z</time>
      </trkpt>
      <trkpt lat="44.38707" lon="3.81977">
        <ele>1352</ele>
        <time>2016-05-15T08:59:28Z</time>
      </trkpt>
      <trkpt lat="44.38696" lon="3.81986">
        <ele>1352</ele>
        <time>2016-05-15T08:59:37Z</time>
      </trkpt>
      <trkpt lat="44.38688" lon="3.81998">
        <ele>1347</ele>
        <time>2016-05-15T08:59:46Z</time>
      </trkpt>
      <trkpt lat="44.38677" lon="3.8201">
        <ele>1347</ele>
        <time>2016-05-15T08:59:55Z</time>
      </trkpt>
      <trkpt lat="44.38665" lon="3.82019">
        <ele>1347</ele>
        <time>2016-05-15T09:00:04Z</time>
      </trkpt>
      <trkpt lat="44.38654" lon="3.82029">
        <ele>1347</ele>
        <time>2016-05-15T09:00:14Z</time>
      </trkpt>
      <trkpt lat="44.38644" lon="3.8204">
        <ele>1347</ele>
        <time>2016-05-15T09:00:24Z</time>
      </trkpt>
      <trkpt lat="44.38636" lon="3.82052">
        <ele>1348</ele>
        <time>2016-05-15T09:00:33Z</time>
      </trkpt>
      <trkpt lat="44.38628" lon="3.82065">
        <ele>1349</ele>
        <time>2016-05-15T09:00:42Z</time>
      </trkpt>
      <trkpt lat="44.38621" lon="3.82077">
        <ele>1353</ele>
        <time>2016-05-15T09:00:51Z</time>
      </trkpt>
      <trkpt lat="44.38612" lon="3.8209">
        <ele>1353</ele>
        <time>2016-05-15T09:01:00Z</time>
      </trkpt>
      <trkpt lat="44.38602" lon="3.82096">
        <ele>1353</ele>
        <time>2016-05-15T09:01:09Z</time>
      </trkpt>
      <trkpt lat="44.38593" lon="3.82099">
        <ele>1355</ele>
        <time>2016-05-15T09:01:18Z</time>
      </trkpt>
      <trkpt lat="44.38586" lon="3.82101">
        <ele>1362</ele>
        <time>2016-05-15T09:01:27Z</time>
      </trkpt>
      <trkpt lat="44.38574" lon="3.82108">
        <ele>1367</ele>
        <time>2016-05-15T09:01:36Z</time>
      </trkpt>
      <trkpt lat="44.38561" lon="3.82117">
        <ele>1364</ele>
        <time>2016-05-15T09:01:45Z</time>
      </trkpt>
      <trkpt lat="44.38549" lon="3.82129">
        <ele>1363</ele>
        <time>2016-05-15T09:01:55Z</time>
      </trkpt>
      <trkpt lat="44.38551" lon="3.82135">
        <ele>1363</ele>
        <time>2016-05-15T09:02:04Z</time>
      </trkpt>
      <trkpt lat="44.3856" lon="3.82136">
        <ele>1363</ele>
        <time>2016-05-15T09:02:13Z</time>
      </trkpt>
      <trkpt lat="44.38567" lon="3.82141">
        <ele>1363</ele>
        <time>2016-05-15T09:02:22Z</time>
      </trkpt>
      <trkpt lat="44.38573" lon="3.82143">
        <ele>1363</ele>
        <time>2016-05-15T09:02:31Z</time>
      </trkpt>
      <trkpt lat="44.38577" lon="3.82144">
        <ele>1365</ele>
        <time>2016-05-15T09:02:42Z</time>
      </trkpt>
      <trkpt lat="44.38578" lon="3.82143">
        <ele>1365</ele>
        <time>2016-05-15T09:02:53Z</time>
      </trkpt>
      <trkpt lat="44.38582" lon="3.82147">
        <ele>1365</ele>
        <time>2016-05-15T09:03:02Z</time>
      </trkpt>
      <trkpt lat="44.38591" lon="3.82147">
        <ele>1365</ele>
        <time>2016-05-15T09:03:12Z</time>
      </trkpt>
      <trkpt lat="44.3859" lon="3.82151">
        <ele>1365</ele>
        <time>2016-05-15T09:03:22Z</time>
      </trkpt>
      <trkpt lat="44.38588" lon="3.82153">
        <ele>1365</ele>
        <time>2016-05-15T09:03:32Z</time>
      </trkpt>
      <trkpt lat="44.38587" lon="3.82154">
        <ele>1365</ele>
        <time>2016-05-15T09:03:43Z</time>
      </trkpt>
      <trkpt lat="44.38581" lon="3.82151">
        <ele>1365</ele>
        <time>2016-05-15T09:03:52Z</time>
      </trkpt>
      <trkpt lat="44.38583" lon="3.82148">
        <ele>1365</ele>
        <time>2016-05-15T09:04:01Z</time>
      </trkpt>
      <trkpt lat="44.38584" lon="3.82148">
        <ele>1368</ele>
        <time>2016-05-15T09:04:10Z</time>
      </trkpt>
      <trkpt lat="44.38582" lon="3.8215">
        <ele>1366</ele>
        <time>2016-05-15T09:04:19Z</time>
      </trkpt>
      <trkpt lat="44.38579" lon="3.82149">
        <ele>1362</ele>
        <time>2016-05-15T09:04:30Z</time>
      </trkpt>
      <trkpt lat="44.38585" lon="3.82151">
        <ele>1362</ele>
        <time>2016-05-15T09:04:39Z</time>
      </trkpt>
      <trkpt lat="44.38584" lon="3.8215">
        <ele>1362</ele>
        <time>2016-05-15T09:04:50Z</time>
      </trkpt>
      <trkpt lat="44.38584" lon="3.82159">
        <ele>1362</ele>
        <time>2016-05-15T09:05:00Z</time>
      </trkpt>
      <trkpt lat="44.38575" lon="3.82165">
        <ele>1362</ele>
        <time>2016-05-15T09:05:09Z</time>
      </trkpt>
      <trkpt lat="44.38566" lon="3.82173">
        <ele>1362</ele>
        <time>2016-05-15T09:05:19Z</time>
      </trkpt>
      <trkpt lat="44.38558" lon="3.82181">
        <ele>1362</ele>
        <time>2016-05-15T09:05:29Z</time>
      </trkpt>
      <trkpt lat="44.38552" lon="3.82188">
        <ele>1364</ele>
        <time>2016-05-15T09:05:38Z</time>
      </trkpt>
      <trkpt lat="44.38551" lon="3.82199">
        <ele>1364</ele>
        <time>2016-05-15T09:05:47Z</time>
      </trkpt>
      <trkpt lat="44.38556" lon="3.82208">
        <ele>1366</ele>
        <time>2016-05-15T09:05:56Z</time>
      </trkpt>
      <trkpt lat="44.3856" lon="3.82217">
        <ele>1369</ele>
        <time>2016-05-15T09:06:08Z</time>
      </trkpt>
      <trkpt lat="44.3856" lon="3.82223">
        <ele>1371</ele>
        <time>2016-05-15T09:06:31Z</time>
      </trkpt>
      <trkpt lat="44.38561" lon="3.82225">
        <ele>1372</ele>
        <time>2016-05-15T09:06:47Z</time>
      </trkpt>
      <trkpt lat="44.38557" lon="3.82222">
        <ele>1372</ele>
        <time>2016-05-15T09:06:56Z</time>
      </trkpt>
      <trkpt lat="44.38551" lon="3.82222">
        <ele>1372</ele>
        <time>2016-05-15T09:07:07Z</time>
      </trkpt>
      <trkpt lat="44.38544" lon="3.82231">
        <ele>1372</ele>
        <time>2016-05-15T09:07:17Z</time>
      </trkpt>
      <trkpt lat="44.38538" lon="3.82231">
        <ele>1372</ele>
        <time>2016-05-15T09:07:26Z</time>
      </trkpt>
      <trkpt lat="44.38531" lon="3.82228">
        <ele>1372</ele>
        <time>2016-05-15T09:07:36Z</time>
      </trkpt>
      <trkpt lat="44.38524" lon="3.82225">
        <ele>1372</ele>
        <time>2016-05-15T09:07:45Z</time>
      </trkpt>
      <trkpt lat="44.38516" lon="3.82217">
        <ele>1372</ele>
        <time>2016-05-15T09:07:56Z</time>
      </trkpt>
      <trkpt lat="44.38511" lon="3.82213">
        <ele>1371</ele>
        <time>2016-05-15T09:08:05Z</time>
      </trkpt>
      <trkpt lat="44.38509" lon="3.82207">
        <ele>1369</ele>
        <time>2016-05-15T09:08:15Z</time>
      </trkpt>
      <trkpt lat="44.38508" lon="3.82204">
        <ele>1366</ele>
        <time>2016-05-15T09:08:26Z</time>
      </trkpt>
      <trkpt lat="44.38507" lon="3.82199">
        <ele>1366</ele>
        <time>2016-05-15T09:08:37Z</time>
      </trkpt>
      <trkpt lat="44.38502" lon="3.82206">
        <ele>1366</ele>
        <time>2016-05-15T09:08:47Z</time>
      </trkpt>
      <trkpt lat="44.38494" lon="3.82217">
        <ele>1366</ele>
        <time>2016-05-15T09:08:57Z</time>
      </trkpt>
      <trkpt lat="44.38485" lon="3.82226">
        <ele>1366</ele>
        <time>2016-05-15T09:09:07Z</time>
      </trkpt>
      <trkpt lat="44.3848" lon="3.82237">
        <ele>1366</ele>
        <time>2016-05-15T09:09:16Z</time>
      </trkpt>
      <trkpt lat="44.38473" lon="3.82249">
        <ele>1366</ele>
        <time>2016-05-15T09:09:26Z</time>
      </trkpt>
      <trkpt lat="44.38467" lon="3.8226">
        <ele>1366</ele>
        <time>2016-05-15T09:09:36Z</time>
      </trkpt>
      <trkpt lat="44.38463" lon="3.82272">
        <ele>1366</ele>
        <time>2016-05-15T09:09:45Z</time>
      </trkpt>
      <trkpt lat="44.38464" lon="3.82286">
        <ele>1366</ele>
        <time>2016-05-15T09:09:56Z</time>
      </trkpt>
      <trkpt lat="44.38466" lon="3.82299">
        <ele>1366</ele>
        <time>2016-05-15T09:10:05Z</time>
      </trkpt>
      <trkpt lat="44.38468" lon="3.82313">
        <ele>1366</ele>
        <time>2016-05-15T09:10:14Z</time>
      </trkpt>
      <trkpt lat="44.38469" lon="3.82329">
        <ele>1366</ele>
        <time>2016-05-15T09:10:23Z</time>
      </trkpt>
      <trkpt lat="44.38469" lon="3.82343">
        <ele>1366</ele>
        <time>2016-05-15T09:10:32Z</time>
      </trkpt>
      <trkpt lat="44.38468" lon="3.82357">
        <ele>1366</ele>
        <time>2016-05-15T09:10:41Z</time>
      </trkpt>
      <trkpt lat="44.38465" lon="3.82371">
        <ele>1366</ele>
        <time>2016-05-15T09:10:50Z</time>
      </trkpt>
      <trkpt lat="44.38458" lon="3.82382">
        <ele>1366</ele>
        <time>2016-05-15T09:10:59Z</time>
      </trkpt>
      <trkpt lat="44.38448" lon="3.8239">
        <ele>1367</ele>
        <time>2016-05-15T09:11:09Z</time>
      </trkpt>
      <trkpt lat="44.38441" lon="3.82401">
        <ele>1369</ele>
        <time>2016-05-15T09:11:19Z</time>
      </trkpt>
      <trkpt lat="44.38436" lon="3.82412">
        <ele>1371</ele>
        <time>2016-05-15T09:11:28Z</time>
      </trkpt>
      <trkpt lat="44.38429" lon="3.82422">
        <ele>1373</ele>
        <time>2016-05-15T09:11:38Z</time>
      </trkpt>
      <trkpt lat="44.38422" lon="3.82434">
        <ele>1373</ele>
        <time>2016-05-15T09:11:47Z</time>
      </trkpt>
      <trkpt lat="44.38414" lon="3.82446">
        <ele>1374</ele>
        <time>2016-05-15T09:11:57Z</time>
      </trkpt>
      <trkpt lat="44.38406" lon="3.82457">
        <ele>1375</ele>
        <time>2016-05-15T09:12:06Z</time>
      </trkpt>
      <trkpt lat="44.38398" lon="3.82469">
        <ele>1375</ele>
        <time>2016-05-15T09:12:15Z</time>
      </trkpt>
      <trkpt lat="44.38393" lon="3.8248">
        <ele>1375</ele>
        <time>2016-05-15T09:12:24Z</time>
      </trkpt>
      <trkpt lat="44.38388" lon="3.82493">
        <ele>1375</ele>
        <time>2016-05-15T09:12:34Z</time>
      </trkpt>
      <trkpt lat="44.38382" lon="3.82507">
        <ele>1375</ele>
        <time>2016-05-15T09:12:44Z</time>
      </trkpt>
      <trkpt lat="44.38378" lon="3.8252">
        <ele>1377</ele>
        <time>2016-05-15T09:12:53Z</time>
      </trkpt>
      <trkpt lat="44.38376" lon="3.82534">
        <ele>1377</ele>
        <time>2016-05-15T09:13:02Z</time>
      </trkpt>
      <trkpt lat="44.38373" lon="3.82548">
        <ele>1377</ele>
        <time>2016-05-15T09:13:11Z</time>
      </trkpt>
      <trkpt lat="44.38372" lon="3.82562">
        <ele>1377</ele>
        <time>2016-05-15T09:13:20Z</time>
      </trkpt>
      <trkpt lat="44.3837" lon="3.82576">
        <ele>1377</ele>
        <time>2016-05-15T09:13:29Z</time>
      </trkpt>
      <trkpt lat="44.38368" lon="3.82593">
        <ele>1377</ele>
        <time>2016-05-15T09:13:38Z</time>
      </trkpt>
      <trkpt lat="44.38366" lon="3.82607">
        <ele>1377</ele>
        <time>2016-05-15T09:13:47Z</time>
      </trkpt>
      <trkpt lat="44.38363" lon="3.82621">
        <ele>1377</ele>
        <time>2016-05-15T09:13:56Z</time>
      </trkpt>
      <trkpt lat="44.3836" lon="3.82633">
        <ele>1376</ele>
        <time>2016-05-15T09:14:05Z</time>
      </trkpt>
      <trkpt lat="44.38358" lon="3.82648">
        <ele>1376</ele>
        <time>2016-05-15T09:14:14Z</time>
      </trkpt>
      <trkpt lat="44.38356" lon="3.82664">
        <ele>1375</ele>
        <time>2016-05-15T09:14:23Z</time>
      </trkpt>
      <trkpt lat="44.38354" lon="3.8268">
        <ele>1374</ele>
        <time>2016-05-15T09:14:32Z</time>
      </trkpt>
      <trkpt lat="44.38352" lon="3.82694">
        <ele>1373</ele>
        <time>2016-05-15T09:14:41Z</time>
      </trkpt>
      <trkpt lat="44.38349" lon="3.8271">
        <ele>1372</ele>
        <time>2016-05-15T09:14:50Z</time>
      </trkpt>
      <trkpt lat="44.38347" lon="3.82726">
        <ele>1371</ele>
        <time>2016-05-15T09:14:59Z</time>
      </trkpt>
      <trkpt lat="44.38344" lon="3.82742">
        <ele>1371</ele>
        <time>2016-05-15T09:15:08Z</time>
      </trkpt>
      <trkpt lat="44.38344" lon="3.82757">
        <ele>1370</ele>
        <time>2016-05-15T09:15:17Z</time>
      </trkpt>
      <trkpt lat="44.38345" lon="3.82773">
        <ele>1369</ele>
        <time>2016-05-15T09:15:26Z</time>
      </trkpt>
      <trkpt lat="44.38348" lon="3.82789">
        <ele>1369</ele>
        <time>2016-05-15T09:15:35Z</time>
      </trkpt>
      <trkpt lat="44.38349" lon="3.82804">
        <ele>1369</ele>
        <time>2016-05-15T09:15:44Z</time>
      </trkpt>
      <trkpt lat="44.38348" lon="3.82818">
        <ele>1367</ele>
        <time>2016-05-15T09:15:53Z</time>
      </trkpt>
      <trkpt lat="44.38346" lon="3.82834">
        <ele>1365</ele>
        <time>2016-05-15T09:16:02Z</time>
      </trkpt>
      <trkpt lat="44.38344" lon="3.8285">
        <ele>1364</ele>
        <time>2016-05-15T09:16:11Z</time>
      </trkpt>
      <trkpt lat="44.38341" lon="3.82867">
        <ele>1364</ele>
        <time>2016-05-15T09:16:20Z</time>
      </trkpt>
      <trkpt lat="44.38337" lon="3.82883">
        <ele>1363</ele>
        <time>2016-05-15T09:16:29Z</time>
      </trkpt>
      <trkpt lat="44.38332" lon="3.82898">
        <ele>1363</ele>
        <time>2016-05-15T09:16:38Z</time>
      </trkpt>
      <trkpt lat="44.38326" lon="3.82913">
        <ele>1362</ele>
        <time>2016-05-15T09:16:48Z</time>
      </trkpt>
      <trkpt lat="44.38318" lon="3.82927">
        <ele>1362</ele>
        <time>2016-05-15T09:16:57Z</time>
      </trkpt>
      <trkpt lat="44.38309" lon="3.82936">
        <ele>1362</ele>
        <time>2016-05-15T09:17:06Z</time>
      </trkpt>
      <trkpt lat="44.383" lon="3.82943">
        <ele>1362</ele>
        <time>2016-05-15T09:17:15Z</time>
      </trkpt>
      <trkpt lat="44.3829" lon="3.82953">
        <ele>1362</ele>
        <time>2016-05-15T09:17:24Z</time>
      </trkpt>
      <trkpt lat="44.3828" lon="3.82963">
        <ele>1362</ele>
        <time>2016-05-15T09:17:33Z</time>
      </trkpt>
      <trkpt lat="44.3827" lon="3.82976">
        <ele>1362</ele>
        <time>2016-05-15T09:17:43Z</time>
      </trkpt>
      <trkpt lat="44.38261" lon="3.82988">
        <ele>1362</ele>
        <time>2016-05-15T09:17:53Z</time>
      </trkpt>
      <trkpt lat="44.38252" lon="3.83">
        <ele>1362</ele>
        <time>2016-05-15T09:18:03Z</time>
      </trkpt>
      <trkpt lat="44.38243" lon="3.83013">
        <ele>1362</ele>
        <time>2016-05-15T09:18:13Z</time>
      </trkpt>
      <trkpt lat="44.38234" lon="3.83025">
        <ele>1362</ele>
        <time>2016-05-15T09:18:22Z</time>
      </trkpt>
      <trkpt lat="44.38226" lon="3.83039">
        <ele>1362</ele>
        <time>2016-05-15T09:18:32Z</time>
      </trkpt>
      <trkpt lat="44.38217" lon="3.83051">
        <ele>1362</ele>
        <time>2016-05-15T09:18:42Z</time>
      </trkpt>
      <trkpt lat="44.38207" lon="3.83061">
        <ele>1362</ele>
        <time>2016-05-15T09:18:51Z</time>
      </trkpt>
      <trkpt lat="44.38199" lon="3.83073">
        <ele>1362</ele>
        <time>2016-05-15T09:19:00Z</time>
      </trkpt>
      <trkpt lat="44.38191" lon="3.83085">
        <ele>1362</ele>
        <time>2016-05-15T09:19:10Z</time>
      </trkpt>
      <trkpt lat="44.38184" lon="3.83096">
        <ele>1362</ele>
        <time>2016-05-15T09:19:19Z</time>
      </trkpt>
      <trkpt lat="44.38177" lon="3.83108">
        <ele>1362</ele>
        <time>2016-05-15T09:19:28Z</time>
      </trkpt>
      <trkpt lat="44.38171" lon="3.8312">
        <ele>1362</ele>
        <time>2016-05-15T09:19:37Z</time>
      </trkpt>
      <trkpt lat="44.38166" lon="3.83135">
        <ele>1362</ele>
        <time>2016-05-15T09:19:47Z</time>
      </trkpt>
      <trkpt lat="44.38164" lon="3.83149">
        <ele>1361</ele>
        <time>2016-05-15T09:19:56Z</time>
      </trkpt>
      <trkpt lat="44.38161" lon="3.83164">
        <ele>1360</ele>
        <time>2016-05-15T09:20:05Z</time>
      </trkpt>
      <trkpt lat="44.38163" lon="3.83179">
        <ele>1360</ele>
        <time>2016-05-15T09:20:14Z</time>
      </trkpt>
      <trkpt lat="44.38164" lon="3.83197">
        <ele>1360</ele>
        <time>2016-05-15T09:20:23Z</time>
      </trkpt>
      <trkpt lat="44.38164" lon="3.83214">
        <ele>1360</ele>
        <time>2016-05-15T09:20:32Z</time>
      </trkpt>
      <trkpt lat="44.38163" lon="3.8323">
        <ele>1357</ele>
        <time>2016-05-15T09:20:41Z</time>
      </trkpt>
      <trkpt lat="44.38163" lon="3.83246">
        <ele>1355</ele>
        <time>2016-05-15T09:20:50Z</time>
      </trkpt>
      <trkpt lat="44.38161" lon="3.83262">
        <ele>1355</ele>
        <time>2016-05-15T09:20:59Z</time>
      </trkpt>
      <trkpt lat="44.38157" lon="3.83278">
        <ele>1355</ele>
        <time>2016-05-15T09:21:08Z</time>
      </trkpt>
      <trkpt lat="44.38149" lon="3.83292">
        <ele>1355</ele>
        <time>2016-05-15T09:21:17Z</time>
      </trkpt>
      <trkpt lat="44.38143" lon="3.83307">
        <ele>1355</ele>
        <time>2016-05-15T09:21:26Z</time>
      </trkpt>
      <trkpt lat="44.3814" lon="3.83323">
        <ele>1355</ele>
        <time>2016-05-15T09:21:35Z</time>
      </trkpt>
      <trkpt lat="44.38139" lon="3.83338">
        <ele>1356</ele>
        <time>2016-05-15T09:21:44Z</time>
      </trkpt>
      <trkpt lat="44.3814" lon="3.83353">
        <ele>1357</ele>
        <time>2016-05-15T09:21:53Z</time>
      </trkpt>
      <trkpt lat="44.38142" lon="3.83368">
        <ele>1357</ele>
        <time>2016-05-15T09:22:02Z</time>
      </trkpt>
      <trkpt lat="44.38145" lon="3.83381">
        <ele>1358</ele>
        <time>2016-05-15T09:22:11Z</time>
      </trkpt>
      <trkpt lat="44.38149" lon="3.83394">
        <ele>1360</ele>
        <time>2016-05-15T09:22:20Z</time>
      </trkpt>
      <trkpt lat="44.38154" lon="3.83406">
        <ele>1360</ele>
        <time>2016-05-15T09:22:29Z</time>
      </trkpt>
      <trkpt lat="44.3816" lon="3.8342">
        <ele>1360</ele>
        <time>2016-05-15T09:22:39Z</time>
      </trkpt>
      <trkpt lat="44.38165" lon="3.83433">
        <ele>1361</ele>
        <time>2016-05-15T09:22:48Z</time>
      </trkpt>
      <trkpt lat="44.38171" lon="3.83449">
        <ele>1361</ele>
        <time>2016-05-15T09:22:57Z</time>
      </trkpt>
      <trkpt lat="44.38173" lon="3.83464">
        <ele>1361</ele>
        <time>2016-05-15T09:23:06Z</time>
      </trkpt>
      <trkpt lat="44.38177" lon="3.83477">
        <ele>1361</ele>
        <time>2016-05-15T09:23:16Z</time>
      </trkpt>
      <trkpt lat="44.38179" lon="3.83488">
        <ele>1361</ele>
        <time>2016-05-15T09:23:25Z</time>
      </trkpt>
      <trkpt lat="44.38179" lon="3.83504">
        <ele>1361</ele>
        <time>2016-05-15T09:23:34Z</time>
      </trkpt>
      <trkpt lat="44.38177" lon="3.83521">
        <ele>1361</ele>
        <time>2016-05-15T09:23:43Z</time>
      </trkpt>
      <trkpt lat="44.38178" lon="3.83531">
        <ele>1361</ele>
        <time>2016-05-15T09:23:53Z</time>
      </trkpt>
      <trkpt lat="44.38176" lon="3.83542">
        <ele>1361</ele>
        <time>2016-05-15T09:24:03Z</time>
      </trkpt>
      <trkpt lat="44.38176" lon="3.83551">
        <ele>1361</ele>
        <time>2016-05-15T09:24:13Z</time>
      </trkpt>
      <trkpt lat="44.38177" lon="3.83559">
        <ele>1361</ele>
        <time>2016-05-15T09:24:23Z</time>
      </trkpt>
      <trkpt lat="44.38179" lon="3.83568">
        <ele>1361</ele>
        <time>2016-05-15T09:24:33Z</time>
      </trkpt>
      <trkpt lat="44.38185" lon="3.83576">
        <ele>1361</ele>
        <time>2016-05-15T09:24:42Z</time>
      </trkpt>
      <trkpt lat="44.38191" lon="3.83582">
        <ele>1363</ele>
        <time>2016-05-15T09:24:51Z</time>
      </trkpt>
      <trkpt lat="44.38199" lon="3.83592">
        <ele>1364</ele>
        <time>2016-05-15T09:25:01Z</time>
      </trkpt>
      <trkpt lat="44.38205" lon="3.83602">
        <ele>1364</ele>
        <time>2016-05-15T09:25:11Z</time>
      </trkpt>
      <trkpt lat="44.38203" lon="3.83605">
        <ele>1364</ele>
        <time>2016-05-15T09:25:22Z</time>
      </trkpt>
      <trkpt lat="44.38211" lon="3.83621">
        <ele>1364</ele>
        <time>2016-05-15T09:25:32Z</time>
      </trkpt>
      <trkpt lat="44.38215" lon="3.83634">
        <ele>1364</ele>
        <time>2016-05-15T09:25:43Z</time>
      </trkpt>
      <trkpt lat="44.38217" lon="3.8364">
        <ele>1364</ele>
        <time>2016-05-15T09:25:55Z</time>
      </trkpt>
      <trkpt lat="44.3822" lon="3.83648">
        <ele>1364</ele>
        <time>2016-05-15T09:26:04Z</time>
      </trkpt>
      <trkpt lat="44.38225" lon="3.83661">
        <ele>1364</ele>
        <time>2016-05-15T09:26:13Z</time>
      </trkpt>
      <trkpt lat="44.38227" lon="3.83666">
        <ele>1364</ele>
        <time>2016-05-15T09:26:25Z</time>
      </trkpt>
      <trkpt lat="44.38229" lon="3.83679">
        <ele>1364</ele>
        <time>2016-05-15T09:26:34Z</time>
      </trkpt>
      <trkpt lat="44.38231" lon="3.83693">
        <ele>1363</ele>
        <time>2016-05-15T09:26:43Z</time>
      </trkpt>
      <trkpt lat="44.38233" lon="3.83707">
        <ele>1362</ele>
        <time>2016-05-15T09:26:52Z</time>
      </trkpt>
      <trkpt lat="44.38237" lon="3.83722">
        <ele>1361</ele>
        <time>2016-05-15T09:27:01Z</time>
      </trkpt>
      <trkpt lat="44.3824" lon="3.83738">
        <ele>1361</ele>
        <time>2016-05-15T09:27:10Z</time>
      </trkpt>
      <trkpt lat="44.38246" lon="3.83752">
        <ele>1360</ele>
        <time>2016-05-15T09:27:19Z</time>
      </trkpt>
      <trkpt lat="44.38252" lon="3.83768">
        <ele>1357</ele>
        <time>2016-05-15T09:27:28Z</time>
      </trkpt>
      <trkpt lat="44.38255" lon="3.83786">
        <ele>1356</ele>
        <time>2016-05-15T09:27:37Z</time>
      </trkpt>
      <trkpt lat="44.38258" lon="3.83804">
        <ele>1354</ele>
        <time>2016-05-15T09:27:46Z</time>
      </trkpt>
      <trkpt lat="44.38255" lon="3.8382">
        <ele>1353</ele>
        <time>2016-05-15T09:27:55Z</time>
      </trkpt>
      <trkpt lat="44.38253" lon="3.83836">
        <ele>1351</ele>
        <time>2016-05-15T09:28:04Z</time>
      </trkpt>
      <trkpt lat="44.38253" lon="3.83854">
        <ele>1350</ele>
        <time>2016-05-15T09:28:13Z</time>
      </trkpt>
      <trkpt lat="44.38253" lon="3.83869">
        <ele>1350</ele>
        <time>2016-05-15T09:28:22Z</time>
      </trkpt>
      <trkpt lat="44.38253" lon="3.83882">
        <ele>1350</ele>
        <time>2016-05-15T09:28:32Z</time>
      </trkpt>
      <trkpt lat="44.38253" lon="3.83897">
        <ele>1350</ele>
        <time>2016-05-15T09:28:41Z</time>
      </trkpt>
      <trkpt lat="44.38252" lon="3.83907">
        <ele>1350</ele>
        <time>2016-05-15T09:28:51Z</time>
      </trkpt>
      <trkpt lat="44.3825" lon="3.83908">
        <ele>1351</ele>
        <time>2016-05-15T09:29:05Z</time>
      </trkpt>
      <trkpt lat="44.3825" lon="3.83909">
        <ele>1354</ele>
        <time>2016-05-15T09:29:26Z</time>
      </trkpt>
      <trkpt lat="44.38251" lon="3.83911">
        <ele>1354</ele>
        <time>2016-05-15T09:30:03Z</time>
      </trkpt>
      <trkpt lat="44.38253" lon="3.83927">
        <ele>1354</ele>
        <time>2016-05-15T09:30:12Z</time>
      </trkpt>
      <trkpt lat="44.38254" lon="3.83943">
        <ele>1354</ele>
        <time>2016-05-15T09:30:21Z</time>
      </trkpt>
      <trkpt lat="44.38255" lon="3.83961">
        <ele>1354</ele>
        <time>2016-05-15T09:30:30Z</time>
      </trkpt>
      <trkpt lat="44.38253" lon="3.83979">
        <ele>1354</ele>
        <time>2016-05-15T09:30:39Z</time>
      </trkpt>
      <trkpt lat="44.3825" lon="3.83995">
        <ele>1354</ele>
        <time>2016-05-15T09:30:48Z</time>
      </trkpt>
      <trkpt lat="44.38247" lon="3.84011">
        <ele>1355</ele>
        <time>2016-05-15T09:30:57Z</time>
      </trkpt>
      <trkpt lat="44.38243" lon="3.84027">
        <ele>1355</ele>
        <time>2016-05-15T09:31:06Z</time>
      </trkpt>
      <trkpt lat="44.38239" lon="3.84042">
        <ele>1355</ele>
        <time>2016-05-15T09:31:15Z</time>
      </trkpt>
      <trkpt lat="44.38238" lon="3.84059">
        <ele>1355</ele>
        <time>2016-05-15T09:31:24Z</time>
      </trkpt>
      <trkpt lat="44.3824" lon="3.84075">
        <ele>1356</ele>
        <time>2016-05-15T09:31:34Z</time>
      </trkpt>
      <trkpt lat="44.38246" lon="3.84087">
        <ele>1356</ele>
        <time>2016-05-15T09:31:43Z</time>
      </trkpt>
      <trkpt lat="44.38253" lon="3.84098">
        <ele>1358</ele>
        <time>2016-05-15T09:31:52Z</time>
      </trkpt>
      <trkpt lat="44.38261" lon="3.84107">
        <ele>1359</ele>
        <time>2016-05-15T09:32:01Z</time>
      </trkpt>
      <trkpt lat="44.3827" lon="3.84118">
        <ele>1359</ele>
        <time>2016-05-15T09:32:11Z</time>
      </trkpt>
      <trkpt lat="44.38278" lon="3.84127">
        <ele>1359</ele>
        <time>2016-05-15T09:32:20Z</time>
      </trkpt>
      <trkpt lat="44.3828" lon="3.84139">
        <ele>1361</ele>
        <time>2016-05-15T09:32:29Z</time>
      </trkpt>
      <trkpt lat="44.38282" lon="3.84156">
        <ele>1361</ele>
        <time>2016-05-15T09:32:38Z</time>
      </trkpt>
      <trkpt lat="44.38278" lon="3.84173">
        <ele>1361</ele>
        <time>2016-05-15T09:32:47Z</time>
      </trkpt>
      <trkpt lat="44.3827" lon="3.84191">
        <ele>1361</ele>
        <time>2016-05-15T09:32:56Z</time>
      </trkpt>
      <trkpt lat="44.3826" lon="3.84204">
        <ele>1361</ele>
        <time>2016-05-15T09:33:06Z</time>
      </trkpt>
      <trkpt lat="44.38248" lon="3.84208">
        <ele>1361</ele>
        <time>2016-05-15T09:33:15Z</time>
      </trkpt>
      <trkpt lat="44.38236" lon="3.84206">
        <ele>1361</ele>
        <time>2016-05-15T09:33:24Z</time>
      </trkpt>
      <trkpt lat="44.38225" lon="3.84203">
        <ele>1361</ele>
        <time>2016-05-15T09:33:33Z</time>
      </trkpt>
      <trkpt lat="44.38214" lon="3.84203">
        <ele>1361</ele>
        <time>2016-05-15T09:33:43Z</time>
      </trkpt>
      <trkpt lat="44.38206" lon="3.84204">
        <ele>1366</ele>
        <time>2016-05-15T09:34:03Z</time>
      </trkpt>
      <trkpt lat="44.38206" lon="3.84202">
        <ele>1369</ele>
        <time>2016-05-15T09:34:49Z</time>
      </trkpt>
      <trkpt lat="44.38207" lon="3.84203">
        <ele>1369</ele>
        <time>2016-05-15T09:35:00Z</time>
      </trkpt>
      <trkpt lat="44.38207" lon="3.84202">
        <ele>1370</ele>
        <time>2016-05-15T09:35:09Z</time>
      </trkpt>
      <trkpt lat="44.38204" lon="3.84201">
        <ele>1370</ele>
        <time>2016-05-15T09:35:21Z</time>
      </trkpt>
      <trkpt lat="44.38203" lon="3.84204">
        <ele>1370</ele>
        <time>2016-05-15T09:35:31Z</time>
      </trkpt>
      <trkpt lat="44.38207" lon="3.84202">
        <ele>1370</ele>
        <time>2016-05-15T09:35:46Z</time>
      </trkpt>
      <trkpt lat="44.38207" lon="3.84203">
        <ele>1370</ele>
        <time>2016-05-15T09:35:56Z</time>
      </trkpt>
      <trkpt lat="44.38205" lon="3.84204">
        <ele>1370</ele>
        <time>2016-05-15T09:36:06Z</time>
      </trkpt>
      <trkpt lat="44.38198" lon="3.84209">
        <ele>1370</ele>
        <time>2016-05-15T09:36:15Z</time>
      </trkpt>
      <trkpt lat="44.38189" lon="3.84212">
        <ele>1370</ele>
        <time>2016-05-15T09:36:24Z</time>
      </trkpt>
      <trkpt lat="44.3818" lon="3.84214">
        <ele>1370</ele>
        <time>2016-05-15T09:36:33Z</time>
      </trkpt>
      <trkpt lat="44.38169" lon="3.84213">
        <ele>1370</ele>
        <time>2016-05-15T09:36:43Z</time>
      </trkpt>
      <trkpt lat="44.38159" lon="3.84212">
        <ele>1370</ele>
        <time>2016-05-15T09:36:53Z</time>
      </trkpt>
      <trkpt lat="44.38149" lon="3.84211">
        <ele>1370</ele>
        <time>2016-05-15T09:37:03Z</time>
      </trkpt>
      <trkpt lat="44.38139" lon="3.84211">
        <ele>1370</ele>
        <time>2016-05-15T09:37:12Z</time>
      </trkpt>
      <trkpt lat="44.3813" lon="3.8421">
        <ele>1372</ele>
        <time>2016-05-15T09:37:21Z</time>
      </trkpt>
      <trkpt lat="44.38119" lon="3.84208">
        <ele>1373</ele>
        <time>2016-05-15T09:37:31Z</time>
      </trkpt>
      <trkpt lat="44.3811" lon="3.8421">
        <ele>1373</ele>
        <time>2016-05-15T09:37:40Z</time>
      </trkpt>
      <trkpt lat="44.38099" lon="3.84214">
        <ele>1374</ele>
        <time>2016-05-15T09:37:50Z</time>
      </trkpt>
      <trkpt lat="44.38089" lon="3.84221">
        <ele>1376</ele>
        <time>2016-05-15T09:37:59Z</time>
      </trkpt>
      <trkpt lat="44.3808" lon="3.8423">
        <ele>1376</ele>
        <time>2016-05-15T09:38:09Z</time>
      </trkpt>
      <trkpt lat="44.3807" lon="3.8424">
        <ele>1376</ele>
        <time>2016-05-15T09:38:19Z</time>
      </trkpt>
      <trkpt lat="44.38063" lon="3.84252">
        <ele>1377</ele>
        <time>2016-05-15T09:38:28Z</time>
      </trkpt>
      <trkpt lat="44.38058" lon="3.84266">
        <ele>1377</ele>
        <time>2016-05-15T09:38:38Z</time>
      </trkpt>
      <trkpt lat="44.38053" lon="3.8428">
        <ele>1378</ele>
        <time>2016-05-15T09:38:48Z</time>
      </trkpt>
      <trkpt lat="44.38047" lon="3.84293">
        <ele>1379</ele>
        <time>2016-05-15T09:38:57Z</time>
      </trkpt>
      <trkpt lat="44.38042" lon="3.84307">
        <ele>1379</ele>
        <time>2016-05-15T09:39:07Z</time>
      </trkpt>
      <trkpt lat="44.38035" lon="3.8432">
        <ele>1379</ele>
        <time>2016-05-15T09:39:17Z</time>
      </trkpt>
      <trkpt lat="44.38029" lon="3.84331">
        <ele>1379</ele>
        <time>2016-05-15T09:39:26Z</time>
      </trkpt>
      <trkpt lat="44.38023" lon="3.84345">
        <ele>1379</ele>
        <time>2016-05-15T09:39:35Z</time>
      </trkpt>
      <trkpt lat="44.3802" lon="3.84362">
        <ele>1379</ele>
        <time>2016-05-15T09:39:45Z</time>
      </trkpt>
      <trkpt lat="44.38017" lon="3.84378">
        <ele>1379</ele>
        <time>2016-05-15T09:39:55Z</time>
      </trkpt>
      <trkpt lat="44.38015" lon="3.84393">
        <ele>1379</ele>
        <time>2016-05-15T09:40:04Z</time>
      </trkpt>
      <trkpt lat="44.38015" lon="3.84407">
        <ele>1379</ele>
        <time>2016-05-15T09:40:13Z</time>
      </trkpt>
      <trkpt lat="44.38015" lon="3.84422">
        <ele>1379</ele>
        <time>2016-05-15T09:40:22Z</time>
      </trkpt>
      <trkpt lat="44.38015" lon="3.84436">
        <ele>1379</ele>
        <time>2016-05-15T09:40:31Z</time>
      </trkpt>
      <trkpt lat="44.38015" lon="3.84452">
        <ele>1380</ele>
        <time>2016-05-15T09:40:41Z</time>
      </trkpt>
      <trkpt lat="44.38017" lon="3.84467">
        <ele>1381</ele>
        <time>2016-05-15T09:40:50Z</time>
      </trkpt>
      <trkpt lat="44.3802" lon="3.84481">
        <ele>1381</ele>
        <time>2016-05-15T09:40:59Z</time>
      </trkpt>
      <trkpt lat="44.38022" lon="3.84497">
        <ele>1381</ele>
        <time>2016-05-15T09:41:09Z</time>
      </trkpt>
      <trkpt lat="44.38025" lon="3.84509">
        <ele>1382</ele>
        <time>2016-05-15T09:41:18Z</time>
      </trkpt>
      <trkpt lat="44.38028" lon="3.84524">
        <ele>1382</ele>
        <time>2016-05-15T09:41:27Z</time>
      </trkpt>
      <trkpt lat="44.38032" lon="3.84537">
        <ele>1383</ele>
        <time>2016-05-15T09:41:36Z</time>
      </trkpt>
      <trkpt lat="44.38034" lon="3.84551">
        <ele>1384</ele>
        <time>2016-05-15T09:41:45Z</time>
      </trkpt>
      <trkpt lat="44.38037" lon="3.84568">
        <ele>1384</ele>
        <time>2016-05-15T09:41:56Z</time>
      </trkpt>
      <trkpt lat="44.38041" lon="3.84581">
        <ele>1384</ele>
        <time>2016-05-15T09:42:06Z</time>
      </trkpt>
      <trkpt lat="44.38044" lon="3.84591">
        <ele>1385</ele>
        <time>2016-05-15T09:42:15Z</time>
      </trkpt>
      <trkpt lat="44.3805" lon="3.84601">
        <ele>1386</ele>
        <time>2016-05-15T09:42:24Z</time>
      </trkpt>
      <trkpt lat="44.38058" lon="3.8461">
        <ele>1387</ele>
        <time>2016-05-15T09:42:34Z</time>
      </trkpt>
      <trkpt lat="44.38066" lon="3.84619">
        <ele>1387</ele>
        <time>2016-05-15T09:42:44Z</time>
      </trkpt>
      <trkpt lat="44.38074" lon="3.8463">
        <ele>1389</ele>
        <time>2016-05-15T09:42:54Z</time>
      </trkpt>
      <trkpt lat="44.38081" lon="3.84641">
        <ele>1391</ele>
        <time>2016-05-15T09:43:03Z</time>
      </trkpt>
      <trkpt lat="44.38089" lon="3.84656">
        <ele>1391</ele>
        <time>2016-05-15T09:43:13Z</time>
      </trkpt>
      <trkpt lat="44.38097" lon="3.84666">
        <ele>1392</ele>
        <time>2016-05-15T09:43:23Z</time>
      </trkpt>
      <trkpt lat="44.38105" lon="3.84678">
        <ele>1393</ele>
        <time>2016-05-15T09:43:32Z</time>
      </trkpt>
      <trkpt lat="44.38112" lon="3.84689">
        <ele>1394</ele>
        <time>2016-05-15T09:43:41Z</time>
      </trkpt>
      <trkpt lat="44.38119" lon="3.84702">
        <ele>1395</ele>
        <time>2016-05-15T09:43:50Z</time>
      </trkpt>
      <trkpt lat="44.38126" lon="3.84714">
        <ele>1396</ele>
        <time>2016-05-15T09:44:00Z</time>
      </trkpt>
      <trkpt lat="44.38133" lon="3.84725">
        <ele>1396</ele>
        <time>2016-05-15T09:44:09Z</time>
      </trkpt>
      <trkpt lat="44.38137" lon="3.84737">
        <ele>1396</ele>
        <time>2016-05-15T09:44:18Z</time>
      </trkpt>
      <trkpt lat="44.38141" lon="3.84749">
        <ele>1396</ele>
        <time>2016-05-15T09:44:27Z</time>
      </trkpt>
      <trkpt lat="44.38144" lon="3.84762">
        <ele>1396</ele>
        <time>2016-05-15T09:44:36Z</time>
      </trkpt>
      <trkpt lat="44.38147" lon="3.84775">
        <ele>1397</ele>
        <time>2016-05-15T09:44:45Z</time>
      </trkpt>
      <trkpt lat="44.38147" lon="3.8479">
        <ele>1399</ele>
        <time>2016-05-15T09:44:55Z</time>
      </trkpt>
      <trkpt lat="44.38145" lon="3.84806">
        <ele>1399</ele>
        <time>2016-05-15T09:45:05Z</time>
      </trkpt>
      <trkpt lat="44.38142" lon="3.84821">
        <ele>1399</ele>
        <time>2016-05-15T09:45:14Z</time>
      </trkpt>
      <trkpt lat="44.38138" lon="3.84833">
        <ele>1399</ele>
        <time>2016-05-15T09:45:23Z</time>
      </trkpt>
      <trkpt lat="44.38131" lon="3.84844">
        <ele>1400</ele>
        <time>2016-05-15T09:45:33Z</time>
      </trkpt>
      <trkpt lat="44.38125" lon="3.84858">
        <ele>1401</ele>
        <time>2016-05-15T09:45:44Z</time>
      </trkpt>
      <trkpt lat="44.38122" lon="3.84873">
        <ele>1401</ele>
        <time>2016-05-15T09:45:53Z</time>
      </trkpt>
      <trkpt lat="44.38121" lon="3.84888">
        <ele>1401</ele>
        <time>2016-05-15T09:46:03Z</time>
      </trkpt>
      <trkpt lat="44.38123" lon="3.84904">
        <ele>1401</ele>
        <time>2016-05-15T09:46:12Z</time>
      </trkpt>
      <trkpt lat="44.38124" lon="3.84918">
        <ele>1401</ele>
        <time>2016-05-15T09:46:21Z</time>
      </trkpt>
      <trkpt lat="44.38126" lon="3.84929">
        <ele>1402</ele>
        <time>2016-05-15T09:46:30Z</time>
      </trkpt>
      <trkpt lat="44.38131" lon="3.84945">
        <ele>1402</ele>
        <time>2016-05-15T09:46:39Z</time>
      </trkpt>
      <trkpt lat="44.38136" lon="3.84959">
        <ele>1403</ele>
        <time>2016-05-15T09:46:48Z</time>
      </trkpt>
      <trkpt lat="44.38141" lon="3.84973">
        <ele>1404</ele>
        <time>2016-05-15T09:46:57Z</time>
      </trkpt>
      <trkpt lat="44.38144" lon="3.84986">
        <ele>1404</ele>
        <time>2016-05-15T09:47:06Z</time>
      </trkpt>
      <trkpt lat="44.38148" lon="3.84999">
        <ele>1405</ele>
        <time>2016-05-15T09:47:15Z</time>
      </trkpt>
      <trkpt lat="44.38153" lon="3.85012">
        <ele>1406</ele>
        <time>2016-05-15T09:47:24Z</time>
      </trkpt>
      <trkpt lat="44.38158" lon="3.85027">
        <ele>1406</ele>
        <time>2016-05-15T09:47:34Z</time>
      </trkpt>
      <trkpt lat="44.38164" lon="3.85039">
        <ele>1407</ele>
        <time>2016-05-15T09:47:43Z</time>
      </trkpt>
      <trkpt lat="44.38167" lon="3.85054">
        <ele>1407</ele>
        <time>2016-05-15T09:47:52Z</time>
      </trkpt>
      <trkpt lat="44.38172" lon="3.85067">
        <ele>1407</ele>
        <time>2016-05-15T09:48:01Z</time>
      </trkpt>
      <trkpt lat="44.38179" lon="3.85076">
        <ele>1408</ele>
        <time>2016-05-15T09:48:10Z</time>
      </trkpt>
      <trkpt lat="44.38188" lon="3.85082">
        <ele>1408</ele>
        <time>2016-05-15T09:48:19Z</time>
      </trkpt>
      <trkpt lat="44.38199" lon="3.85084">
        <ele>1408</ele>
        <time>2016-05-15T09:48:29Z</time>
      </trkpt>
      <trkpt lat="44.38208" lon="3.85086">
        <ele>1411</ele>
        <time>2016-05-15T09:48:38Z</time>
      </trkpt>
      <trkpt lat="44.38219" lon="3.85086">
        <ele>1412</ele>
        <time>2016-05-15T09:48:47Z</time>
      </trkpt>
      <trkpt lat="44.38228" lon="3.85086">
        <ele>1413</ele>
        <time>2016-05-15T09:48:56Z</time>
      </trkpt>
      <trkpt lat="44.38238" lon="3.85086">
        <ele>1413</ele>
        <time>2016-05-15T09:49:05Z</time>
      </trkpt>
      <trkpt lat="44.3825" lon="3.85085">
        <ele>1413</ele>
        <time>2016-05-15T09:49:14Z</time>
      </trkpt>
      <trkpt lat="44.38262" lon="3.85084">
        <ele>1413</ele>
        <time>2016-05-15T09:49:24Z</time>
      </trkpt>
      <trkpt lat="44.38273" lon="3.85081">
        <ele>1413</ele>
        <time>2016-05-15T09:49:34Z</time>
      </trkpt>
      <trkpt lat="44.38283" lon="3.85078">
        <ele>1413</ele>
        <time>2016-05-15T09:49:44Z</time>
      </trkpt>
      <trkpt lat="44.3829" lon="3.85077">
        <ele>1413</ele>
        <time>2016-05-15T09:50:50Z</time>
      </trkpt>
      <trkpt lat="44.38297" lon="3.85075">
        <ele>1413</ele>
        <time>2016-05-15T09:51:00Z</time>
      </trkpt>
      <trkpt lat="44.38307" lon="3.85076">
        <ele>1413</ele>
        <time>2016-05-15T09:51:09Z</time>
      </trkpt>
      <trkpt lat="44.38318" lon="3.85081">
        <ele>1413</ele>
        <time>2016-05-15T09:51:18Z</time>
      </trkpt>
      <trkpt lat="44.38329" lon="3.85084">
        <ele>1413</ele>
        <time>2016-05-15T09:51:27Z</time>
      </trkpt>
      <trkpt lat="44.38341" lon="3.85082">
        <ele>1414</ele>
        <time>2016-05-15T09:51:36Z</time>
      </trkpt>
      <trkpt lat="44.38353" lon="3.8508">
        <ele>1416</ele>
        <time>2016-05-15T09:51:45Z</time>
      </trkpt>
      <trkpt lat="44.38365" lon="3.85083">
        <ele>1417</ele>
        <time>2016-05-15T09:51:54Z</time>
      </trkpt>
      <trkpt lat="44.38377" lon="3.8509">
        <ele>1417</ele>
        <time>2016-05-15T09:52:03Z</time>
      </trkpt>
      <trkpt lat="44.38387" lon="3.85097">
        <ele>1417</ele>
        <time>2016-05-15T09:52:12Z</time>
      </trkpt>
      <trkpt lat="44.38398" lon="3.85104">
        <ele>1417</ele>
        <time>2016-05-15T09:52:21Z</time>
      </trkpt>
      <trkpt lat="44.38408" lon="3.8511">
        <ele>1415</ele>
        <time>2016-05-15T09:52:30Z</time>
      </trkpt>
      <trkpt lat="44.38419" lon="3.85117">
        <ele>1415</ele>
        <time>2016-05-15T09:52:39Z</time>
      </trkpt>
      <trkpt lat="44.3843" lon="3.85123">
        <ele>1415</ele>
        <time>2016-05-15T09:52:48Z</time>
      </trkpt>
      <trkpt lat="44.3844" lon="3.85129">
        <ele>1415</ele>
        <time>2016-05-15T09:52:57Z</time>
      </trkpt>
      <trkpt lat="44.3845" lon="3.85136">
        <ele>1415</ele>
        <time>2016-05-15T09:53:06Z</time>
      </trkpt>
      <trkpt lat="44.3846" lon="3.85142">
        <ele>1416</ele>
        <time>2016-05-15T09:53:15Z</time>
      </trkpt>
      <trkpt lat="44.38471" lon="3.85153">
        <ele>1417</ele>
        <time>2016-05-15T09:53:25Z</time>
      </trkpt>
      <trkpt lat="44.38477" lon="3.85166">
        <ele>1418</ele>
        <time>2016-05-15T09:53:34Z</time>
      </trkpt>
      <trkpt lat="44.3848" lon="3.85183">
        <ele>1419</ele>
        <time>2016-05-15T09:53:43Z</time>
      </trkpt>
      <trkpt lat="44.38481" lon="3.85201">
        <ele>1419</ele>
        <time>2016-05-15T09:53:52Z</time>
      </trkpt>
      <trkpt lat="44.38479" lon="3.85216">
        <ele>1419</ele>
        <time>2016-05-15T09:54:01Z</time>
      </trkpt>
      <trkpt lat="44.38472" lon="3.85231">
        <ele>1419</ele>
        <time>2016-05-15T09:54:10Z</time>
      </trkpt>
      <trkpt lat="44.38462" lon="3.8524">
        <ele>1419</ele>
        <time>2016-05-15T09:54:19Z</time>
      </trkpt>
      <trkpt lat="44.38451" lon="3.85245">
        <ele>1419</ele>
        <time>2016-05-15T09:54:29Z</time>
      </trkpt>
      <trkpt lat="44.38438" lon="3.85251">
        <ele>1422</ele>
        <time>2016-05-15T09:54:40Z</time>
      </trkpt>
      <trkpt lat="44.38427" lon="3.85258">
        <ele>1423</ele>
        <time>2016-05-15T09:54:49Z</time>
      </trkpt>
      <trkpt lat="44.38417" lon="3.85265">
        <ele>1424</ele>
        <time>2016-05-15T09:54:58Z</time>
      </trkpt>
      <trkpt lat="44.38406" lon="3.85271">
        <ele>1424</ele>
        <time>2016-05-15T09:55:07Z</time>
      </trkpt>
      <trkpt lat="44.38396" lon="3.85278">
        <ele>1424</ele>
        <time>2016-05-15T09:55:16Z</time>
      </trkpt>
      <trkpt lat="44.38387" lon="3.85288">
        <ele>1424</ele>
        <time>2016-05-15T09:55:25Z</time>
      </trkpt>
      <trkpt lat="44.38377" lon="3.85299">
        <ele>1424</ele>
        <time>2016-05-15T09:55:35Z</time>
      </trkpt>
      <trkpt lat="44.38366" lon="3.85308">
        <ele>1424</ele>
        <time>2016-05-15T09:55:45Z</time>
      </trkpt>
      <trkpt lat="44.38358" lon="3.85315">
        <ele>1427</ele>
        <time>2016-05-15T09:55:54Z</time>
      </trkpt>
      <trkpt lat="44.38348" lon="3.85324">
        <ele>1429</ele>
        <time>2016-05-15T09:56:04Z</time>
      </trkpt>
      <trkpt lat="44.38341" lon="3.85332">
        <ele>1429</ele>
        <time>2016-05-15T09:56:13Z</time>
      </trkpt>
      <trkpt lat="44.38332" lon="3.85343">
        <ele>1429</ele>
        <time>2016-05-15T09:56:22Z</time>
      </trkpt>
      <trkpt lat="44.38324" lon="3.85353">
        <ele>1429</ele>
        <time>2016-05-15T09:56:31Z</time>
      </trkpt>
      <trkpt lat="44.38316" lon="3.85363">
        <ele>1429</ele>
        <time>2016-05-15T09:56:40Z</time>
      </trkpt>
      <trkpt lat="44.38307" lon="3.85378">
        <ele>1429</ele>
        <time>2016-05-15T09:56:50Z</time>
      </trkpt>
      <trkpt lat="44.38304" lon="3.8539">
        <ele>1429</ele>
        <time>2016-05-15T09:56:59Z</time>
      </trkpt>
      <trkpt lat="44.38303" lon="3.85405">
        <ele>1429</ele>
        <time>2016-05-15T09:57:08Z</time>
      </trkpt>
      <trkpt lat="44.38304" lon="3.85423">
        <ele>1429</ele>
        <time>2016-05-15T09:57:17Z</time>
      </trkpt>
      <trkpt lat="44.38303" lon="3.85441">
        <ele>1429</ele>
        <time>2016-05-15T09:57:26Z</time>
      </trkpt>
      <trkpt lat="44.38307" lon="3.85457">
        <ele>1429</ele>
        <time>2016-05-15T09:57:35Z</time>
      </trkpt>
      <trkpt lat="44.38308" lon="3.85471">
        <ele>1430</ele>
        <time>2016-05-15T09:57:44Z</time>
      </trkpt>
      <trkpt lat="44.38316" lon="3.85487">
        <ele>1430</ele>
        <time>2016-05-15T09:57:53Z</time>
      </trkpt>
      <trkpt lat="44.38318" lon="3.85507">
        <ele>1430</ele>
        <time>2016-05-15T09:58:02Z</time>
      </trkpt>
      <trkpt lat="44.38323" lon="3.85524">
        <ele>1430</ele>
        <time>2016-05-15T09:58:11Z</time>
      </trkpt>
      <trkpt lat="44.38328" lon="3.8554">
        <ele>1429</ele>
        <time>2016-05-15T09:58:20Z</time>
      </trkpt>
      <trkpt lat="44.38333" lon="3.85555">
        <ele>1429</ele>
        <time>2016-05-15T09:58:29Z</time>
      </trkpt>
      <trkpt lat="44.38338" lon="3.85567">
        <ele>1429</ele>
        <time>2016-05-15T09:58:40Z</time>
      </trkpt>
      <trkpt lat="44.38344" lon="3.8558">
        <ele>1429</ele>
        <time>2016-05-15T09:58:50Z</time>
      </trkpt>
      <trkpt lat="44.3835" lon="3.85597">
        <ele>1429</ele>
        <time>2016-05-15T09:58:59Z</time>
      </trkpt>
      <trkpt lat="44.38355" lon="3.85612">
        <ele>1428</ele>
        <time>2016-05-15T09:59:08Z</time>
      </trkpt>
      <trkpt lat="44.38358" lon="3.85626">
        <ele>1428</ele>
        <time>2016-05-15T09:59:17Z</time>
      </trkpt>
      <trkpt lat="44.3836" lon="3.8564">
        <ele>1428</ele>
        <time>2016-05-15T09:59:26Z</time>
      </trkpt>
      <trkpt lat="44.38361" lon="3.85659">
        <ele>1427</ele>
        <time>2016-05-15T09:59:35Z</time>
      </trkpt>
      <trkpt lat="44.38364" lon="3.85672">
        <ele>1426</ele>
        <time>2016-05-15T09:59:44Z</time>
      </trkpt>
      <trkpt lat="44.38367" lon="3.85688">
        <ele>1425</ele>
        <time>2016-05-15T09:59:53Z</time>
      </trkpt>
      <trkpt lat="44.38369" lon="3.85705">
        <ele>1424</ele>
        <time>2016-05-15T10:00:02Z</time>
      </trkpt>
      <trkpt lat="44.38367" lon="3.8572">
        <ele>1424</ele>
        <time>2016-05-15T10:00:11Z</time>
      </trkpt>
      <trkpt lat="44.38367" lon="3.85736">
        <ele>1424</ele>
        <time>2016-05-15T10:00:20Z</time>
      </trkpt>
      <trkpt lat="44.38367" lon="3.8575">
        <ele>1424</ele>
        <time>2016-05-15T10:00:29Z</time>
      </trkpt>
      <trkpt lat="44.38367" lon="3.85766">
        <ele>1424</ele>
        <time>2016-05-15T10:00:38Z</time>
      </trkpt>
      <trkpt lat="44.38365" lon="3.85781">
        <ele>1424</ele>
        <time>2016-05-15T10:00:47Z</time>
      </trkpt>
      <trkpt lat="44.38364" lon="3.85795">
        <ele>1424</ele>
        <time>2016-05-15T10:00:56Z</time>
      </trkpt>
      <trkpt lat="44.38364" lon="3.8581">
        <ele>1424</ele>
        <time>2016-05-15T10:01:05Z</time>
      </trkpt>
      <trkpt lat="44.38364" lon="3.85824">
        <ele>1424</ele>
        <time>2016-05-15T10:01:14Z</time>
      </trkpt>
      <trkpt lat="44.38362" lon="3.85839">
        <ele>1424</ele>
        <time>2016-05-15T10:01:23Z</time>
      </trkpt>
      <trkpt lat="44.38364" lon="3.85856">
        <ele>1424</ele>
        <time>2016-05-15T10:01:32Z</time>
      </trkpt>
      <trkpt lat="44.38364" lon="3.85873">
        <ele>1424</ele>
        <time>2016-05-15T10:01:41Z</time>
      </trkpt>
      <trkpt lat="44.38363" lon="3.85891">
        <ele>1424</ele>
        <time>2016-05-15T10:01:51Z</time>
      </trkpt>
      <trkpt lat="44.38364" lon="3.85906">
        <ele>1424</ele>
        <time>2016-05-15T10:02:00Z</time>
      </trkpt>
      <trkpt lat="44.38364" lon="3.85924">
        <ele>1424</ele>
        <time>2016-05-15T10:02:09Z</time>
      </trkpt>
      <trkpt lat="44.38364" lon="3.85939">
        <ele>1424</ele>
        <time>2016-05-15T10:02:18Z</time>
      </trkpt>
      <trkpt lat="44.38366" lon="3.85952">
        <ele>1424</ele>
        <time>2016-05-15T10:02:28Z</time>
      </trkpt>
      <trkpt lat="44.38366" lon="3.85968">
        <ele>1424</ele>
        <time>2016-05-15T10:02:37Z</time>
      </trkpt>
      <trkpt lat="44.38367" lon="3.85982">
        <ele>1424</ele>
        <time>2016-05-15T10:02:47Z</time>
      </trkpt>
      <trkpt lat="44.38365" lon="3.85995">
        <ele>1424</ele>
        <time>2016-05-15T10:02:56Z</time>
      </trkpt>
      <trkpt lat="44.38364" lon="3.86012">
        <ele>1424</ele>
        <time>2016-05-15T10:03:05Z</time>
      </trkpt>
      <trkpt lat="44.38364" lon="3.86027">
        <ele>1424</ele>
        <time>2016-05-15T10:03:14Z</time>
      </trkpt>
      <trkpt lat="44.38362" lon="3.86043">
        <ele>1420</ele>
        <time>2016-05-15T10:03:23Z</time>
      </trkpt>
      <trkpt lat="44.38361" lon="3.86058">
        <ele>1420</ele>
        <time>2016-05-15T10:03:32Z</time>
      </trkpt>
      <trkpt lat="44.38361" lon="3.86073">
        <ele>1420</ele>
        <time>2016-05-15T10:03:41Z</time>
      </trkpt>
      <trkpt lat="44.3836" lon="3.86088">
        <ele>1420</ele>
        <time>2016-05-15T10:03:50Z</time>
      </trkpt>
      <trkpt lat="44.38358" lon="3.86103">
        <ele>1420</ele>
        <time>2016-05-15T10:03:59Z</time>
      </trkpt>
      <trkpt lat="44.38355" lon="3.86118">
        <ele>1420</ele>
        <time>2016-05-15T10:04:08Z</time>
      </trkpt>
      <trkpt lat="44.38353" lon="3.86132">
        <ele>1420</ele>
        <time>2016-05-15T10:04:17Z</time>
      </trkpt>
      <trkpt lat="44.38352" lon="3.86149">
        <ele>1420</ele>
        <time>2016-05-15T10:04:27Z</time>
      </trkpt>
      <trkpt lat="44.38351" lon="3.86164">
        <ele>1420</ele>
        <time>2016-05-15T10:04:36Z</time>
      </trkpt>
      <trkpt lat="44.38349" lon="3.8618">
        <ele>1421</ele>
        <time>2016-05-15T10:04:45Z</time>
      </trkpt>
      <trkpt lat="44.38347" lon="3.86193">
        <ele>1424</ele>
        <time>2016-05-15T10:04:54Z</time>
      </trkpt>
      <trkpt lat="44.38345" lon="3.86208">
        <ele>1425</ele>
        <time>2016-05-15T10:05:03Z</time>
      </trkpt>
      <trkpt lat="44.38346" lon="3.86225">
        <ele>1426</ele>
        <time>2016-05-15T10:05:13Z</time>
      </trkpt>
      <trkpt lat="44.38346" lon="3.86239">
        <ele>1426</ele>
        <time>2016-05-15T10:05:22Z</time>
      </trkpt>
      <trkpt lat="44.38346" lon="3.86252">
        <ele>1427</ele>
        <time>2016-05-15T10:05:32Z</time>
      </trkpt>
      <trkpt lat="44.38349" lon="3.86267">
        <ele>1428</ele>
        <time>2016-05-15T10:05:41Z</time>
      </trkpt>
      <trkpt lat="44.38357" lon="3.86281">
        <ele>1430</ele>
        <time>2016-05-15T10:05:50Z</time>
      </trkpt>
      <trkpt lat="44.38363" lon="3.86296">
        <ele>1430</ele>
        <time>2016-05-15T10:05:59Z</time>
      </trkpt>
      <trkpt lat="44.38369" lon="3.8631">
        <ele>1430</ele>
        <time>2016-05-15T10:06:09Z</time>
      </trkpt>
      <trkpt lat="44.38373" lon="3.86321">
        <ele>1432</ele>
        <time>2016-05-15T10:06:18Z</time>
      </trkpt>
      <trkpt lat="44.3838" lon="3.8634">
        <ele>1432</ele>
        <time>2016-05-15T10:06:27Z</time>
      </trkpt>
      <trkpt lat="44.38384" lon="3.86359">
        <ele>1430</ele>
        <time>2016-05-15T10:06:36Z</time>
      </trkpt>
      <trkpt lat="44.38388" lon="3.86374">
        <ele>1430</ele>
        <time>2016-05-15T10:06:45Z</time>
      </trkpt>
      <trkpt lat="44.38393" lon="3.8639">
        <ele>1430</ele>
        <time>2016-05-15T10:06:54Z</time>
      </trkpt>
      <trkpt lat="44.384" lon="3.86404">
        <ele>1430</ele>
        <time>2016-05-15T10:07:03Z</time>
      </trkpt>
      <trkpt lat="44.38404" lon="3.86415">
        <ele>1429</ele>
        <time>2016-05-15T10:07:13Z</time>
      </trkpt>
      <trkpt lat="44.38411" lon="3.86429">
        <ele>1429</ele>
        <time>2016-05-15T10:07:23Z</time>
      </trkpt>
      <trkpt lat="44.38415" lon="3.86444">
        <ele>1429</ele>
        <time>2016-05-15T10:07:32Z</time>
      </trkpt>
      <trkpt lat="44.3842" lon="3.86461">
        <ele>1429</ele>
        <time>2016-05-15T10:07:42Z</time>
      </trkpt>
      <trkpt lat="44.38423" lon="3.86476">
        <ele>1429</ele>
        <time>2016-05-15T10:07:52Z</time>
      </trkpt>
      <trkpt lat="44.38427" lon="3.86493">
        <ele>1429</ele>
        <time>2016-05-15T10:08:01Z</time>
      </trkpt>
      <trkpt lat="44.38424" lon="3.86511">
        <ele>1425</ele>
        <time>2016-05-15T10:08:11Z</time>
      </trkpt>
      <trkpt lat="44.38421" lon="3.86526">
        <ele>1420</ele>
        <time>2016-05-15T10:08:20Z</time>
      </trkpt>
      <trkpt lat="44.38415" lon="3.86542">
        <ele>1419</ele>
        <time>2016-05-15T10:08:29Z</time>
      </trkpt>
      <trkpt lat="44.38414" lon="3.86556">
        <ele>1419</ele>
        <time>2016-05-15T10:08:38Z</time>
      </trkpt>
      <trkpt lat="44.38415" lon="3.8657">
        <ele>1420</ele>
        <time>2016-05-15T10:08:47Z</time>
      </trkpt>
      <trkpt lat="44.3842" lon="3.86581">
        <ele>1420</ele>
        <time>2016-05-15T10:08:56Z</time>
      </trkpt>
      <trkpt lat="44.38424" lon="3.8659">
        <ele>1423</ele>
        <time>2016-05-15T10:09:05Z</time>
      </trkpt>
      <trkpt lat="44.38429" lon="3.86601">
        <ele>1426</ele>
        <time>2016-05-15T10:09:15Z</time>
      </trkpt>
      <trkpt lat="44.38434" lon="3.86612">
        <ele>1426</ele>
        <time>2016-05-15T10:09:25Z</time>
      </trkpt>
      <trkpt lat="44.38439" lon="3.86622">
        <ele>1431</ele>
        <time>2016-05-15T10:09:35Z</time>
      </trkpt>
      <trkpt lat="44.38446" lon="3.86634">
        <ele>1432</ele>
        <time>2016-05-15T10:09:44Z</time>
      </trkpt>
      <trkpt lat="44.38454" lon="3.86643">
        <ele>1434</ele>
        <time>2016-05-15T10:09:54Z</time>
      </trkpt>
      <trkpt lat="44.38462" lon="3.86654">
        <ele>1435</ele>
        <time>2016-05-15T10:10:03Z</time>
      </trkpt>
      <trkpt lat="44.38472" lon="3.86659">
        <ele>1435</ele>
        <time>2016-05-15T10:10:12Z</time>
      </trkpt>
      <trkpt lat="44.38486" lon="3.86669">
        <ele>1434</ele>
        <time>2016-05-15T10:10:22Z</time>
      </trkpt>
      <trkpt lat="44.38492" lon="3.86679">
        <ele>1434</ele>
        <time>2016-05-15T10:10:31Z</time>
      </trkpt>
      <trkpt lat="44.385" lon="3.86691">
        <ele>1434</ele>
        <time>2016-05-15T10:10:40Z</time>
      </trkpt>
      <trkpt lat="44.3851" lon="3.86704">
        <ele>1434</ele>
        <time>2016-05-15T10:10:50Z</time>
      </trkpt>
      <trkpt lat="44.3852" lon="3.86719">
        <ele>1434</ele>
        <time>2016-05-15T10:10:59Z</time>
      </trkpt>
      <trkpt lat="44.38528" lon="3.8673">
        <ele>1434</ele>
        <time>2016-05-15T10:11:08Z</time>
      </trkpt>
      <trkpt lat="44.3854" lon="3.86744">
        <ele>1431</ele>
        <time>2016-05-15T10:11:17Z</time>
      </trkpt>
      <trkpt lat="44.38548" lon="3.86757">
        <ele>1425</ele>
        <time>2016-05-15T10:11:26Z</time>
      </trkpt>
      <trkpt lat="44.38551" lon="3.86774">
        <ele>1423</ele>
        <time>2016-05-15T10:11:35Z</time>
      </trkpt>
      <trkpt lat="44.38556" lon="3.86791">
        <ele>1423</ele>
        <time>2016-05-15T10:11:45Z</time>
      </trkpt>
      <trkpt lat="44.38562" lon="3.86806">
        <ele>1423</ele>
        <time>2016-05-15T10:11:55Z</time>
      </trkpt>
      <trkpt lat="44.38567" lon="3.8682">
        <ele>1423</ele>
        <time>2016-05-15T10:12:05Z</time>
      </trkpt>
      <trkpt lat="44.38575" lon="3.8683">
        <ele>1423</ele>
        <time>2016-05-15T10:12:15Z</time>
      </trkpt>
      <trkpt lat="44.38575" lon="3.86845">
        <ele>1423</ele>
        <time>2016-05-15T10:12:24Z</time>
      </trkpt>
      <trkpt lat="44.38572" lon="3.8686">
        <ele>1423</ele>
        <time>2016-05-15T10:12:33Z</time>
      </trkpt>
      <trkpt lat="44.38571" lon="3.86876">
        <ele>1423</ele>
        <time>2016-05-15T10:12:42Z</time>
      </trkpt>
      <trkpt lat="44.38572" lon="3.8689">
        <ele>1423</ele>
        <time>2016-05-15T10:12:51Z</time>
      </trkpt>
      <trkpt lat="44.38572" lon="3.86903">
        <ele>1426</ele>
        <time>2016-05-15T10:13:01Z</time>
      </trkpt>
      <trkpt lat="44.38575" lon="3.86917">
        <ele>1426</ele>
        <time>2016-05-15T10:13:10Z</time>
      </trkpt>
      <trkpt lat="44.38575" lon="3.86931">
        <ele>1426</ele>
        <time>2016-05-15T10:13:20Z</time>
      </trkpt>
      <trkpt lat="44.38575" lon="3.86944">
        <ele>1427</ele>
        <time>2016-05-15T10:13:29Z</time>
      </trkpt>
      <trkpt lat="44.38575" lon="3.86959">
        <ele>1427</ele>
        <time>2016-05-15T10:13:38Z</time>
      </trkpt>
      <trkpt lat="44.38576" lon="3.86973">
        <ele>1425</ele>
        <time>2016-05-15T10:13:47Z</time>
      </trkpt>
      <trkpt lat="44.38577" lon="3.86986">
        <ele>1424</ele>
        <time>2016-05-15T10:13:56Z</time>
      </trkpt>
      <trkpt lat="44.38578" lon="3.87003">
        <ele>1426</ele>
        <time>2016-05-15T10:14:05Z</time>
      </trkpt>
      <trkpt lat="44.38583" lon="3.87022">
        <ele>1426</ele>
        <time>2016-05-15T10:14:14Z</time>
      </trkpt>
      <trkpt lat="44.38588" lon="3.87043">
        <ele>1426</ele>
        <time>2016-05-15T10:14:23Z</time>
      </trkpt>
      <trkpt lat="44.38589" lon="3.8706">
        <ele>1425</ele>
        <time>2016-05-15T10:14:32Z</time>
      </trkpt>
      <trkpt lat="44.3859" lon="3.87077">
        <ele>1425</ele>
        <time>2016-05-15T10:14:41Z</time>
      </trkpt>
      <trkpt lat="44.38592" lon="3.87095">
        <ele>1421</ele>
        <time>2016-05-15T10:14:50Z</time>
      </trkpt>
      <trkpt lat="44.38596" lon="3.87108">
        <ele>1413</ele>
        <time>2016-05-15T10:15:00Z</time>
      </trkpt>
      <trkpt lat="44.38601" lon="3.87122">
        <ele>1413</ele>
        <time>2016-05-15T10:15:11Z</time>
      </trkpt>
      <trkpt lat="44.38597" lon="3.87121">
        <ele>1413</ele>
        <time>2016-05-15T10:15:22Z</time>
      </trkpt>
      <trkpt lat="44.38591" lon="3.87119">
        <ele>1414</ele>
        <time>2016-05-15T10:15:32Z</time>
      </trkpt>
      <trkpt lat="44.3859" lon="3.8712">
        <ele>1418</ele>
        <time>2016-05-15T10:15:41Z</time>
      </trkpt>
      <trkpt lat="44.3859" lon="3.87123">
        <ele>1421</ele>
        <time>2016-05-15T10:15:52Z</time>
      </trkpt>
      <trkpt lat="44.38588" lon="3.87122">
        <ele>1426</ele>
        <time>2016-05-15T10:16:02Z</time>
      </trkpt>
      <trkpt lat="44.38592" lon="3.87121">
        <ele>1426</ele>
        <time>2016-05-15T10:16:13Z</time>
      </trkpt>
      <trkpt lat="44.38593" lon="3.87124">
        <ele>1426</ele>
        <time>2016-05-15T10:16:23Z</time>
      </trkpt>
      <trkpt lat="44.38592" lon="3.87124">
        <ele>1425</ele>
        <time>2016-05-15T10:16:39Z</time>
      </trkpt>
      <trkpt lat="44.38594" lon="3.87121">
        <ele>1425</ele>
        <time>2016-05-15T10:16:51Z</time>
      </trkpt>
      <trkpt lat="44.38598" lon="3.87125">
        <ele>1425</ele>
        <time>2016-05-15T10:17:01Z</time>
      </trkpt>
      <trkpt lat="44.38597" lon="3.87132">
        <ele>1421</ele>
        <time>2016-05-15T10:17:12Z</time>
      </trkpt>
      <trkpt lat="44.38595" lon="3.87129">
        <ele>1421</ele>
        <time>2016-05-15T10:17:22Z</time>
      </trkpt>
      <trkpt lat="44.38593" lon="3.87124">
        <ele>1421</ele>
        <time>2016-05-15T10:17:32Z</time>
      </trkpt>
      <trkpt lat="44.38594" lon="3.87123">
        <ele>1421</ele>
        <time>2016-05-15T10:17:45Z</time>
      </trkpt>
      <trkpt lat="44.38593" lon="3.87119">
        <ele>1422</ele>
        <time>2016-05-15T10:17:56Z</time>
      </trkpt>
      <trkpt lat="44.38595" lon="3.87118">
        <ele>1424</ele>
        <time>2016-05-15T10:18:11Z</time>
      </trkpt>
      <trkpt lat="44.38597" lon="3.87118">
        <ele>1424</ele>
        <time>2016-05-15T10:18:23Z</time>
      </trkpt>
      <trkpt lat="44.386" lon="3.87118">
        <ele>1424</ele>
        <time>2016-05-15T10:18:35Z</time>
      </trkpt>
      <trkpt lat="44.38604" lon="3.87124">
        <ele>1423</ele>
        <time>2016-05-15T10:18:45Z</time>
      </trkpt>
      <trkpt lat="44.38605" lon="3.87126">
        <ele>1423</ele>
        <time>2016-05-15T10:19:07Z</time>
      </trkpt>
      <trkpt lat="44.38605" lon="3.87129">
        <ele>1423</ele>
        <time>2016-05-15T10:19:16Z</time>
      </trkpt>
      <trkpt lat="44.38612" lon="3.87139">
        <ele>1423</ele>
        <time>2016-05-15T10:19:26Z</time>
      </trkpt>
      <trkpt lat="44.38619" lon="3.87147">
        <ele>1420</ele>
        <time>2016-05-15T10:19:36Z</time>
      </trkpt>
      <trkpt lat="44.38631" lon="3.87152">
        <ele>1420</ele>
        <time>2016-05-15T10:19:45Z</time>
      </trkpt>
      <trkpt lat="44.38639" lon="3.8716">
        <ele>1416</ele>
        <time>2016-05-15T10:19:54Z</time>
      </trkpt>
      <trkpt lat="44.38644" lon="3.87176">
        <ele>1416</ele>
        <time>2016-05-15T10:20:03Z</time>
      </trkpt>
      <trkpt lat="44.38647" lon="3.87188">
        <ele>1414</ele>
        <time>2016-05-15T10:20:12Z</time>
      </trkpt>
      <trkpt lat="44.3865" lon="3.87199">
        <ele>1411</ele>
        <time>2016-05-15T10:20:23Z</time>
      </trkpt>
      <trkpt lat="44.38649" lon="3.8721">
        <ele>1411</ele>
        <time>2016-05-15T10:20:32Z</time>
      </trkpt>
      <trkpt lat="44.38646" lon="3.87227">
        <ele>1410</ele>
        <time>2016-05-15T10:20:42Z</time>
      </trkpt>
      <trkpt lat="44.38646" lon="3.87243">
        <ele>1410</ele>
        <time>2016-05-15T10:20:51Z</time>
      </trkpt>
      <trkpt lat="44.38646" lon="3.87258">
        <ele>1410</ele>
        <time>2016-05-15T10:21:00Z</time>
      </trkpt>
      <trkpt lat="44.38644" lon="3.87272">
        <ele>1410</ele>
        <time>2016-05-15T10:21:10Z</time>
      </trkpt>
      <trkpt lat="44.38643" lon="3.87288">
        <ele>1408</ele>
        <time>2016-05-15T10:21:19Z</time>
      </trkpt>
      <trkpt lat="44.3864" lon="3.87304">
        <ele>1408</ele>
        <time>2016-05-15T10:21:28Z</time>
      </trkpt>
      <trkpt lat="44.38638" lon="3.87319">
        <ele>1408</ele>
        <time>2016-05-15T10:21:37Z</time>
      </trkpt>
      <trkpt lat="44.38635" lon="3.87335">
        <ele>1409</ele>
        <time>2016-05-15T10:21:46Z</time>
      </trkpt>
      <trkpt lat="44.38633" lon="3.87346">
        <ele>1412</ele>
        <time>2016-05-15T10:21:55Z</time>
      </trkpt>
      <trkpt lat="44.38627" lon="3.87359">
        <ele>1412</ele>
        <time>2016-05-15T10:22:04Z</time>
      </trkpt>
      <trkpt lat="44.3862" lon="3.87374">
        <ele>1412</ele>
        <time>2016-05-15T10:22:14Z</time>
      </trkpt>
      <trkpt lat="44.38616" lon="3.87387">
        <ele>1413</ele>
        <time>2016-05-15T10:22:24Z</time>
      </trkpt>
      <trkpt lat="44.38614" lon="3.87403">
        <ele>1414</ele>
        <time>2016-05-15T10:22:34Z</time>
      </trkpt>
      <trkpt lat="44.38613" lon="3.8742">
        <ele>1414</ele>
        <time>2016-05-15T10:22:43Z</time>
      </trkpt>
      <trkpt lat="44.3861" lon="3.87437">
        <ele>1414</ele>
        <time>2016-05-15T10:22:53Z</time>
      </trkpt>
      <trkpt lat="44.38607" lon="3.87451">
        <ele>1414</ele>
        <time>2016-05-15T10:23:02Z</time>
      </trkpt>
      <trkpt lat="44.38604" lon="3.87467">
        <ele>1414</ele>
        <time>2016-05-15T10:23:12Z</time>
      </trkpt>
      <trkpt lat="44.38604" lon="3.87478">
        <ele>1414</ele>
        <time>2016-05-15T10:23:21Z</time>
      </trkpt>
      <trkpt lat="44.38603" lon="3.87481">
        <ele>1418</ele>
        <time>2016-05-15T10:23:30Z</time>
      </trkpt>
      <trkpt lat="44.38603" lon="3.87486">
        <ele>1416</ele>
        <time>2016-05-15T10:23:39Z</time>
      </trkpt>
      <trkpt lat="44.38605" lon="3.87492">
        <ele>1416</ele>
        <time>2016-05-15T10:23:49Z</time>
      </trkpt>
      <trkpt lat="44.38607" lon="3.8749">
        <ele>1412</ele>
        <time>2016-05-15T10:23:58Z</time>
      </trkpt>
      <trkpt lat="44.38611" lon="3.87485">
        <ele>1412</ele>
        <time>2016-05-15T10:24:08Z</time>
      </trkpt>
      <trkpt lat="44.38613" lon="3.87485">
        <ele>1412</ele>
        <time>2016-05-15T10:24:17Z</time>
      </trkpt>
      <trkpt lat="44.38615" lon="3.87481">
        <ele>1420</ele>
        <time>2016-05-15T10:24:27Z</time>
      </trkpt>
      <trkpt lat="44.38618" lon="3.87477">
        <ele>1433</ele>
        <time>2016-05-15T10:24:40Z</time>
      </trkpt>
      <trkpt lat="44.38617" lon="3.87478">
        <ele>1437</ele>
        <time>2016-05-15T10:25:00Z</time>
      </trkpt>
      <trkpt lat="44.38618" lon="3.87482">
        <ele>1434</ele>
        <time>2016-05-15T10:25:10Z</time>
      </trkpt>
      <trkpt lat="44.3862" lon="3.87487">
        <ele>1431</ele>
        <time>2016-05-15T10:25:19Z</time>
      </trkpt>
      <trkpt lat="44.38622" lon="3.8748">
        <ele>1431</ele>
        <time>2016-05-15T10:25:28Z</time>
      </trkpt>
      <trkpt lat="44.38622" lon="3.87479">
        <ele>1431</ele>
        <time>2016-05-15T10:25:43Z</time>
      </trkpt>
      <trkpt lat="44.38621" lon="3.87486">
        <ele>1431</ele>
        <time>2016-05-15T10:25:55Z</time>
      </trkpt>
      <trkpt lat="44.38619" lon="3.87488">
        <ele>1428</ele>
        <time>2016-05-15T10:26:08Z</time>
      </trkpt>
      <trkpt lat="44.38618" lon="3.87485">
        <ele>1428</ele>
        <time>2016-05-15T10:26:17Z</time>
      </trkpt>
      <trkpt lat="44.38618" lon="3.87488">
        <ele>1425</ele>
        <time>2016-05-15T10:26:27Z</time>
      </trkpt>
      <trkpt lat="44.38622" lon="3.8749">
        <ele>1425</ele>
        <time>2016-05-15T10:26:41Z</time>
      </trkpt>
      <trkpt lat="44.38624" lon="3.87488">
        <ele>1425</ele>
        <time>2016-05-15T10:26:54Z</time>
      </trkpt>
      <trkpt lat="44.38626" lon="3.87489">
        <ele>1425</ele>
        <time>2016-05-15T10:27:06Z</time>
      </trkpt>
      <trkpt lat="44.38628" lon="3.87488">
        <ele>1426</ele>
        <time>2016-05-15T10:27:18Z</time>
      </trkpt>
      <trkpt lat="44.38624" lon="3.87486">
        <ele>1426</ele>
        <time>2016-05-15T10:27:29Z</time>
      </trkpt>
      <trkpt lat="44.38622" lon="3.87482">
        <ele>1426</ele>
        <time>2016-05-15T10:27:44Z</time>
      </trkpt>
      <trkpt lat="44.3862" lon="3.87479">
        <ele>1430</ele>
        <time>2016-05-15T10:27:55Z</time>
      </trkpt>
      <trkpt lat="44.38617" lon="3.87475">
        <ele>1432</ele>
        <time>2016-05-15T10:28:04Z</time>
      </trkpt>
      <trkpt lat="44.38618" lon="3.87477">
        <ele>1432</ele>
        <time>2016-05-15T10:28:14Z</time>
      </trkpt>
      <trkpt lat="44.38617" lon="3.87477">
        <ele>1432</ele>
        <time>2016-05-15T10:28:29Z</time>
      </trkpt>
      <trkpt lat="44.38615" lon="3.87484">
        <ele>1421</ele>
        <time>2016-05-15T10:28:41Z</time>
      </trkpt>
      <trkpt lat="44.38615" lon="3.87487">
        <ele>1412</ele>
        <time>2016-05-15T10:28:51Z</time>
      </trkpt>
      <trkpt lat="44.38613" lon="3.87485">
        <ele>1409</ele>
        <time>2016-05-15T10:29:04Z</time>
      </trkpt>
      <trkpt lat="44.38614" lon="3.87487">
        <ele>1412</ele>
        <time>2016-05-15T10:29:15Z</time>
      </trkpt>
      <trkpt lat="44.38612" lon="3.8749">
        <ele>1414</ele>
        <time>2016-05-15T10:29:27Z</time>
      </trkpt>
      <trkpt lat="44.38609" lon="3.8749">
        <ele>1414</ele>
        <time>2016-05-15T10:29:38Z</time>
      </trkpt>
      <trkpt lat="44.38612" lon="3.87487">
        <ele>1415</ele>
        <time>2016-05-15T10:29:51Z</time>
      </trkpt>
      <trkpt lat="44.38612" lon="3.87481">
        <ele>1428</ele>
        <time>2016-05-15T10:30:04Z</time>
      </trkpt>
      <trkpt lat="44.38618" lon="3.87477">
        <ele>1428</ele>
        <time>2016-05-15T10:30:14Z</time>
      </trkpt>
      <trkpt lat="44.38623" lon="3.87473">
        <ele>1428</ele>
        <time>2016-05-15T10:30:24Z</time>
      </trkpt>
      <trkpt lat="44.38632" lon="3.87469">
        <ele>1428</ele>
        <time>2016-05-15T10:30:33Z</time>
      </trkpt>
      <trkpt lat="44.38641" lon="3.87463">
        <ele>1428</ele>
        <time>2016-05-15T10:30:42Z</time>
      </trkpt>
      <trkpt lat="44.38647" lon="3.87455">
        <ele>1428</ele>
        <time>2016-05-15T10:30:52Z</time>
      </trkpt>
      <trkpt lat="44.38652" lon="3.87445">
        <ele>1428</ele>
        <time>2016-05-15T10:31:01Z</time>
      </trkpt>
      <trkpt lat="44.38657" lon="3.87436">
        <ele>1428</ele>
        <time>2016-05-15T10:31:37Z</time>
      </trkpt>
      <trkpt lat="44.38662" lon="3.87428">
        <ele>1428</ele>
        <time>2016-05-15T10:31:47Z</time>
      </trkpt>
      <trkpt lat="44.38665" lon="3.87421">
        <ele>1428</ele>
        <time>2016-05-15T10:31:56Z</time>
      </trkpt>
      <trkpt lat="44.38672" lon="3.8741">
        <ele>1428</ele>
        <time>2016-05-15T10:32:06Z</time>
      </trkpt>
      <trkpt lat="44.38678" lon="3.87401">
        <ele>1429</ele>
        <time>2016-05-15T10:32:15Z</time>
      </trkpt>
      <trkpt lat="44.38684" lon="3.87391">
        <ele>1430</ele>
        <time>2016-05-15T10:32:24Z</time>
      </trkpt>
      <trkpt lat="44.38691" lon="3.8738">
        <ele>1431</ele>
        <time>2016-05-15T10:32:34Z</time>
      </trkpt>
      <trkpt lat="44.38698" lon="3.8737">
        <ele>1432</ele>
        <time>2016-05-15T10:32:43Z</time>
      </trkpt>
      <trkpt lat="44.38705" lon="3.8736">
        <ele>1433</ele>
        <time>2016-05-15T10:32:53Z</time>
      </trkpt>
      <trkpt lat="44.38712" lon="3.87351">
        <ele>1434</ele>
        <time>2016-05-15T10:33:03Z</time>
      </trkpt>
      <trkpt lat="44.38719" lon="3.87341">
        <ele>1435</ele>
        <time>2016-05-15T10:33:13Z</time>
      </trkpt>
      <trkpt lat="44.38726" lon="3.8733">
        <ele>1436</ele>
        <time>2016-05-15T10:33:23Z</time>
      </trkpt>
      <trkpt lat="44.38734" lon="3.87322">
        <ele>1438</ele>
        <time>2016-05-15T10:33:33Z</time>
      </trkpt>
      <trkpt lat="44.38741" lon="3.87316">
        <ele>1439</ele>
        <time>2016-05-15T10:33:42Z</time>
      </trkpt>
      <trkpt lat="44.38748" lon="3.87309">
        <ele>1440</ele>
        <time>2016-05-15T10:33:52Z</time>
      </trkpt>
      <trkpt lat="44.38752" lon="3.87301">
        <ele>1445</ele>
        <time>2016-05-15T10:34:01Z</time>
      </trkpt>
      <trkpt lat="44.38755" lon="3.87293">
        <ele>1448</ele>
        <time>2016-05-15T10:34:10Z</time>
      </trkpt>
      <trkpt lat="44.38761" lon="3.87286">
        <ele>1452</ele>
        <time>2016-05-15T10:34:20Z</time>
      </trkpt>
      <trkpt lat="44.38771" lon="3.8728">
        <ele>1452</ele>
        <time>2016-05-15T10:34:29Z</time>
      </trkpt>
      <trkpt lat="44.38781" lon="3.87275">
        <ele>1452</ele>
        <time>2016-05-15T10:34:38Z</time>
      </trkpt>
      <trkpt lat="44.38791" lon="3.87269">
        <ele>1452</ele>
        <time>2016-05-15T10:34:49Z</time>
      </trkpt>
      <trkpt lat="44.38801" lon="3.87266">
        <ele>1452</ele>
        <time>2016-05-15T10:34:58Z</time>
      </trkpt>
      <trkpt lat="44.38808" lon="3.87259">
        <ele>1452</ele>
        <time>2016-05-15T10:35:07Z</time>
      </trkpt>
      <trkpt lat="44.38821" lon="3.87255">
        <ele>1452</ele>
        <time>2016-05-15T10:35:17Z</time>
      </trkpt>
      <trkpt lat="44.38832" lon="3.87252">
        <ele>1451</ele>
        <time>2016-05-15T10:35:27Z</time>
      </trkpt>
      <trkpt lat="44.3884" lon="3.87249">
        <ele>1451</ele>
        <time>2016-05-15T10:35:37Z</time>
      </trkpt>
      <trkpt lat="44.38847" lon="3.87245">
        <ele>1451</ele>
        <time>2016-05-15T10:35:48Z</time>
      </trkpt>
      <trkpt lat="44.38858" lon="3.87243">
        <ele>1454</ele>
        <time>2016-05-15T10:35:57Z</time>
      </trkpt>
      <trkpt lat="44.38866" lon="3.87238">
        <ele>1457</ele>
        <time>2016-05-15T10:36:06Z</time>
      </trkpt>
      <trkpt lat="44.38876" lon="3.87236">
        <ele>1457</ele>
        <time>2016-05-15T10:36:16Z</time>
      </trkpt>
      <trkpt lat="44.38889" lon="3.87232">
        <ele>1457</ele>
        <time>2016-05-15T10:36:26Z</time>
      </trkpt>
      <trkpt lat="44.38899" lon="3.8723">
        <ele>1457</ele>
        <time>2016-05-15T10:36:35Z</time>
      </trkpt>
      <trkpt lat="44.38908" lon="3.87228">
        <ele>1457</ele>
        <time>2016-05-15T10:36:45Z</time>
      </trkpt>
      <trkpt lat="44.38918" lon="3.87227">
        <ele>1458</ele>
        <time>2016-05-15T10:36:54Z</time>
      </trkpt>
      <trkpt lat="44.38927" lon="3.87224">
        <ele>1462</ele>
        <time>2016-05-15T10:37:05Z</time>
      </trkpt>
      <trkpt lat="44.38937" lon="3.87221">
        <ele>1464</ele>
        <time>2016-05-15T10:37:14Z</time>
      </trkpt>
      <trkpt lat="44.38949" lon="3.87219">
        <ele>1465</ele>
        <time>2016-05-15T10:37:24Z</time>
      </trkpt>
      <trkpt lat="44.38962" lon="3.87219">
        <ele>1465</ele>
        <time>2016-05-15T10:37:34Z</time>
      </trkpt>
      <trkpt lat="44.3897" lon="3.87218">
        <ele>1465</ele>
        <time>2016-05-15T10:37:43Z</time>
      </trkpt>
      <trkpt lat="44.38976" lon="3.87215">
        <ele>1465</ele>
        <time>2016-05-15T10:37:52Z</time>
      </trkpt>
      <trkpt lat="44.38986" lon="3.87211">
        <ele>1466</ele>
        <time>2016-05-15T10:38:02Z</time>
      </trkpt>
      <trkpt lat="44.38993" lon="3.87204">
        <ele>1470</ele>
        <time>2016-05-15T10:38:11Z</time>
      </trkpt>
      <trkpt lat="44.39005" lon="3.87197">
        <ele>1470</ele>
        <time>2016-05-15T10:38:20Z</time>
      </trkpt>
      <trkpt lat="44.39018" lon="3.87191">
        <ele>1463</ele>
        <time>2016-05-15T10:38:29Z</time>
      </trkpt>
      <trkpt lat="44.39026" lon="3.87183">
        <ele>1463</ele>
        <time>2016-05-15T10:38:39Z</time>
      </trkpt>
      <trkpt lat="44.39036" lon="3.87173">
        <ele>1463</ele>
        <time>2016-05-15T10:38:49Z</time>
      </trkpt>
      <trkpt lat="44.39043" lon="3.87165">
        <ele>1463</ele>
        <time>2016-05-15T10:38:58Z</time>
      </trkpt>
      <trkpt lat="44.39052" lon="3.87157">
        <ele>1463</ele>
        <time>2016-05-15T10:39:07Z</time>
      </trkpt>
      <trkpt lat="44.3906" lon="3.87147">
        <ele>1463</ele>
        <time>2016-05-15T10:39:17Z</time>
      </trkpt>
      <trkpt lat="44.39067" lon="3.87138">
        <ele>1464</ele>
        <time>2016-05-15T10:39:27Z</time>
      </trkpt>
      <trkpt lat="44.39073" lon="3.87133">
        <ele>1467</ele>
        <time>2016-05-15T10:39:37Z</time>
      </trkpt>
      <trkpt lat="44.39082" lon="3.87122">
        <ele>1468</ele>
        <time>2016-05-15T10:39:48Z</time>
      </trkpt>
      <trkpt lat="44.39089" lon="3.87115">
        <ele>1469</ele>
        <time>2016-05-15T10:39:57Z</time>
      </trkpt>
      <trkpt lat="44.39097" lon="3.87107">
        <ele>1472</ele>
        <time>2016-05-15T10:40:07Z</time>
      </trkpt>
      <trkpt lat="44.39106" lon="3.87098">
        <ele>1475</ele>
        <time>2016-05-15T10:40:17Z</time>
      </trkpt>
      <trkpt lat="44.39114" lon="3.8709">
        <ele>1476</ele>
        <time>2016-05-15T10:40:26Z</time>
      </trkpt>
      <trkpt lat="44.39122" lon="3.87081">
        <ele>1476</ele>
        <time>2016-05-15T10:40:35Z</time>
      </trkpt>
      <trkpt lat="44.3913" lon="3.87071">
        <ele>1476</ele>
        <time>2016-05-15T10:40:44Z</time>
      </trkpt>
      <trkpt lat="44.39133" lon="3.8706">
        <ele>1477</ele>
        <time>2016-05-15T10:40:55Z</time>
      </trkpt>
      <trkpt lat="44.39137" lon="3.87054">
        <ele>1479</ele>
        <time>2016-05-15T10:41:04Z</time>
      </trkpt>
      <trkpt lat="44.3914" lon="3.87044">
        <ele>1480</ele>
        <time>2016-05-15T10:41:13Z</time>
      </trkpt>
      <trkpt lat="44.3914" lon="3.87031">
        <ele>1485</ele>
        <time>2016-05-15T10:41:23Z</time>
      </trkpt>
      <trkpt lat="44.39142" lon="3.87018">
        <ele>1488</ele>
        <time>2016-05-15T10:41:32Z</time>
      </trkpt>
      <trkpt lat="44.39146" lon="3.87003">
        <ele>1491</ele>
        <time>2016-05-15T10:41:41Z</time>
      </trkpt>
      <trkpt lat="44.39154" lon="3.86986">
        <ele>1491</ele>
        <time>2016-05-15T10:41:51Z</time>
      </trkpt>
      <trkpt lat="44.39155" lon="3.86974">
        <ele>1491</ele>
        <time>2016-05-15T10:42:01Z</time>
      </trkpt>
      <trkpt lat="44.39159" lon="3.86961">
        <ele>1492</ele>
        <time>2016-05-15T10:42:10Z</time>
      </trkpt>
      <trkpt lat="44.39164" lon="3.86946">
        <ele>1496</ele>
        <time>2016-05-15T10:42:21Z</time>
      </trkpt>
      <trkpt lat="44.3917" lon="3.8693">
        <ele>1496</ele>
        <time>2016-05-15T10:42:30Z</time>
      </trkpt>
      <trkpt lat="44.39173" lon="3.86917">
        <ele>1495</ele>
        <time>2016-05-15T10:42:39Z</time>
      </trkpt>
      <trkpt lat="44.39179" lon="3.86914">
        <ele>1492</ele>
        <time>2016-05-15T10:42:49Z</time>
      </trkpt>
      <trkpt lat="44.39186" lon="3.86924">
        <ele>1492</ele>
        <time>2016-05-15T10:42:59Z</time>
      </trkpt>
      <trkpt lat="44.39193" lon="3.86935">
        <ele>1491</ele>
        <time>2016-05-15T10:43:08Z</time>
      </trkpt>
      <trkpt lat="44.39198" lon="3.86949">
        <ele>1491</ele>
        <time>2016-05-15T10:43:18Z</time>
      </trkpt>
      <trkpt lat="44.39203" lon="3.8696">
        <ele>1491</ele>
        <time>2016-05-15T10:43:28Z</time>
      </trkpt>
      <trkpt lat="44.39207" lon="3.86969">
        <ele>1491</ele>
        <time>2016-05-15T10:43:37Z</time>
      </trkpt>
      <trkpt lat="44.39212" lon="3.86976">
        <ele>1495</ele>
        <time>2016-05-15T10:43:47Z</time>
      </trkpt>
      <trkpt lat="44.39214" lon="3.86989">
        <ele>1496</ele>
        <time>2016-05-15T10:43:56Z</time>
      </trkpt>
      <trkpt lat="44.39218" lon="3.87004">
        <ele>1497</ele>
        <time>2016-05-15T10:44:05Z</time>
      </trkpt>
      <trkpt lat="44.39219" lon="3.87017">
        <ele>1497</ele>
        <time>2016-05-15T10:44:14Z</time>
      </trkpt>
      <trkpt lat="44.39216" lon="3.8703">
        <ele>1497</ele>
        <time>2016-05-15T10:44:24Z</time>
      </trkpt>
      <trkpt lat="44.39216" lon="3.87041">
        <ele>1498</ele>
        <time>2016-05-15T10:44:33Z</time>
      </trkpt>
      <trkpt lat="44.39221" lon="3.87058">
        <ele>1498</ele>
        <time>2016-05-15T10:44:42Z</time>
      </trkpt>
      <trkpt lat="44.39222" lon="3.87074">
        <ele>1498</ele>
        <time>2016-05-15T10:44:51Z</time>
      </trkpt>
      <trkpt lat="44.39224" lon="3.87089">
        <ele>1497</ele>
        <time>2016-05-15T10:45:01Z</time>
      </trkpt>
      <trkpt lat="44.39225" lon="3.87093">
        <ele>1497</ele>
        <time>2016-05-15T10:45:11Z</time>
      </trkpt>
      <trkpt lat="44.39222" lon="3.87087">
        <ele>1498</ele>
        <time>2016-05-15T10:45:21Z</time>
      </trkpt>
      <trkpt lat="44.39222" lon="3.87079">
        <ele>1504</ele>
        <time>2016-05-15T10:45:31Z</time>
      </trkpt>
      <trkpt lat="44.39225" lon="3.87069">
        <ele>1514</ele>
        <time>2016-05-15T10:45:41Z</time>
      </trkpt>
      <trkpt lat="44.39228" lon="3.87057">
        <ele>1516</ele>
        <time>2016-05-15T10:45:50Z</time>
      </trkpt>
      <trkpt lat="44.39233" lon="3.87043">
        <ele>1519</ele>
        <time>2016-05-15T10:45:59Z</time>
      </trkpt>
      <trkpt lat="44.39238" lon="3.87031">
        <ele>1519</ele>
        <time>2016-05-15T10:46:08Z</time>
      </trkpt>
      <trkpt lat="44.39243" lon="3.87017">
        <ele>1517</ele>
        <time>2016-05-15T10:46:18Z</time>
      </trkpt>
      <trkpt lat="44.39251" lon="3.87004">
        <ele>1513</ele>
        <time>2016-05-15T10:46:27Z</time>
      </trkpt>
      <trkpt lat="44.39262" lon="3.86991">
        <ele>1510</ele>
        <time>2016-05-15T10:46:36Z</time>
      </trkpt>
      <trkpt lat="44.39268" lon="3.86978">
        <ele>1507</ele>
        <time>2016-05-15T10:46:45Z</time>
      </trkpt>
      <trkpt lat="44.39275" lon="3.86964">
        <ele>1506</ele>
        <time>2016-05-15T10:46:56Z</time>
      </trkpt>
      <trkpt lat="44.39282" lon="3.86955">
        <ele>1506</ele>
        <time>2016-05-15T10:47:06Z</time>
      </trkpt>
      <trkpt lat="44.39287" lon="3.86945">
        <ele>1510</ele>
        <time>2016-05-15T10:47:16Z</time>
      </trkpt>
      <trkpt lat="44.39292" lon="3.86937">
        <ele>1512</ele>
        <time>2016-05-15T10:47:25Z</time>
      </trkpt>
      <trkpt lat="44.39299" lon="3.86927">
        <ele>1513</ele>
        <time>2016-05-15T10:47:34Z</time>
      </trkpt>
      <trkpt lat="44.39306" lon="3.86917">
        <ele>1514</ele>
        <time>2016-05-15T10:47:43Z</time>
      </trkpt>
      <trkpt lat="44.39315" lon="3.86908">
        <ele>1514</ele>
        <time>2016-05-15T10:47:53Z</time>
      </trkpt>
      <trkpt lat="44.39324" lon="3.86902">
        <ele>1514</ele>
        <time>2016-05-15T10:48:03Z</time>
      </trkpt>
      <trkpt lat="44.39333" lon="3.86898">
        <ele>1514</ele>
        <time>2016-05-15T10:48:12Z</time>
      </trkpt>
      <trkpt lat="44.39346" lon="3.86894">
        <ele>1515</ele>
        <time>2016-05-15T10:48:22Z</time>
      </trkpt>
      <trkpt lat="44.39358" lon="3.86887">
        <ele>1515</ele>
        <time>2016-05-15T10:48:33Z</time>
      </trkpt>
      <trkpt lat="44.39368" lon="3.86878">
        <ele>1515</ele>
        <time>2016-05-15T10:48:43Z</time>
      </trkpt>
      <trkpt lat="44.39376" lon="3.86871">
        <ele>1518</ele>
        <time>2016-05-15T10:48:53Z</time>
      </trkpt>
      <trkpt lat="44.39382" lon="3.86863">
        <ele>1521</ele>
        <time>2016-05-15T10:49:02Z</time>
      </trkpt>
      <trkpt lat="44.39388" lon="3.86853">
        <ele>1524</ele>
        <time>2016-05-15T10:49:12Z</time>
      </trkpt>
      <trkpt lat="44.39394" lon="3.86843">
        <ele>1528</ele>
        <time>2016-05-15T10:49:21Z</time>
      </trkpt>
      <trkpt lat="44.39402" lon="3.86827">
        <ele>1528</ele>
        <time>2016-05-15T10:49:30Z</time>
      </trkpt>
      <trkpt lat="44.3941" lon="3.86812">
        <ele>1526</ele>
        <time>2016-05-15T10:49:40Z</time>
      </trkpt>
      <trkpt lat="44.39417" lon="3.86798">
        <ele>1522</ele>
        <time>2016-05-15T10:49:50Z</time>
      </trkpt>
      <trkpt lat="44.39422" lon="3.86784">
        <ele>1521</ele>
        <time>2016-05-15T10:49:59Z</time>
      </trkpt>
      <trkpt lat="44.39427" lon="3.86772">
        <ele>1520</ele>
        <time>2016-05-15T10:50:09Z</time>
      </trkpt>
      <trkpt lat="44.39432" lon="3.86758">
        <ele>1519</ele>
        <time>2016-05-15T10:50:19Z</time>
      </trkpt>
      <trkpt lat="44.39437" lon="3.86747">
        <ele>1519</ele>
        <time>2016-05-15T10:50:28Z</time>
      </trkpt>
      <trkpt lat="44.3944" lon="3.86738">
        <ele>1525</ele>
        <time>2016-05-15T10:50:37Z</time>
      </trkpt>
      <trkpt lat="44.39448" lon="3.86726">
        <ele>1529</ele>
        <time>2016-05-15T10:50:48Z</time>
      </trkpt>
      <trkpt lat="44.39456" lon="3.86714">
        <ele>1529</ele>
        <time>2016-05-15T10:50:57Z</time>
      </trkpt>
      <trkpt lat="44.39465" lon="3.86701">
        <ele>1529</ele>
        <time>2016-05-15T10:51:07Z</time>
      </trkpt>
      <trkpt lat="44.39472" lon="3.8669">
        <ele>1529</ele>
        <time>2016-05-15T10:51:16Z</time>
      </trkpt>
      <trkpt lat="44.3948" lon="3.86679">
        <ele>1529</ele>
        <time>2016-05-15T10:51:26Z</time>
      </trkpt>
      <trkpt lat="44.39483" lon="3.86669">
        <ele>1529</ele>
        <time>2016-05-15T10:51:35Z</time>
      </trkpt>
      <trkpt lat="44.39491" lon="3.8666">
        <ele>1529</ele>
        <time>2016-05-15T10:51:44Z</time>
      </trkpt>
      <trkpt lat="44.39499" lon="3.86651">
        <ele>1530</ele>
        <time>2016-05-15T10:51:54Z</time>
      </trkpt>
      <trkpt lat="44.39508" lon="3.86644">
        <ele>1531</ele>
        <time>2016-05-15T10:52:03Z</time>
      </trkpt>
      <trkpt lat="44.39514" lon="3.86635">
        <ele>1531</ele>
        <time>2016-05-15T10:52:13Z</time>
      </trkpt>
      <trkpt lat="44.39521" lon="3.86623">
        <ele>1533</ele>
        <time>2016-05-15T10:52:23Z</time>
      </trkpt>
      <trkpt lat="44.39529" lon="3.86614">
        <ele>1533</ele>
        <time>2016-05-15T10:52:32Z</time>
      </trkpt>
      <trkpt lat="44.39536" lon="3.86603">
        <ele>1534</ele>
        <time>2016-05-15T10:52:43Z</time>
      </trkpt>
      <trkpt lat="44.39542" lon="3.86592">
        <ele>1536</ele>
        <time>2016-05-15T10:52:52Z</time>
      </trkpt>
      <trkpt lat="44.3955" lon="3.86583">
        <ele>1536</ele>
        <time>2016-05-15T10:53:01Z</time>
      </trkpt>
      <trkpt lat="44.39557" lon="3.8657">
        <ele>1536</ele>
        <time>2016-05-15T10:53:11Z</time>
      </trkpt>
      <trkpt lat="44.39565" lon="3.86559">
        <ele>1536</ele>
        <time>2016-05-15T10:53:20Z</time>
      </trkpt>
      <trkpt lat="44.39571" lon="3.86544">
        <ele>1536</ele>
        <time>2016-05-15T10:53:30Z</time>
      </trkpt>
      <trkpt lat="44.39573" lon="3.86531">
        <ele>1536</ele>
        <time>2016-05-15T10:53:39Z</time>
      </trkpt>
      <trkpt lat="44.39577" lon="3.86521">
        <ele>1536</ele>
        <time>2016-05-15T10:53:48Z</time>
      </trkpt>
      <trkpt lat="44.39581" lon="3.86508">
        <ele>1536</ele>
        <time>2016-05-15T10:53:58Z</time>
      </trkpt>
      <trkpt lat="44.39582" lon="3.86494">
        <ele>1539</ele>
        <time>2016-05-15T10:54:09Z</time>
      </trkpt>
      <trkpt lat="44.39581" lon="3.86478">
        <ele>1547</ele>
        <time>2016-05-15T10:54:19Z</time>
      </trkpt>
      <trkpt lat="44.3958" lon="3.86467">
        <ele>1547</ele>
        <time>2016-05-15T10:54:29Z</time>
      </trkpt>
      <trkpt lat="44.39578" lon="3.86454">
        <ele>1547</ele>
        <time>2016-05-15T10:54:38Z</time>
      </trkpt>
      <trkpt lat="44.39576" lon="3.86439">
        <ele>1543</ele>
        <time>2016-05-15T10:54:47Z</time>
      </trkpt>
      <trkpt lat="44.39574" lon="3.86424">
        <ele>1541</ele>
        <time>2016-05-15T10:54:56Z</time>
      </trkpt>
      <trkpt lat="44.39571" lon="3.8641">
        <ele>1541</ele>
        <time>2016-05-15T10:55:05Z</time>
      </trkpt>
      <trkpt lat="44.39569" lon="3.86396">
        <ele>1541</ele>
        <time>2016-05-15T10:55:14Z</time>
      </trkpt>
      <trkpt lat="44.39566" lon="3.86382">
        <ele>1541</ele>
        <time>2016-05-15T10:55:23Z</time>
      </trkpt>
      <trkpt lat="44.39564" lon="3.86368">
        <ele>1541</ele>
        <time>2016-05-15T10:55:32Z</time>
      </trkpt>
      <trkpt lat="44.39562" lon="3.86352">
        <ele>1541</ele>
        <time>2016-05-15T10:55:42Z</time>
      </trkpt>
      <trkpt lat="44.39561" lon="3.86338">
        <ele>1541</ele>
        <time>2016-05-15T10:55:51Z</time>
      </trkpt>
      <trkpt lat="44.3956" lon="3.86324">
        <ele>1542</ele>
        <time>2016-05-15T10:56:00Z</time>
      </trkpt>
      <trkpt lat="44.39561" lon="3.8631">
        <ele>1544</ele>
        <time>2016-05-15T10:56:09Z</time>
      </trkpt>
      <trkpt lat="44.39561" lon="3.86296">
        <ele>1544</ele>
        <time>2016-05-15T10:56:18Z</time>
      </trkpt>
      <trkpt lat="44.3956" lon="3.86283">
        <ele>1546</ele>
        <time>2016-05-15T10:56:27Z</time>
      </trkpt>
      <trkpt lat="44.3956" lon="3.86269">
        <ele>1546</ele>
        <time>2016-05-15T10:56:36Z</time>
      </trkpt>
      <trkpt lat="44.3956" lon="3.86256">
        <ele>1549</ele>
        <time>2016-05-15T10:56:45Z</time>
      </trkpt>
      <trkpt lat="44.39562" lon="3.86239">
        <ele>1554</ele>
        <time>2016-05-15T10:56:56Z</time>
      </trkpt>
      <trkpt lat="44.39566" lon="3.86226">
        <ele>1554</ele>
        <time>2016-05-15T10:57:05Z</time>
      </trkpt>
      <trkpt lat="44.39568" lon="3.86212">
        <ele>1554</ele>
        <time>2016-05-15T10:57:14Z</time>
      </trkpt>
      <trkpt lat="44.39568" lon="3.86197">
        <ele>1559</ele>
        <time>2016-05-15T10:57:24Z</time>
      </trkpt>
      <trkpt lat="44.3957" lon="3.86184">
        <ele>1566</ele>
        <time>2016-05-15T10:57:33Z</time>
      </trkpt>
      <trkpt lat="44.39571" lon="3.86168">
        <ele>1569</ele>
        <time>2016-05-15T10:57:44Z</time>
      </trkpt>
      <trkpt lat="44.39573" lon="3.86155">
        <ele>1571</ele>
        <time>2016-05-15T10:57:54Z</time>
      </trkpt>
      <trkpt lat="44.39576" lon="3.86143">
        <ele>1576</ele>
        <time>2016-05-15T10:58:03Z</time>
      </trkpt>
      <trkpt lat="44.39579" lon="3.86126">
        <ele>1577</ele>
        <time>2016-05-15T10:58:12Z</time>
      </trkpt>
      <trkpt lat="44.3958" lon="3.86111">
        <ele>1576</ele>
        <time>2016-05-15T10:58:21Z</time>
      </trkpt>
      <trkpt lat="44.39582" lon="3.86101">
        <ele>1576</ele>
        <time>2016-05-15T10:58:30Z</time>
      </trkpt>
      <trkpt lat="44.39585" lon="3.86087">
        <ele>1576</ele>
        <time>2016-05-15T10:58:39Z</time>
      </trkpt>
      <trkpt lat="44.39589" lon="3.86073">
        <ele>1576</ele>
        <time>2016-05-15T10:58:48Z</time>
      </trkpt>
      <trkpt lat="44.3959" lon="3.8606">
        <ele>1576</ele>
        <time>2016-05-15T10:58:57Z</time>
      </trkpt>
      <trkpt lat="44.39595" lon="3.86043">
        <ele>1571</ele>
        <time>2016-05-15T10:59:06Z</time>
      </trkpt>
      <trkpt lat="44.39593" lon="3.86032">
        <ele>1570</ele>
        <time>2016-05-15T10:59:15Z</time>
      </trkpt>
      <trkpt lat="44.39589" lon="3.86019">
        <ele>1570</ele>
        <time>2016-05-15T10:59:24Z</time>
      </trkpt>
      <trkpt lat="44.39587" lon="3.86006">
        <ele>1570</ele>
        <time>2016-05-15T10:59:33Z</time>
      </trkpt>
      <trkpt lat="44.39582" lon="3.85994">
        <ele>1569</ele>
        <time>2016-05-15T10:59:42Z</time>
      </trkpt>
      <trkpt lat="44.39579" lon="3.85981">
        <ele>1567</ele>
        <time>2016-05-15T10:59:51Z</time>
      </trkpt>
      <trkpt lat="44.39574" lon="3.85967">
        <ele>1564</ele>
        <time>2016-05-15T11:00:01Z</time>
      </trkpt>
      <trkpt lat="44.3957" lon="3.85954">
        <ele>1562</ele>
        <time>2016-05-15T11:00:10Z</time>
      </trkpt>
      <trkpt lat="44.39564" lon="3.85941">
        <ele>1562</ele>
        <time>2016-05-15T11:00:19Z</time>
      </trkpt>
      <trkpt lat="44.3956" lon="3.85926">
        <ele>1562</ele>
        <time>2016-05-15T11:00:28Z</time>
      </trkpt>
      <trkpt lat="44.39554" lon="3.85914">
        <ele>1563</ele>
        <time>2016-05-15T11:00:37Z</time>
      </trkpt>
      <trkpt lat="44.39548" lon="3.85902">
        <ele>1563</ele>
        <time>2016-05-15T11:00:47Z</time>
      </trkpt>
      <trkpt lat="44.39544" lon="3.8589">
        <ele>1564</ele>
        <time>2016-05-15T11:00:56Z</time>
      </trkpt>
      <trkpt lat="44.39539" lon="3.85878">
        <ele>1565</ele>
        <time>2016-05-15T11:01:05Z</time>
      </trkpt>
      <trkpt lat="44.39533" lon="3.85866">
        <ele>1565</ele>
        <time>2016-05-15T11:01:15Z</time>
      </trkpt>
      <trkpt lat="44.39527" lon="3.85853">
        <ele>1568</ele>
        <time>2016-05-15T11:01:25Z</time>
      </trkpt>
      <trkpt lat="44.39522" lon="3.85841">
        <ele>1570</ele>
        <time>2016-05-15T11:01:34Z</time>
      </trkpt>
      <trkpt lat="44.39514" lon="3.85828">
        <ele>1570</ele>
        <time>2016-05-15T11:01:44Z</time>
      </trkpt>
      <trkpt lat="44.39507" lon="3.85818">
        <ele>1571</ele>
        <time>2016-05-15T11:01:53Z</time>
      </trkpt>
      <trkpt lat="44.39502" lon="3.85805">
        <ele>1574</ele>
        <time>2016-05-15T11:02:02Z</time>
      </trkpt>
      <trkpt lat="44.39498" lon="3.85791">
        <ele>1576</ele>
        <time>2016-05-15T11:02:11Z</time>
      </trkpt>
      <trkpt lat="44.39495" lon="3.85776">
        <ele>1578</ele>
        <time>2016-05-15T11:02:20Z</time>
      </trkpt>
      <trkpt lat="44.39491" lon="3.85763">
        <ele>1579</ele>
        <time>2016-05-15T11:02:29Z</time>
      </trkpt>
      <trkpt lat="44.39487" lon="3.85748">
        <ele>1579</ele>
        <time>2016-05-15T11:02:39Z</time>
      </trkpt>
      <trkpt lat="44.39483" lon="3.85736">
        <ele>1582</ele>
        <time>2016-05-15T11:02:48Z</time>
      </trkpt>
      <trkpt lat="44.39485" lon="3.85718">
        <ele>1583</ele>
        <time>2016-05-15T11:02:58Z</time>
      </trkpt>
      <trkpt lat="44.39492" lon="3.85706">
        <ele>1583</ele>
        <time>2016-05-15T11:03:08Z</time>
      </trkpt>
      <trkpt lat="44.395" lon="3.85698">
        <ele>1586</ele>
        <time>2016-05-15T11:03:18Z</time>
      </trkpt>
      <trkpt lat="44.39508" lon="3.85696">
        <ele>1586</ele>
        <time>2016-05-15T11:03:28Z</time>
      </trkpt>
      <trkpt lat="44.39517" lon="3.85693">
        <ele>1589</ele>
        <time>2016-05-15T11:03:38Z</time>
      </trkpt>
      <trkpt lat="44.39527" lon="3.85691">
        <ele>1589</ele>
        <time>2016-05-15T11:03:47Z</time>
      </trkpt>
      <trkpt lat="44.39537" lon="3.85691">
        <ele>1591</ele>
        <time>2016-05-15T11:03:56Z</time>
      </trkpt>
      <trkpt lat="44.39547" lon="3.85689">
        <ele>1594</ele>
        <time>2016-05-15T11:04:05Z</time>
      </trkpt>
      <trkpt lat="44.39559" lon="3.85689">
        <ele>1594</ele>
        <time>2016-05-15T11:04:14Z</time>
      </trkpt>
      <trkpt lat="44.39569" lon="3.85687">
        <ele>1594</ele>
        <time>2016-05-15T11:04:23Z</time>
      </trkpt>
      <trkpt lat="44.3958" lon="3.85685">
        <ele>1594</ele>
        <time>2016-05-15T11:04:32Z</time>
      </trkpt>
      <trkpt lat="44.3959" lon="3.85687">
        <ele>1596</ele>
        <time>2016-05-15T11:04:41Z</time>
      </trkpt>
      <trkpt lat="44.396" lon="3.85686">
        <ele>1597</ele>
        <time>2016-05-15T11:04:50Z</time>
      </trkpt>
      <trkpt lat="44.39611" lon="3.85681">
        <ele>1597</ele>
        <time>2016-05-15T11:04:59Z</time>
      </trkpt>
      <trkpt lat="44.39621" lon="3.8568">
        <ele>1597</ele>
        <time>2016-05-15T11:05:08Z</time>
      </trkpt>
      <trkpt lat="44.39633" lon="3.85679">
        <ele>1597</ele>
        <time>2016-05-15T11:05:17Z</time>
      </trkpt>
      <trkpt lat="44.39644" lon="3.85679">
        <ele>1597</ele>
        <time>2016-05-15T11:05:27Z</time>
      </trkpt>
      <trkpt lat="44.39656" lon="3.85679">
        <ele>1597</ele>
        <time>2016-05-15T11:05:37Z</time>
      </trkpt>
      <trkpt lat="44.39668" lon="3.85684">
        <ele>1597</ele>
        <time>2016-05-15T11:05:47Z</time>
      </trkpt>
      <trkpt lat="44.39682" lon="3.85691">
        <ele>1594</ele>
        <time>2016-05-15T11:05:57Z</time>
      </trkpt>
      <trkpt lat="44.39694" lon="3.85695">
        <ele>1594</ele>
        <time>2016-05-15T11:06:06Z</time>
      </trkpt>
      <trkpt lat="44.39702" lon="3.85697">
        <ele>1594</ele>
        <time>2016-05-15T11:06:16Z</time>
      </trkpt>
      <trkpt lat="44.39712" lon="3.85702">
        <ele>1595</ele>
        <time>2016-05-15T11:06:25Z</time>
      </trkpt>
      <trkpt lat="44.39722" lon="3.85706">
        <ele>1597</ele>
        <time>2016-05-15T11:06:35Z</time>
      </trkpt>
      <trkpt lat="44.39731" lon="3.8571">
        <ele>1597</ele>
        <time>2016-05-15T11:06:44Z</time>
      </trkpt>
      <trkpt lat="44.39741" lon="3.85712">
        <ele>1600</ele>
        <time>2016-05-15T11:06:54Z</time>
      </trkpt>
      <trkpt lat="44.39756" lon="3.85717">
        <ele>1601</ele>
        <time>2016-05-15T11:07:04Z</time>
      </trkpt>
      <trkpt lat="44.39768" lon="3.85719">
        <ele>1602</ele>
        <time>2016-05-15T11:07:14Z</time>
      </trkpt>
      <trkpt lat="44.3978" lon="3.85723">
        <ele>1602</ele>
        <time>2016-05-15T11:07:24Z</time>
      </trkpt>
      <trkpt lat="44.3979" lon="3.85723">
        <ele>1602</ele>
        <time>2016-05-15T11:07:33Z</time>
      </trkpt>
      <trkpt lat="44.398" lon="3.85718">
        <ele>1602</ele>
        <time>2016-05-15T11:07:43Z</time>
      </trkpt>
      <trkpt lat="44.39812" lon="3.85715">
        <ele>1602</ele>
        <time>2016-05-15T11:07:52Z</time>
      </trkpt>
      <trkpt lat="44.39823" lon="3.85711">
        <ele>1602</ele>
        <time>2016-05-15T11:08:02Z</time>
      </trkpt>
      <trkpt lat="44.39836" lon="3.85705">
        <ele>1600</ele>
        <time>2016-05-15T11:08:12Z</time>
      </trkpt>
      <trkpt lat="44.39846" lon="3.85699">
        <ele>1600</ele>
        <time>2016-05-15T11:08:21Z</time>
      </trkpt>
      <trkpt lat="44.39856" lon="3.85694">
        <ele>1600</ele>
        <time>2016-05-15T11:08:30Z</time>
      </trkpt>
      <trkpt lat="44.39866" lon="3.8569">
        <ele>1600</ele>
        <time>2016-05-15T11:08:39Z</time>
      </trkpt>
      <trkpt lat="44.39876" lon="3.85679">
        <ele>1600</ele>
        <time>2016-05-15T11:08:48Z</time>
      </trkpt>
      <trkpt lat="44.39885" lon="3.85671">
        <ele>1600</ele>
        <time>2016-05-15T11:08:57Z</time>
      </trkpt>
      <trkpt lat="44.39895" lon="3.85662">
        <ele>1600</ele>
        <time>2016-05-15T11:09:06Z</time>
      </trkpt>
      <trkpt lat="44.39904" lon="3.85653">
        <ele>1600</ele>
        <time>2016-05-15T11:09:15Z</time>
      </trkpt>
      <trkpt lat="44.39914" lon="3.85639">
        <ele>1600</ele>
        <time>2016-05-15T11:09:25Z</time>
      </trkpt>
      <trkpt lat="44.39924" lon="3.85627">
        <ele>1600</ele>
        <time>2016-05-15T11:09:35Z</time>
      </trkpt>
      <trkpt lat="44.39934" lon="3.85617">
        <ele>1597</ele>
        <time>2016-05-15T11:09:44Z</time>
      </trkpt>
      <trkpt lat="44.39943" lon="3.85608">
        <ele>1597</ele>
        <time>2016-05-15T11:09:53Z</time>
      </trkpt>
      <trkpt lat="44.39951" lon="3.85601">
        <ele>1597</ele>
        <time>2016-05-15T11:10:02Z</time>
      </trkpt>
      <trkpt lat="44.39959" lon="3.85589">
        <ele>1598</ele>
        <time>2016-05-15T11:10:12Z</time>
      </trkpt>
      <trkpt lat="44.39968" lon="3.85578">
        <ele>1599</ele>
        <time>2016-05-15T11:10:22Z</time>
      </trkpt>
      <trkpt lat="44.39977" lon="3.85564">
        <ele>1599</ele>
        <time>2016-05-15T11:10:32Z</time>
      </trkpt>
      <trkpt lat="44.39979" lon="3.85559">
        <ele>1599</ele>
        <time>2016-05-15T11:10:41Z</time>
      </trkpt>
      <trkpt lat="44.39982" lon="3.85558">
        <ele>1601</ele>
        <time>2016-05-15T11:10:52Z</time>
      </trkpt>
      <trkpt lat="44.3999" lon="3.85562">
        <ele>1601</ele>
        <time>2016-05-15T11:11:01Z</time>
      </trkpt>
      <trkpt lat="44.39998" lon="3.85565">
        <ele>1601</ele>
        <time>2016-05-15T11:11:10Z</time>
      </trkpt>
      <trkpt lat="44.40009" lon="3.8557">
        <ele>1601</ele>
        <time>2016-05-15T11:11:19Z</time>
      </trkpt>
      <trkpt lat="44.40019" lon="3.85573">
        <ele>1601</ele>
        <time>2016-05-15T11:11:28Z</time>
      </trkpt>
      <trkpt lat="44.4002" lon="3.85572">
        <ele>1601</ele>
        <time>2016-05-15T11:11:37Z</time>
      </trkpt>
      <trkpt lat="44.40025" lon="3.85583">
        <ele>1596</ele>
        <time>2016-05-15T11:11:46Z</time>
      </trkpt>
      <trkpt lat="44.40017" lon="3.85579">
        <ele>1596</ele>
        <time>2016-05-15T11:11:55Z</time>
      </trkpt>
      <trkpt lat="44.40009" lon="3.85573">
        <ele>1596</ele>
        <time>2016-05-15T11:12:04Z</time>
      </trkpt>
      <trkpt lat="44.40001" lon="3.85568">
        <ele>1596</ele>
        <time>2016-05-15T11:12:14Z</time>
      </trkpt>
      <trkpt lat="44.39994" lon="3.85562">
        <ele>1596</ele>
        <time>2016-05-15T11:12:23Z</time>
      </trkpt>
      <trkpt lat="44.39986" lon="3.85558">
        <ele>1596</ele>
        <time>2016-05-15T11:12:33Z</time>
      </trkpt>
      <trkpt lat="44.39989" lon="3.85547">
        <ele>1596</ele>
        <time>2016-05-15T11:12:43Z</time>
      </trkpt>
      <trkpt lat="44.39994" lon="3.85537">
        <ele>1596</ele>
        <time>2016-05-15T11:12:52Z</time>
      </trkpt>
      <trkpt lat="44.39998" lon="3.85523">
        <ele>1596</ele>
        <time>2016-05-15T11:13:02Z</time>
      </trkpt>
      <trkpt lat="44.40003" lon="3.85507">
        <ele>1596</ele>
        <time>2016-05-15T11:13:12Z</time>
      </trkpt>
      <trkpt lat="44.40006" lon="3.85493">
        <ele>1597</ele>
        <time>2016-05-15T11:13:21Z</time>
      </trkpt>
      <trkpt lat="44.40009" lon="3.85479">
        <ele>1598</ele>
        <time>2016-05-15T11:13:30Z</time>
      </trkpt>
      <trkpt lat="44.40012" lon="3.85466">
        <ele>1599</ele>
        <time>2016-05-15T11:13:39Z</time>
      </trkpt>
      <trkpt lat="44.40016" lon="3.85452">
        <ele>1601</ele>
        <time>2016-05-15T11:13:49Z</time>
      </trkpt>
      <trkpt lat="44.40018" lon="3.85439">
        <ele>1601</ele>
        <time>2016-05-15T11:13:58Z</time>
      </trkpt>
      <trkpt lat="44.40019" lon="3.85425">
        <ele>1601</ele>
        <time>2016-05-15T11:14:07Z</time>
      </trkpt>
      <trkpt lat="44.4002" lon="3.8541">
        <ele>1601</ele>
        <time>2016-05-15T11:14:16Z</time>
      </trkpt>
      <trkpt lat="44.4002" lon="3.854">
        <ele>1601</ele>
        <time>2016-05-15T11:14:26Z</time>
      </trkpt>
      <trkpt lat="44.40018" lon="3.85398">
        <ele>1602</ele>
        <time>2016-05-15T11:14:37Z</time>
      </trkpt>
      <trkpt lat="44.40017" lon="3.85398">
        <ele>1604</ele>
        <time>2016-05-15T11:14:48Z</time>
      </trkpt>
      <trkpt lat="44.40017" lon="3.85394">
        <ele>1605</ele>
        <time>2016-05-15T11:14:58Z</time>
      </trkpt>
      <trkpt lat="44.40018" lon="3.85383">
        <ele>1605</ele>
        <time>2016-05-15T11:15:07Z</time>
      </trkpt>
      <trkpt lat="44.40018" lon="3.85373">
        <ele>1605</ele>
        <time>2016-05-15T11:15:22Z</time>
      </trkpt>
      <trkpt lat="44.4002" lon="3.85365">
        <ele>1605</ele>
        <time>2016-05-15T11:15:31Z</time>
      </trkpt>
      <trkpt lat="44.40019" lon="3.85351">
        <ele>1605</ele>
        <time>2016-05-15T11:15:41Z</time>
      </trkpt>
      <trkpt lat="44.4002" lon="3.85341">
        <ele>1605</ele>
        <time>2016-05-15T11:15:56Z</time>
      </trkpt>
      <trkpt lat="44.40021" lon="3.85328">
        <ele>1606</ele>
        <time>2016-05-15T11:16:07Z</time>
      </trkpt>
      <trkpt lat="44.40019" lon="3.8531">
        <ele>1607</ele>
        <time>2016-05-15T11:16:18Z</time>
      </trkpt>
      <trkpt lat="44.40017" lon="3.85298">
        <ele>1608</ele>
        <time>2016-05-15T11:16:27Z</time>
      </trkpt>
      <trkpt lat="44.40017" lon="3.85287">
        <ele>1608</ele>
        <time>2016-05-15T11:16:37Z</time>
      </trkpt>
      <trkpt lat="44.40021" lon="3.85276">
        <ele>1608</ele>
        <time>2016-05-15T11:16:47Z</time>
      </trkpt>
      <trkpt lat="44.40024" lon="3.85264">
        <ele>1608</ele>
        <time>2016-05-15T11:16:56Z</time>
      </trkpt>
      <trkpt lat="44.40025" lon="3.85252">
        <ele>1608</ele>
        <time>2016-05-15T11:17:06Z</time>
      </trkpt>
      <trkpt lat="44.40025" lon="3.85238">
        <ele>1609</ele>
        <time>2016-05-15T11:17:16Z</time>
      </trkpt>
      <trkpt lat="44.40023" lon="3.85223">
        <ele>1609</ele>
        <time>2016-05-15T11:17:26Z</time>
      </trkpt>
      <trkpt lat="44.40027" lon="3.85211">
        <ele>1609</ele>
        <time>2016-05-15T11:17:35Z</time>
      </trkpt>
      <trkpt lat="44.4003" lon="3.85201">
        <ele>1609</ele>
        <time>2016-05-15T11:17:44Z</time>
      </trkpt>
      <trkpt lat="44.40033" lon="3.85188">
        <ele>1610</ele>
        <time>2016-05-15T11:17:54Z</time>
      </trkpt>
      <trkpt lat="44.40036" lon="3.85175">
        <ele>1610</ele>
        <time>2016-05-15T11:18:03Z</time>
      </trkpt>
      <trkpt lat="44.40038" lon="3.85162">
        <ele>1611</ele>
        <time>2016-05-15T11:18:12Z</time>
      </trkpt>
      <trkpt lat="44.40033" lon="3.85147">
        <ele>1615</ele>
        <time>2016-05-15T11:18:21Z</time>
      </trkpt>
      <trkpt lat="44.40025" lon="3.85137">
        <ele>1618</ele>
        <time>2016-05-15T11:18:31Z</time>
      </trkpt>
      <trkpt lat="44.40018" lon="3.85124">
        <ele>1620</ele>
        <time>2016-05-15T11:18:41Z</time>
      </trkpt>
      <trkpt lat="44.40009" lon="3.85116">
        <ele>1621</ele>
        <time>2016-05-15T11:18:51Z</time>
      </trkpt>
      <trkpt lat="44.40002" lon="3.85109">
        <ele>1621</ele>
        <time>2016-05-15T11:19:00Z</time>
      </trkpt>
      <trkpt lat="44.39996" lon="3.851">
        <ele>1622</ele>
        <time>2016-05-15T11:19:09Z</time>
      </trkpt>
      <trkpt lat="44.39988" lon="3.85092">
        <ele>1622</ele>
        <time>2016-05-15T11:19:19Z</time>
      </trkpt>
      <trkpt lat="44.39981" lon="3.85082">
        <ele>1622</ele>
        <time>2016-05-15T11:19:29Z</time>
      </trkpt>
      <trkpt lat="44.39974" lon="3.85073">
        <ele>1623</ele>
        <time>2016-05-15T11:19:39Z</time>
      </trkpt>
      <trkpt lat="44.39965" lon="3.85067">
        <ele>1623</ele>
        <time>2016-05-15T11:19:48Z</time>
      </trkpt>
      <trkpt lat="44.39957" lon="3.85059">
        <ele>1623</ele>
        <time>2016-05-15T11:19:58Z</time>
      </trkpt>
      <trkpt lat="44.39949" lon="3.85049">
        <ele>1623</ele>
        <time>2016-05-15T11:20:08Z</time>
      </trkpt>
      <trkpt lat="44.39941" lon="3.85042">
        <ele>1623</ele>
        <time>2016-05-15T11:20:17Z</time>
      </trkpt>
      <trkpt lat="44.39933" lon="3.85035">
        <ele>1624</ele>
        <time>2016-05-15T11:20:26Z</time>
      </trkpt>
      <trkpt lat="44.39923" lon="3.85029">
        <ele>1624</ele>
        <time>2016-05-15T11:20:36Z</time>
      </trkpt>
      <trkpt lat="44.39915" lon="3.85022">
        <ele>1624</ele>
        <time>2016-05-15T11:20:46Z</time>
      </trkpt>
      <trkpt lat="44.39907" lon="3.85015">
        <ele>1624</ele>
        <time>2016-05-15T11:20:55Z</time>
      </trkpt>
      <trkpt lat="44.39897" lon="3.85007">
        <ele>1625</ele>
        <time>2016-05-15T11:21:05Z</time>
      </trkpt>
      <trkpt lat="44.39889" lon="3.84999">
        <ele>1625</ele>
        <time>2016-05-15T11:21:15Z</time>
      </trkpt>
      <trkpt lat="44.39889" lon="3.84988">
        <ele>1625</ele>
        <time>2016-05-15T11:21:25Z</time>
      </trkpt>
      <trkpt lat="44.39895" lon="3.8498">
        <ele>1626</ele>
        <time>2016-05-15T11:21:36Z</time>
      </trkpt>
      <trkpt lat="44.39899" lon="3.84966">
        <ele>1627</ele>
        <time>2016-05-15T11:21:47Z</time>
      </trkpt>
      <trkpt lat="44.39903" lon="3.84954">
        <ele>1627</ele>
        <time>2016-05-15T11:21:58Z</time>
      </trkpt>
      <trkpt lat="44.39907" lon="3.84942">
        <ele>1628</ele>
        <time>2016-05-15T11:22:07Z</time>
      </trkpt>
      <trkpt lat="44.39912" lon="3.84933">
        <ele>1629</ele>
        <time>2016-05-15T11:22:16Z</time>
      </trkpt>
      <trkpt lat="44.39916" lon="3.8492">
        <ele>1629</ele>
        <time>2016-05-15T11:22:25Z</time>
      </trkpt>
      <trkpt lat="44.39923" lon="3.84907">
        <ele>1632</ele>
        <time>2016-05-15T11:22:36Z</time>
      </trkpt>
      <trkpt lat="44.39928" lon="3.849">
        <ele>1633</ele>
        <time>2016-05-15T11:22:46Z</time>
      </trkpt>
      <trkpt lat="44.39938" lon="3.84893">
        <ele>1634</ele>
        <time>2016-05-15T11:22:56Z</time>
      </trkpt>
      <trkpt lat="44.39943" lon="3.84882">
        <ele>1635</ele>
        <time>2016-05-15T11:23:05Z</time>
      </trkpt>
      <trkpt lat="44.3995" lon="3.84871">
        <ele>1635</ele>
        <time>2016-05-15T11:23:14Z</time>
      </trkpt>
      <trkpt lat="44.39957" lon="3.84865">
        <ele>1637</ele>
        <time>2016-05-15T11:23:24Z</time>
      </trkpt>
      <trkpt lat="44.39961" lon="3.84855">
        <ele>1637</ele>
        <time>2016-05-15T11:23:34Z</time>
      </trkpt>
      <trkpt lat="44.39967" lon="3.84844">
        <ele>1638</ele>
        <time>2016-05-15T11:23:44Z</time>
      </trkpt>
      <trkpt lat="44.3997" lon="3.84834">
        <ele>1639</ele>
        <time>2016-05-15T11:23:53Z</time>
      </trkpt>
      <trkpt lat="44.39973" lon="3.84819">
        <ele>1639</ele>
        <time>2016-05-15T11:24:02Z</time>
      </trkpt>
      <trkpt lat="44.39976" lon="3.84804">
        <ele>1639</ele>
        <time>2016-05-15T11:24:11Z</time>
      </trkpt>
      <trkpt lat="44.39982" lon="3.84793">
        <ele>1641</ele>
        <time>2016-05-15T11:24:21Z</time>
      </trkpt>
      <trkpt lat="44.39988" lon="3.84783">
        <ele>1642</ele>
        <time>2016-05-15T11:24:31Z</time>
      </trkpt>
      <trkpt lat="44.39996" lon="3.84777">
        <ele>1644</ele>
        <time>2016-05-15T11:24:41Z</time>
      </trkpt>
      <trkpt lat="44.40003" lon="3.8477">
        <ele>1646</ele>
        <time>2016-05-15T11:24:51Z</time>
      </trkpt>
      <trkpt lat="44.40008" lon="3.84761">
        <ele>1647</ele>
        <time>2016-05-15T11:25:00Z</time>
      </trkpt>
      <trkpt lat="44.40013" lon="3.84748">
        <ele>1648</ele>
        <time>2016-05-15T11:25:11Z</time>
      </trkpt>
      <trkpt lat="44.40017" lon="3.84738">
        <ele>1649</ele>
        <time>2016-05-15T11:25:21Z</time>
      </trkpt>
      <trkpt lat="44.40021" lon="3.84728">
        <ele>1650</ele>
        <time>2016-05-15T11:25:31Z</time>
      </trkpt>
      <trkpt lat="44.40026" lon="3.84721">
        <ele>1651</ele>
        <time>2016-05-15T11:25:40Z</time>
      </trkpt>
      <trkpt lat="44.40033" lon="3.84713">
        <ele>1653</ele>
        <time>2016-05-15T11:25:50Z</time>
      </trkpt>
      <trkpt lat="44.40038" lon="3.8471">
        <ele>1653</ele>
        <time>2016-05-15T11:25:59Z</time>
      </trkpt>
      <trkpt lat="44.40043" lon="3.84705">
        <ele>1655</ele>
        <time>2016-05-15T11:26:09Z</time>
      </trkpt>
      <trkpt lat="44.40047" lon="3.84696">
        <ele>1657</ele>
        <time>2016-05-15T11:26:19Z</time>
      </trkpt>
      <trkpt lat="44.40052" lon="3.84688">
        <ele>1658</ele>
        <time>2016-05-15T11:26:29Z</time>
      </trkpt>
      <trkpt lat="44.40057" lon="3.8468">
        <ele>1659</ele>
        <time>2016-05-15T11:26:39Z</time>
      </trkpt>
      <trkpt lat="44.40061" lon="3.84675">
        <ele>1659</ele>
        <time>2016-05-15T11:26:54Z</time>
      </trkpt>
      <trkpt lat="44.40065" lon="3.84668">
        <ele>1659</ele>
        <time>2016-05-15T11:27:03Z</time>
      </trkpt>
      <trkpt lat="44.40067" lon="3.84659">
        <ele>1659</ele>
        <time>2016-05-15T11:27:13Z</time>
      </trkpt>
      <trkpt lat="44.40072" lon="3.84649">
        <ele>1660</ele>
        <time>2016-05-15T11:27:23Z</time>
      </trkpt>
      <trkpt lat="44.40077" lon="3.84643">
        <ele>1661</ele>
        <time>2016-05-15T11:27:33Z</time>
      </trkpt>
      <trkpt lat="44.40084" lon="3.84644">
        <ele>1661</ele>
        <time>2016-05-15T11:27:43Z</time>
      </trkpt>
      <trkpt lat="44.40091" lon="3.84644">
        <ele>1662</ele>
        <time>2016-05-15T11:27:53Z</time>
      </trkpt>
      <trkpt lat="44.40097" lon="3.84641">
        <ele>1662</ele>
        <time>2016-05-15T11:28:03Z</time>
      </trkpt>
      <trkpt lat="44.40099" lon="3.84634">
        <ele>1665</ele>
        <time>2016-05-15T11:28:13Z</time>
      </trkpt>
      <trkpt lat="44.40103" lon="3.84626">
        <ele>1667</ele>
        <time>2016-05-15T11:28:23Z</time>
      </trkpt>
      <trkpt lat="44.40103" lon="3.84616">
        <ele>1668</ele>
        <time>2016-05-15T11:28:32Z</time>
      </trkpt>
      <trkpt lat="44.40098" lon="3.84612">
        <ele>1670</ele>
        <time>2016-05-15T11:28:44Z</time>
      </trkpt>
      <trkpt lat="44.40094" lon="3.8461">
        <ele>1671</ele>
        <time>2016-05-15T11:28:55Z</time>
      </trkpt>
      <trkpt lat="44.40094" lon="3.84608">
        <ele>1671</ele>
        <time>2016-05-15T11:29:07Z</time>
      </trkpt>
      <trkpt lat="44.40095" lon="3.84607">
        <ele>1671</ele>
        <time>2016-05-15T11:29:19Z</time>
      </trkpt>
      <trkpt lat="44.40094" lon="3.84606">
        <ele>1672</ele>
        <time>2016-05-15T11:29:32Z</time>
      </trkpt>
      <trkpt lat="44.40093" lon="3.84604">
        <ele>1672</ele>
        <time>2016-05-15T11:30:15Z</time>
      </trkpt>
      <trkpt lat="44.40093" lon="3.8461">
        <ele>1673</ele>
        <time>2016-05-15T11:30:53Z</time>
      </trkpt>
      <trkpt lat="44.40095" lon="3.84608">
        <ele>1673</ele>
        <time>2016-05-15T11:31:04Z</time>
      </trkpt>
      <trkpt lat="44.40092" lon="3.84611">
        <ele>1673</ele>
        <time>2016-05-15T11:31:16Z</time>
      </trkpt>
      <trkpt lat="44.40089" lon="3.84614">
        <ele>1673</ele>
        <time>2016-05-15T11:31:26Z</time>
      </trkpt>
      <trkpt lat="44.40088" lon="3.84613">
        <ele>1673</ele>
        <time>2016-05-15T11:31:38Z</time>
      </trkpt>
      <trkpt lat="44.40088" lon="3.84611">
        <ele>1672</ele>
        <time>2016-05-15T11:31:48Z</time>
      </trkpt>
      <trkpt lat="44.4009" lon="3.84608">
        <ele>1672</ele>
        <time>2016-05-15T11:31:58Z</time>
      </trkpt>
      <trkpt lat="44.40088" lon="3.84607">
        <ele>1672</ele>
        <time>2016-05-15T11:32:07Z</time>
      </trkpt>
      <trkpt lat="44.40086" lon="3.8461">
        <ele>1672</ele>
        <time>2016-05-15T11:32:17Z</time>
      </trkpt>
      <trkpt lat="44.40091" lon="3.84607">
        <ele>1689</ele>
        <time>2016-05-15T11:32:27Z</time>
      </trkpt>
      <trkpt lat="44.40091" lon="3.84607">
        <ele>1675</ele>
        <time>2016-05-15T11:32:36Z</time>
      </trkpt>
      <trkpt lat="44.40089" lon="3.84606">
        <ele>1669</ele>
        <time>2016-05-15T11:32:54Z</time>
      </trkpt>
      <trkpt lat="44.40089" lon="3.84608">
        <ele>1669</ele>
        <time>2016-05-15T11:33:11Z</time>
      </trkpt>
      <trkpt lat="44.4009" lon="3.84608">
        <ele>1670</ele>
        <time>2016-05-15T11:33:35Z</time>
      </trkpt>
      <trkpt lat="44.40091" lon="3.8461">
        <ele>1670</ele>
        <time>2016-05-15T11:34:04Z</time>
      </trkpt>
      <trkpt lat="44.40091" lon="3.84612">
        <ele>1671</ele>
        <time>2016-05-15T11:34:14Z</time>
      </trkpt>
      <trkpt lat="44.40092" lon="3.84611">
        <ele>1672</ele>
        <time>2016-05-15T11:34:25Z</time>
      </trkpt>
      <trkpt lat="44.40096" lon="3.84611">
        <ele>1673</ele>
        <time>2016-05-15T11:34:37Z</time>
      </trkpt>
      <trkpt lat="44.40099" lon="3.84611">
        <ele>1673</ele>
        <time>2016-05-15T11:34:55Z</time>
      </trkpt>
      <trkpt lat="44.40103" lon="3.84611">
        <ele>1673</ele>
        <time>2016-05-15T11:35:04Z</time>
      </trkpt>
      <trkpt lat="44.40108" lon="3.84611">
        <ele>1673</ele>
        <time>2016-05-15T11:35:27Z</time>
      </trkpt>
      <trkpt lat="44.40111" lon="3.84607">
        <ele>1673</ele>
        <time>2016-05-15T11:35:43Z</time>
      </trkpt>
      <trkpt lat="44.40115" lon="3.84609">
        <ele>1673</ele>
        <time>2016-05-15T11:35:52Z</time>
      </trkpt>
      <trkpt lat="44.4012" lon="3.84605">
        <ele>1673</ele>
        <time>2016-05-15T11:36:02Z</time>
      </trkpt>
      <trkpt lat="44.40123" lon="3.84603">
        <ele>1673</ele>
        <time>2016-05-15T11:36:13Z</time>
      </trkpt>
      <trkpt lat="44.40126" lon="3.84595">
        <ele>1673</ele>
        <time>2016-05-15T11:36:22Z</time>
      </trkpt>
      <trkpt lat="44.40126" lon="3.84587">
        <ele>1673</ele>
        <time>2016-05-15T11:36:33Z</time>
      </trkpt>
      <trkpt lat="44.40126" lon="3.84584">
        <ele>1673</ele>
        <time>2016-05-15T11:36:54Z</time>
      </trkpt>
      <trkpt lat="44.40127" lon="3.84578">
        <ele>1672</ele>
        <time>2016-05-15T11:37:03Z</time>
      </trkpt>
      <trkpt lat="44.40128" lon="3.84571">
        <ele>1671</ele>
        <time>2016-05-15T11:37:13Z</time>
      </trkpt>
      <trkpt lat="44.40131" lon="3.84561">
        <ele>1670</ele>
        <time>2016-05-15T11:37:22Z</time>
      </trkpt>
      <trkpt lat="44.40133" lon="3.84549">
        <ele>1667</ele>
        <time>2016-05-15T11:37:33Z</time>
      </trkpt>
      <trkpt lat="44.4013" lon="3.84538">
        <ele>1667</ele>
        <time>2016-05-15T11:37:42Z</time>
      </trkpt>
      <trkpt lat="44.40126" lon="3.84532">
        <ele>1667</ele>
        <time>2016-05-15T11:38:00Z</time>
      </trkpt>
      <trkpt lat="44.40127" lon="3.84534">
        <ele>1667</ele>
        <time>2016-05-15T11:38:19Z</time>
      </trkpt>
      <trkpt lat="44.40124" lon="3.84544">
        <ele>1667</ele>
        <time>2016-05-15T11:38:29Z</time>
      </trkpt>
      <trkpt lat="44.40124" lon="3.84554">
        <ele>1667</ele>
        <time>2016-05-15T11:38:39Z</time>
      </trkpt>
      <trkpt lat="44.40121" lon="3.84561">
        <ele>1667</ele>
        <time>2016-05-15T11:38:48Z</time>
      </trkpt>
      <trkpt lat="44.40121" lon="3.84565">
        <ele>1667</ele>
        <time>2016-05-15T11:38:57Z</time>
      </trkpt>
      <trkpt lat="44.40125" lon="3.84569">
        <ele>1667</ele>
        <time>2016-05-15T11:39:07Z</time>
      </trkpt>
      <trkpt lat="44.40131" lon="3.84576">
        <ele>1667</ele>
        <time>2016-05-15T11:39:16Z</time>
      </trkpt>
      <trkpt lat="44.40137" lon="3.84585">
        <ele>1667</ele>
        <time>2016-05-15T11:39:26Z</time>
      </trkpt>
      <trkpt lat="44.40144" lon="3.84594">
        <ele>1667</ele>
        <time>2016-05-15T11:39:35Z</time>
      </trkpt>
      <trkpt lat="44.40152" lon="3.84592">
        <ele>1667</ele>
        <time>2016-05-15T11:39:44Z</time>
      </trkpt>
      <trkpt lat="44.40162" lon="3.8459">
        <ele>1667</ele>
        <time>2016-05-15T11:39:53Z</time>
      </trkpt>
      <trkpt lat="44.40172" lon="3.84593">
        <ele>1667</ele>
        <time>2016-05-15T11:40:03Z</time>
      </trkpt>
      <trkpt lat="44.40183" lon="3.84595">
        <ele>1667</ele>
        <time>2016-05-15T11:40:13Z</time>
      </trkpt>
      <trkpt lat="44.40186" lon="3.84594">
        <ele>1667</ele>
        <time>2016-05-15T11:40:23Z</time>
      </trkpt>
      <trkpt lat="44.40186" lon="3.84595">
        <ele>1667</ele>
        <time>2016-05-15T11:40:40Z</time>
      </trkpt>
      <trkpt lat="44.40188" lon="3.84594">
        <ele>1662</ele>
        <time>2016-05-15T11:41:03Z</time>
      </trkpt>
      <trkpt lat="44.40189" lon="3.84593">
        <ele>1662</ele>
        <time>2016-05-15T11:41:39Z</time>
      </trkpt>
      <trkpt lat="44.40196" lon="3.84593">
        <ele>1662</ele>
        <time>2016-05-15T11:41:48Z</time>
      </trkpt>
      <trkpt lat="44.40203" lon="3.84595">
        <ele>1662</ele>
        <time>2016-05-15T11:41:57Z</time>
      </trkpt>
      <trkpt lat="44.4021" lon="3.846">
        <ele>1662</ele>
        <time>2016-05-15T11:42:06Z</time>
      </trkpt>
      <trkpt lat="44.4022" lon="3.846">
        <ele>1662</ele>
        <time>2016-05-15T11:42:15Z</time>
      </trkpt>
      <trkpt lat="44.4023" lon="3.84603">
        <ele>1662</ele>
        <time>2016-05-15T11:42:24Z</time>
      </trkpt>
      <trkpt lat="44.4024" lon="3.84605">
        <ele>1662</ele>
        <time>2016-05-15T11:42:34Z</time>
      </trkpt>
      <trkpt lat="44.4025" lon="3.84604">
        <ele>1662</ele>
        <time>2016-05-15T11:42:43Z</time>
      </trkpt>
      <trkpt lat="44.4026" lon="3.84611">
        <ele>1662</ele>
        <time>2016-05-15T11:42:53Z</time>
      </trkpt>
      <trkpt lat="44.40266" lon="3.84602">
        <ele>1661</ele>
        <time>2016-05-15T11:43:03Z</time>
      </trkpt>
      <trkpt lat="44.40273" lon="3.84595">
        <ele>1660</ele>
        <time>2016-05-15T11:43:12Z</time>
      </trkpt>
      <trkpt lat="44.40276" lon="3.84591">
        <ele>1659</ele>
        <time>2016-05-15T11:43:22Z</time>
      </trkpt>
      <trkpt lat="44.40271" lon="3.84597">
        <ele>1658</ele>
        <time>2016-05-15T11:43:32Z</time>
      </trkpt>
      <trkpt lat="44.40271" lon="3.84598">
        <ele>1658</ele>
        <time>2016-05-15T11:43:44Z</time>
      </trkpt>
      <trkpt lat="44.40274" lon="3.84593">
        <ele>1657</ele>
        <time>2016-05-15T11:43:54Z</time>
      </trkpt>
      <trkpt lat="44.40283" lon="3.84588">
        <ele>1657</ele>
        <time>2016-05-15T11:44:04Z</time>
      </trkpt>
      <trkpt lat="44.40293" lon="3.8458">
        <ele>1657</ele>
        <time>2016-05-15T11:44:14Z</time>
      </trkpt>
      <trkpt lat="44.40302" lon="3.84569">
        <ele>1657</ele>
        <time>2016-05-15T11:44:24Z</time>
      </trkpt>
      <trkpt lat="44.4031" lon="3.84558">
        <ele>1655</ele>
        <time>2016-05-15T11:44:33Z</time>
      </trkpt>
      <trkpt lat="44.40318" lon="3.84548">
        <ele>1652</ele>
        <time>2016-05-15T11:44:42Z</time>
      </trkpt>
      <trkpt lat="44.40328" lon="3.84535">
        <ele>1652</ele>
        <time>2016-05-15T11:44:52Z</time>
      </trkpt>
      <trkpt lat="44.40336" lon="3.84521">
        <ele>1652</ele>
        <time>2016-05-15T11:45:02Z</time>
      </trkpt>
      <trkpt lat="44.40337" lon="3.84508">
        <ele>1650</ele>
        <time>2016-05-15T11:45:12Z</time>
      </trkpt>
      <trkpt lat="44.40337" lon="3.84491">
        <ele>1650</ele>
        <time>2016-05-15T11:45:21Z</time>
      </trkpt>
      <trkpt lat="44.40337" lon="3.84475">
        <ele>1650</ele>
        <time>2016-05-15T11:45:30Z</time>
      </trkpt>
      <trkpt lat="44.40335" lon="3.84459">
        <ele>1649</ele>
        <time>2016-05-15T11:45:39Z</time>
      </trkpt>
      <trkpt lat="44.40334" lon="3.84443">
        <ele>1649</ele>
        <time>2016-05-15T11:45:48Z</time>
      </trkpt>
      <trkpt lat="44.40333" lon="3.84429">
        <ele>1649</ele>
        <time>2016-05-15T11:45:58Z</time>
      </trkpt>
      <trkpt lat="44.40333" lon="3.84416">
        <ele>1649</ele>
        <time>2016-05-15T11:46:08Z</time>
      </trkpt>
      <trkpt lat="44.40333" lon="3.84402">
        <ele>1649</ele>
        <time>2016-05-15T11:46:17Z</time>
      </trkpt>
      <trkpt lat="44.40332" lon="3.84396">
        <ele>1647</ele>
        <time>2016-05-15T11:46:29Z</time>
      </trkpt>
      <trkpt lat="44.40332" lon="3.84381">
        <ele>1646</ele>
        <time>2016-05-15T11:46:39Z</time>
      </trkpt>
      <trkpt lat="44.40338" lon="3.84372">
        <ele>1646</ele>
        <time>2016-05-15T11:46:49Z</time>
      </trkpt>
      <trkpt lat="44.40341" lon="3.84373">
        <ele>1646</ele>
        <time>2016-05-15T11:46:58Z</time>
      </trkpt>
      <trkpt lat="44.40349" lon="3.84383">
        <ele>1645</ele>
        <time>2016-05-15T11:47:08Z</time>
      </trkpt>
      <trkpt lat="44.40356" lon="3.84389">
        <ele>1644</ele>
        <time>2016-05-15T11:47:17Z</time>
      </trkpt>
      <trkpt lat="44.40361" lon="3.84394">
        <ele>1643</ele>
        <time>2016-05-15T11:47:27Z</time>
      </trkpt>
      <trkpt lat="44.40364" lon="3.84394">
        <ele>1643</ele>
        <time>2016-05-15T11:47:49Z</time>
      </trkpt>
      <trkpt lat="44.40375" lon="3.84392">
        <ele>1643</ele>
        <time>2016-05-15T11:47:58Z</time>
      </trkpt>
      <trkpt lat="44.40385" lon="3.84394">
        <ele>1643</ele>
        <time>2016-05-15T11:48:07Z</time>
      </trkpt>
      <trkpt lat="44.40393" lon="3.84391">
        <ele>1643</ele>
        <time>2016-05-15T11:48:17Z</time>
      </trkpt>
      <trkpt lat="44.40398" lon="3.84391">
        <ele>1643</ele>
        <time>2016-05-15T11:48:27Z</time>
      </trkpt>
      <trkpt lat="44.40404" lon="3.84383">
        <ele>1643</ele>
        <time>2016-05-15T11:48:36Z</time>
      </trkpt>
      <trkpt lat="44.40406" lon="3.84385">
        <ele>1643</ele>
        <time>2016-05-15T11:48:45Z</time>
      </trkpt>
      <trkpt lat="44.40414" lon="3.84385">
        <ele>1643</ele>
        <time>2016-05-15T11:48:55Z</time>
      </trkpt>
      <trkpt lat="44.40422" lon="3.84386">
        <ele>1643</ele>
        <time>2016-05-15T11:49:04Z</time>
      </trkpt>
      <trkpt lat="44.40426" lon="3.84396">
        <ele>1643</ele>
        <time>2016-05-15T11:49:14Z</time>
      </trkpt>
      <trkpt lat="44.4043" lon="3.84405">
        <ele>1643</ele>
        <time>2016-05-15T11:49:23Z</time>
      </trkpt>
      <trkpt lat="44.40432" lon="3.84411">
        <ele>1643</ele>
        <time>2016-05-15T11:49:33Z</time>
      </trkpt>
      <trkpt lat="44.4044" lon="3.84413">
        <ele>1643</ele>
        <time>2016-05-15T11:49:43Z</time>
      </trkpt>
      <trkpt lat="44.40448" lon="3.84418">
        <ele>1643</ele>
        <time>2016-05-15T11:49:52Z</time>
      </trkpt>
      <trkpt lat="44.40455" lon="3.84426">
        <ele>1643</ele>
        <time>2016-05-15T11:50:02Z</time>
      </trkpt>
      <trkpt lat="44.40462" lon="3.84437">
        <ele>1643</ele>
        <time>2016-05-15T11:50:12Z</time>
      </trkpt>
      <trkpt lat="44.40472" lon="3.84434">
        <ele>1643</ele>
        <time>2016-05-15T11:50:22Z</time>
      </trkpt>
      <trkpt lat="44.4048" lon="3.84439">
        <ele>1643</ele>
        <time>2016-05-15T11:50:31Z</time>
      </trkpt>
      <trkpt lat="44.40488" lon="3.84446">
        <ele>1643</ele>
        <time>2016-05-15T11:50:41Z</time>
      </trkpt>
      <trkpt lat="44.40496" lon="3.84446">
        <ele>1644</ele>
        <time>2016-05-15T11:50:50Z</time>
      </trkpt>
      <trkpt lat="44.40504" lon="3.84448">
        <ele>1645</ele>
        <time>2016-05-15T11:51:00Z</time>
      </trkpt>
      <trkpt lat="44.4051" lon="3.8445">
        <ele>1645</ele>
        <time>2016-05-15T11:51:09Z</time>
      </trkpt>
      <trkpt lat="44.40518" lon="3.84453">
        <ele>1645</ele>
        <time>2016-05-15T11:51:18Z</time>
      </trkpt>
      <trkpt lat="44.40527" lon="3.84456">
        <ele>1646</ele>
        <time>2016-05-15T11:51:27Z</time>
      </trkpt>
      <trkpt lat="44.40537" lon="3.8445">
        <ele>1647</ele>
        <time>2016-05-15T11:51:37Z</time>
      </trkpt>
      <trkpt lat="44.40546" lon="3.84442">
        <ele>1649</ele>
        <time>2016-05-15T11:51:47Z</time>
      </trkpt>
      <trkpt lat="44.40556" lon="3.84436">
        <ele>1650</ele>
        <time>2016-05-15T11:51:57Z</time>
      </trkpt>
      <trkpt lat="44.40562" lon="3.84428">
        <ele>1652</ele>
        <time>2016-05-15T11:52:07Z</time>
      </trkpt>
      <trkpt lat="44.40569" lon="3.84421">
        <ele>1652</ele>
        <time>2016-05-15T11:52:17Z</time>
      </trkpt>
      <trkpt lat="44.40578" lon="3.84419">
        <ele>1653</ele>
        <time>2016-05-15T11:52:26Z</time>
      </trkpt>
      <trkpt lat="44.40586" lon="3.84413">
        <ele>1654</ele>
        <time>2016-05-15T11:52:36Z</time>
      </trkpt>
      <trkpt lat="44.40593" lon="3.84405">
        <ele>1654</ele>
        <time>2016-05-15T11:52:46Z</time>
      </trkpt>
      <trkpt lat="44.40598" lon="3.84397">
        <ele>1655</ele>
        <time>2016-05-15T11:52:55Z</time>
      </trkpt>
      <trkpt lat="44.40606" lon="3.84392">
        <ele>1655</ele>
        <time>2016-05-15T11:53:05Z</time>
      </trkpt>
      <trkpt lat="44.40608" lon="3.84392">
        <ele>1656</ele>
        <time>2016-05-15T11:53:14Z</time>
      </trkpt>
      <trkpt lat="44.40606" lon="3.84389">
        <ele>1658</ele>
        <time>2016-05-15T11:53:47Z</time>
      </trkpt>
      <trkpt lat="44.40614" lon="3.84386">
        <ele>1658</ele>
        <time>2016-05-15T11:53:57Z</time>
      </trkpt>
      <trkpt lat="44.40622" lon="3.84382">
        <ele>1658</ele>
        <time>2016-05-15T11:54:06Z</time>
      </trkpt>
      <trkpt lat="44.40631" lon="3.84377">
        <ele>1658</ele>
        <time>2016-05-15T11:54:16Z</time>
      </trkpt>
      <trkpt lat="44.40639" lon="3.8437">
        <ele>1658</ele>
        <time>2016-05-15T11:54:25Z</time>
      </trkpt>
      <trkpt lat="44.40649" lon="3.84362">
        <ele>1658</ele>
        <time>2016-05-15T11:54:35Z</time>
      </trkpt>
      <trkpt lat="44.40657" lon="3.84355">
        <ele>1658</ele>
        <time>2016-05-15T11:54:45Z</time>
      </trkpt>
      <trkpt lat="44.40665" lon="3.84346">
        <ele>1659</ele>
        <time>2016-05-15T11:54:55Z</time>
      </trkpt>
      <trkpt lat="44.40674" lon="3.84342">
        <ele>1660</ele>
        <time>2016-05-15T11:55:04Z</time>
      </trkpt>
      <trkpt lat="44.40682" lon="3.84336">
        <ele>1660</ele>
        <time>2016-05-15T11:55:14Z</time>
      </trkpt>
      <trkpt lat="44.4069" lon="3.84328">
        <ele>1661</ele>
        <time>2016-05-15T11:55:23Z</time>
      </trkpt>
      <trkpt lat="44.40699" lon="3.84321">
        <ele>1662</ele>
        <time>2016-05-15T11:55:33Z</time>
      </trkpt>
      <trkpt lat="44.40707" lon="3.84312">
        <ele>1662</ele>
        <time>2016-05-15T11:55:43Z</time>
      </trkpt>
      <trkpt lat="44.40715" lon="3.84308">
        <ele>1662</ele>
        <time>2016-05-15T11:55:59Z</time>
      </trkpt>
      <trkpt lat="44.40717" lon="3.84309">
        <ele>1662</ele>
        <time>2016-05-15T11:56:08Z</time>
      </trkpt>
      <trkpt lat="44.40719" lon="3.84309">
        <ele>1662</ele>
        <time>2016-05-15T11:56:23Z</time>
      </trkpt>
      <trkpt lat="44.4072" lon="3.84307">
        <ele>1662</ele>
        <time>2016-05-15T11:56:33Z</time>
      </trkpt>
      <trkpt lat="44.40718" lon="3.84308">
        <ele>1662</ele>
        <time>2016-05-15T11:56:45Z</time>
      </trkpt>
      <trkpt lat="44.40716" lon="3.84308">
        <ele>1662</ele>
        <time>2016-05-15T11:57:03Z</time>
      </trkpt>
      <trkpt lat="44.40721" lon="3.84303">
        <ele>1662</ele>
        <time>2016-05-15T11:57:12Z</time>
      </trkpt>
      <trkpt lat="44.40729" lon="3.84293">
        <ele>1662</ele>
        <time>2016-05-15T11:57:22Z</time>
      </trkpt>
      <trkpt lat="44.40739" lon="3.84285">
        <ele>1662</ele>
        <time>2016-05-15T11:57:32Z</time>
      </trkpt>
      <trkpt lat="44.40747" lon="3.84275">
        <ele>1662</ele>
        <time>2016-05-15T11:57:41Z</time>
      </trkpt>
      <trkpt lat="44.40757" lon="3.84265">
        <ele>1662</ele>
        <time>2016-05-15T11:57:51Z</time>
      </trkpt>
      <trkpt lat="44.40764" lon="3.84254">
        <ele>1662</ele>
        <time>2016-05-15T11:58:01Z</time>
      </trkpt>
      <trkpt lat="44.40772" lon="3.84245">
        <ele>1662</ele>
        <time>2016-05-15T11:58:11Z</time>
      </trkpt>
      <trkpt lat="44.4078" lon="3.84233">
        <ele>1662</ele>
        <time>2016-05-15T11:58:21Z</time>
      </trkpt>
      <trkpt lat="44.40784" lon="3.8422">
        <ele>1662</ele>
        <time>2016-05-15T11:58:31Z</time>
      </trkpt>
      <trkpt lat="44.40786" lon="3.84217">
        <ele>1662</ele>
        <time>2016-05-15T11:58:44Z</time>
      </trkpt>
      <trkpt lat="44.40788" lon="3.8421">
        <ele>1661</ele>
        <time>2016-05-15T11:58:54Z</time>
      </trkpt>
      <trkpt lat="44.40792" lon="3.84199">
        <ele>1661</ele>
        <time>2016-05-15T11:59:04Z</time>
      </trkpt>
      <trkpt lat="44.40794" lon="3.84188">
        <ele>1661</ele>
        <time>2016-05-15T11:59:13Z</time>
      </trkpt>
      <trkpt lat="44.40795" lon="3.84176">
        <ele>1661</ele>
        <time>2016-05-15T11:59:22Z</time>
      </trkpt>
      <trkpt lat="44.40798" lon="3.84164">
        <ele>1660</ele>
        <time>2016-05-15T11:59:31Z</time>
      </trkpt>
      <trkpt lat="44.408" lon="3.84153">
        <ele>1660</ele>
        <time>2016-05-15T11:59:40Z</time>
      </trkpt>
      <trkpt lat="44.40799" lon="3.84152">
        <ele>1659</ele>
        <time>2016-05-15T11:59:49Z</time>
      </trkpt>
      <trkpt lat="44.40801" lon="3.84151">
        <ele>1658</ele>
        <time>2016-05-15T12:00:32Z</time>
      </trkpt>
      <trkpt lat="44.408" lon="3.84152">
        <ele>1658</ele>
        <time>2016-05-15T12:00:49Z</time>
      </trkpt>
      <trkpt lat="44.408" lon="3.84153">
        <ele>1658</ele>
        <time>2016-05-15T12:01:13Z</time>
      </trkpt>
      <trkpt lat="44.40799" lon="3.84151">
        <ele>1658</ele>
        <time>2016-05-15T12:01:23Z</time>
      </trkpt>
      <trkpt lat="44.40799" lon="3.84153">
        <ele>1658</ele>
        <time>2016-05-15T12:01:33Z</time>
      </trkpt>
      <trkpt lat="44.40802" lon="3.84152">
        <ele>1658</ele>
        <time>2016-05-15T12:01:45Z</time>
      </trkpt>
      <trkpt lat="44.40808" lon="3.84145">
        <ele>1658</ele>
        <time>2016-05-15T12:01:54Z</time>
      </trkpt>
      <trkpt lat="44.40814" lon="3.84137">
        <ele>1656</ele>
        <time>2016-05-15T12:02:10Z</time>
      </trkpt>
      <trkpt lat="44.40818" lon="3.84131">
        <ele>1656</ele>
        <time>2016-05-15T12:02:26Z</time>
      </trkpt>
      <trkpt lat="44.40823" lon="3.8412">
        <ele>1656</ele>
        <time>2016-05-15T12:02:36Z</time>
      </trkpt>
      <trkpt lat="44.40829" lon="3.8411">
        <ele>1656</ele>
        <time>2016-05-15T12:02:45Z</time>
      </trkpt>
      <trkpt lat="44.40832" lon="3.84099">
        <ele>1655</ele>
        <time>2016-05-15T12:02:54Z</time>
      </trkpt>
      <trkpt lat="44.40835" lon="3.84085">
        <ele>1655</ele>
        <time>2016-05-15T12:03:03Z</time>
      </trkpt>
      <trkpt lat="44.40841" lon="3.84072">
        <ele>1655</ele>
        <time>2016-05-15T12:03:12Z</time>
      </trkpt>
      <trkpt lat="44.40844" lon="3.84059">
        <ele>1655</ele>
        <time>2016-05-15T12:03:21Z</time>
      </trkpt>
      <trkpt lat="44.40852" lon="3.8405">
        <ele>1655</ele>
        <time>2016-05-15T12:03:30Z</time>
      </trkpt>
      <trkpt lat="44.40858" lon="3.84041">
        <ele>1653</ele>
        <time>2016-05-15T12:03:39Z</time>
      </trkpt>
      <trkpt lat="44.40865" lon="3.84029">
        <ele>1652</ele>
        <time>2016-05-15T12:03:49Z</time>
      </trkpt>
      <trkpt lat="44.40872" lon="3.84015">
        <ele>1652</ele>
        <time>2016-05-15T12:03:59Z</time>
      </trkpt>
      <trkpt lat="44.40876" lon="3.84002">
        <ele>1651</ele>
        <time>2016-05-15T12:04:08Z</time>
      </trkpt>
      <trkpt lat="44.40879" lon="3.83988">
        <ele>1651</ele>
        <time>2016-05-15T12:04:17Z</time>
      </trkpt>
      <trkpt lat="44.40883" lon="3.83975">
        <ele>1651</ele>
        <time>2016-05-15T12:04:26Z</time>
      </trkpt>
      <trkpt lat="44.40887" lon="3.83962">
        <ele>1651</ele>
        <time>2016-05-15T12:04:35Z</time>
      </trkpt>
      <trkpt lat="44.40894" lon="3.83953">
        <ele>1649</ele>
        <time>2016-05-15T12:04:45Z</time>
      </trkpt>
      <trkpt lat="44.40901" lon="3.83942">
        <ele>1648</ele>
        <time>2016-05-15T12:04:54Z</time>
      </trkpt>
      <trkpt lat="44.40904" lon="3.83928">
        <ele>1648</ele>
        <time>2016-05-15T12:05:03Z</time>
      </trkpt>
      <trkpt lat="44.40909" lon="3.83919">
        <ele>1648</ele>
        <time>2016-05-15T12:05:12Z</time>
      </trkpt>
      <trkpt lat="44.40912" lon="3.83908">
        <ele>1648</ele>
        <time>2016-05-15T12:05:21Z</time>
      </trkpt>
      <trkpt lat="44.40917" lon="3.83895">
        <ele>1648</ele>
        <time>2016-05-15T12:05:31Z</time>
      </trkpt>
      <trkpt lat="44.40921" lon="3.83881">
        <ele>1648</ele>
        <time>2016-05-15T12:05:41Z</time>
      </trkpt>
      <trkpt lat="44.40923" lon="3.83869">
        <ele>1648</ele>
        <time>2016-05-15T12:05:50Z</time>
      </trkpt>
      <trkpt lat="44.40928" lon="3.83858">
        <ele>1648</ele>
        <time>2016-05-15T12:05:59Z</time>
      </trkpt>
      <trkpt lat="44.40931" lon="3.83853">
        <ele>1648</ele>
        <time>2016-05-15T12:06:09Z</time>
      </trkpt>
      <trkpt lat="44.40932" lon="3.83846">
        <ele>1646</ele>
        <time>2016-05-15T12:06:18Z</time>
      </trkpt>
      <trkpt lat="44.40937" lon="3.83836">
        <ele>1645</ele>
        <time>2016-05-15T12:06:27Z</time>
      </trkpt>
      <trkpt lat="44.40941" lon="3.83828">
        <ele>1645</ele>
        <time>2016-05-15T12:06:37Z</time>
      </trkpt>
      <trkpt lat="44.40945" lon="3.8382">
        <ele>1643</ele>
        <time>2016-05-15T12:06:46Z</time>
      </trkpt>
      <trkpt lat="44.40951" lon="3.83808">
        <ele>1643</ele>
        <time>2016-05-15T12:06:55Z</time>
      </trkpt>
      <trkpt lat="44.40958" lon="3.83799">
        <ele>1641</ele>
        <time>2016-05-15T12:07:05Z</time>
      </trkpt>
      <trkpt lat="44.40965" lon="3.83789">
        <ele>1640</ele>
        <time>2016-05-15T12:07:14Z</time>
      </trkpt>
      <trkpt lat="44.40971" lon="3.8378">
        <ele>1640</ele>
        <time>2016-05-15T12:07:23Z</time>
      </trkpt>
      <trkpt lat="44.40979" lon="3.83769">
        <ele>1640</ele>
        <time>2016-05-15T12:07:33Z</time>
      </trkpt>
      <trkpt lat="44.40984" lon="3.83756">
        <ele>1640</ele>
        <time>2016-05-15T12:07:42Z</time>
      </trkpt>
      <trkpt lat="44.4099" lon="3.83745">
        <ele>1640</ele>
        <time>2016-05-15T12:07:52Z</time>
      </trkpt>
      <trkpt lat="44.40997" lon="3.83734">
        <ele>1640</ele>
        <time>2016-05-15T12:08:02Z</time>
      </trkpt>
      <trkpt lat="44.41004" lon="3.83722">
        <ele>1640</ele>
        <time>2016-05-15T12:08:12Z</time>
      </trkpt>
      <trkpt lat="44.41008" lon="3.83711">
        <ele>1640</ele>
        <time>2016-05-15T12:08:21Z</time>
      </trkpt>
      <trkpt lat="44.41011" lon="3.83699">
        <ele>1640</ele>
        <time>2016-05-15T12:08:30Z</time>
      </trkpt>
      <trkpt lat="44.41015" lon="3.83686">
        <ele>1640</ele>
        <time>2016-05-15T12:08:40Z</time>
      </trkpt>
      <trkpt lat="44.41016" lon="3.83673">
        <ele>1640</ele>
        <time>2016-05-15T12:08:50Z</time>
      </trkpt>
      <trkpt lat="44.41014" lon="3.83661">
        <ele>1641</ele>
        <time>2016-05-15T12:08:59Z</time>
      </trkpt>
      <trkpt lat="44.41014" lon="3.83648">
        <ele>1641</ele>
        <time>2016-05-15T12:09:09Z</time>
      </trkpt>
      <trkpt lat="44.41015" lon="3.83635">
        <ele>1641</ele>
        <time>2016-05-15T12:09:18Z</time>
      </trkpt>
      <trkpt lat="44.41015" lon="3.83622">
        <ele>1641</ele>
        <time>2016-05-15T12:09:27Z</time>
      </trkpt>
      <trkpt lat="44.41014" lon="3.83608">
        <ele>1641</ele>
        <time>2016-05-15T12:09:36Z</time>
      </trkpt>
      <trkpt lat="44.41017" lon="3.83595">
        <ele>1641</ele>
        <time>2016-05-15T12:09:45Z</time>
      </trkpt>
      <trkpt lat="44.41018" lon="3.8358">
        <ele>1641</ele>
        <time>2016-05-15T12:09:54Z</time>
      </trkpt>
      <trkpt lat="44.41019" lon="3.83565">
        <ele>1641</ele>
        <time>2016-05-15T12:10:04Z</time>
      </trkpt>
      <trkpt lat="44.4102" lon="3.83553">
        <ele>1641</ele>
        <time>2016-05-15T12:10:14Z</time>
      </trkpt>
      <trkpt lat="44.41019" lon="3.83551">
        <ele>1641</ele>
        <time>2016-05-15T12:10:35Z</time>
      </trkpt>
      <trkpt lat="44.4102" lon="3.83543">
        <ele>1641</ele>
        <time>2016-05-15T12:10:45Z</time>
      </trkpt>
      <trkpt lat="44.41023" lon="3.83531">
        <ele>1640</ele>
        <time>2016-05-15T12:10:55Z</time>
      </trkpt>
      <trkpt lat="44.41025" lon="3.83521">
        <ele>1638</ele>
        <time>2016-05-15T12:11:04Z</time>
      </trkpt>
      <trkpt lat="44.41024" lon="3.83508">
        <ele>1635</ele>
        <time>2016-05-15T12:11:14Z</time>
      </trkpt>
      <trkpt lat="44.41026" lon="3.83496">
        <ele>1632</ele>
        <time>2016-05-15T12:11:24Z</time>
      </trkpt>
      <trkpt lat="44.41024" lon="3.83482">
        <ele>1632</ele>
        <time>2016-05-15T12:11:34Z</time>
      </trkpt>
      <trkpt lat="44.41025" lon="3.83471">
        <ele>1629</ele>
        <time>2016-05-15T12:11:43Z</time>
      </trkpt>
      <trkpt lat="44.41028" lon="3.83464">
        <ele>1628</ele>
        <time>2016-05-15T12:11:58Z</time>
      </trkpt>
      <trkpt lat="44.41029" lon="3.83462">
        <ele>1628</ele>
        <time>2016-05-15T12:12:23Z</time>
      </trkpt>
      <trkpt lat="44.41034" lon="3.83453">
        <ele>1628</ele>
        <time>2016-05-15T12:12:33Z</time>
      </trkpt>
      <trkpt lat="44.41041" lon="3.83445">
        <ele>1627</ele>
        <time>2016-05-15T12:12:42Z</time>
      </trkpt>
      <trkpt lat="44.4105" lon="3.83436">
        <ele>1626</ele>
        <time>2016-05-15T12:12:52Z</time>
      </trkpt>
      <trkpt lat="44.4106" lon="3.83424">
        <ele>1626</ele>
        <time>2016-05-15T12:13:02Z</time>
      </trkpt>
      <trkpt lat="44.41068" lon="3.83414">
        <ele>1626</ele>
        <time>2016-05-15T12:13:11Z</time>
      </trkpt>
      <trkpt lat="44.41077" lon="3.83403">
        <ele>1626</ele>
        <time>2016-05-15T12:13:21Z</time>
      </trkpt>
      <trkpt lat="44.41085" lon="3.83393">
        <ele>1626</ele>
        <time>2016-05-15T12:13:31Z</time>
      </trkpt>
      <trkpt lat="44.41095" lon="3.83383">
        <ele>1625</ele>
        <time>2016-05-15T12:13:41Z</time>
      </trkpt>
      <trkpt lat="44.41103" lon="3.83375">
        <ele>1625</ele>
        <time>2016-05-15T12:13:50Z</time>
      </trkpt>
      <trkpt lat="44.41113" lon="3.83365">
        <ele>1625</ele>
        <time>2016-05-15T12:14:00Z</time>
      </trkpt>
      <trkpt lat="44.4112" lon="3.83354">
        <ele>1625</ele>
        <time>2016-05-15T12:14:09Z</time>
      </trkpt>
      <trkpt lat="44.41129" lon="3.83345">
        <ele>1625</ele>
        <time>2016-05-15T12:14:19Z</time>
      </trkpt>
      <trkpt lat="44.41138" lon="3.83336">
        <ele>1625</ele>
        <time>2016-05-15T12:14:28Z</time>
      </trkpt>
      <trkpt lat="44.41146" lon="3.83326">
        <ele>1625</ele>
        <time>2016-05-15T12:14:37Z</time>
      </trkpt>
      <trkpt lat="44.41156" lon="3.83315">
        <ele>1625</ele>
        <time>2016-05-15T12:14:47Z</time>
      </trkpt>
      <trkpt lat="44.41164" lon="3.83308">
        <ele>1625</ele>
        <time>2016-05-15T12:14:56Z</time>
      </trkpt>
      <trkpt lat="44.41173" lon="3.83297">
        <ele>1625</ele>
        <time>2016-05-15T12:15:06Z</time>
      </trkpt>
      <trkpt lat="44.41181" lon="3.83287">
        <ele>1625</ele>
        <time>2016-05-15T12:15:15Z</time>
      </trkpt>
      <trkpt lat="44.4119" lon="3.83279">
        <ele>1625</ele>
        <time>2016-05-15T12:15:24Z</time>
      </trkpt>
      <trkpt lat="44.41198" lon="3.83269">
        <ele>1625</ele>
        <time>2016-05-15T12:15:33Z</time>
      </trkpt>
      <trkpt lat="44.41207" lon="3.8326">
        <ele>1625</ele>
        <time>2016-05-15T12:15:42Z</time>
      </trkpt>
      <trkpt lat="44.41216" lon="3.83249">
        <ele>1625</ele>
        <time>2016-05-15T12:15:52Z</time>
      </trkpt>
      <trkpt lat="44.41224" lon="3.8324">
        <ele>1625</ele>
        <time>2016-05-15T12:16:01Z</time>
      </trkpt>
      <trkpt lat="44.41232" lon="3.83229">
        <ele>1625</ele>
        <time>2016-05-15T12:16:10Z</time>
      </trkpt>
      <trkpt lat="44.41241" lon="3.83219">
        <ele>1625</ele>
        <time>2016-05-15T12:16:20Z</time>
      </trkpt>
      <trkpt lat="44.41248" lon="3.8321">
        <ele>1624</ele>
        <time>2016-05-15T12:16:29Z</time>
      </trkpt>
      <trkpt lat="44.41256" lon="3.83198">
        <ele>1623</ele>
        <time>2016-05-15T12:16:38Z</time>
      </trkpt>
      <trkpt lat="44.41263" lon="3.83187">
        <ele>1623</ele>
        <time>2016-05-15T12:16:47Z</time>
      </trkpt>
      <trkpt lat="44.4127" lon="3.83176">
        <ele>1622</ele>
        <time>2016-05-15T12:16:56Z</time>
      </trkpt>
      <trkpt lat="44.41277" lon="3.83163">
        <ele>1621</ele>
        <time>2016-05-15T12:17:06Z</time>
      </trkpt>
      <trkpt lat="44.41285" lon="3.8315">
        <ele>1620</ele>
        <time>2016-05-15T12:17:15Z</time>
      </trkpt>
      <trkpt lat="44.41291" lon="3.83138">
        <ele>1618</ele>
        <time>2016-05-15T12:17:25Z</time>
      </trkpt>
      <trkpt lat="44.41298" lon="3.83124">
        <ele>1618</ele>
        <time>2016-05-15T12:17:35Z</time>
      </trkpt>
      <trkpt lat="44.41304" lon="3.83111">
        <ele>1617</ele>
        <time>2016-05-15T12:17:45Z</time>
      </trkpt>
      <trkpt lat="44.41312" lon="3.83098">
        <ele>1617</ele>
        <time>2016-05-15T12:17:54Z</time>
      </trkpt>
      <trkpt lat="44.41319" lon="3.83086">
        <ele>1617</ele>
        <time>2016-05-15T12:18:03Z</time>
      </trkpt>
      <trkpt lat="44.41323" lon="3.83074">
        <ele>1616</ele>
        <time>2016-05-15T12:18:12Z</time>
      </trkpt>
      <trkpt lat="44.41328" lon="3.8306">
        <ele>1615</ele>
        <time>2016-05-15T12:18:22Z</time>
      </trkpt>
      <trkpt lat="44.41331" lon="3.83047">
        <ele>1615</ele>
        <time>2016-05-15T12:18:31Z</time>
      </trkpt>
      <trkpt lat="44.41333" lon="3.83032">
        <ele>1614</ele>
        <time>2016-05-15T12:18:41Z</time>
      </trkpt>
      <trkpt lat="44.41336" lon="3.83026">
        <ele>1613</ele>
        <time>2016-05-15T12:19:20Z</time>
      </trkpt>
      <trkpt lat="44.41337" lon="3.83016">
        <ele>1612</ele>
        <time>2016-05-15T12:19:30Z</time>
      </trkpt>
      <trkpt lat="44.4134" lon="3.83005">
        <ele>1610</ele>
        <time>2016-05-15T12:19:39Z</time>
      </trkpt>
      <trkpt lat="44.41342" lon="3.82994">
        <ele>1608</ele>
        <time>2016-05-15T12:19:48Z</time>
      </trkpt>
      <trkpt lat="44.41345" lon="3.82982">
        <ele>1607</ele>
        <time>2016-05-15T12:19:57Z</time>
      </trkpt>
      <trkpt lat="44.41349" lon="3.82971">
        <ele>1605</ele>
        <time>2016-05-15T12:20:06Z</time>
      </trkpt>
      <trkpt lat="44.41353" lon="3.8296">
        <ele>1603</ele>
        <time>2016-05-15T12:20:16Z</time>
      </trkpt>
      <trkpt lat="44.41354" lon="3.82947">
        <ele>1603</ele>
        <time>2016-05-15T12:20:25Z</time>
      </trkpt>
      <trkpt lat="44.41359" lon="3.82933">
        <ele>1601</ele>
        <time>2016-05-15T12:20:34Z</time>
      </trkpt>
      <trkpt lat="44.41364" lon="3.8292">
        <ele>1599</ele>
        <time>2016-05-15T12:20:44Z</time>
      </trkpt>
      <trkpt lat="44.41367" lon="3.82905">
        <ele>1598</ele>
        <time>2016-05-15T12:20:53Z</time>
      </trkpt>
      <trkpt lat="44.41373" lon="3.82893">
        <ele>1597</ele>
        <time>2016-05-15T12:21:02Z</time>
      </trkpt>
      <trkpt lat="44.41374" lon="3.82883">
        <ele>1595</ele>
        <time>2016-05-15T12:21:11Z</time>
      </trkpt>
      <trkpt lat="44.41376" lon="3.82876">
        <ele>1594</ele>
        <time>2016-05-15T12:21:21Z</time>
      </trkpt>
      <trkpt lat="44.41381" lon="3.82882">
        <ele>1593</ele>
        <time>2016-05-15T12:21:31Z</time>
      </trkpt>
      <trkpt lat="44.41386" lon="3.82887">
        <ele>1593</ele>
        <time>2016-05-15T12:21:40Z</time>
      </trkpt>
      <trkpt lat="44.41387" lon="3.82887">
        <ele>1593</ele>
        <time>2016-05-15T12:22:03Z</time>
      </trkpt>
      <trkpt lat="44.41391" lon="3.82891">
        <ele>1593</ele>
        <time>2016-05-15T12:22:15Z</time>
      </trkpt>
      <trkpt lat="44.41394" lon="3.82888">
        <ele>1593</ele>
        <time>2016-05-15T12:22:29Z</time>
      </trkpt>
      <trkpt lat="44.41399" lon="3.8289">
        <ele>1593</ele>
        <time>2016-05-15T12:22:39Z</time>
      </trkpt>
      <trkpt lat="44.41405" lon="3.82899">
        <ele>1593</ele>
        <time>2016-05-15T12:22:49Z</time>
      </trkpt>
      <trkpt lat="44.41404" lon="3.82904">
        <ele>1594</ele>
        <time>2016-05-15T12:23:01Z</time>
      </trkpt>
      <trkpt lat="44.41406" lon="3.82913">
        <ele>1595</ele>
        <time>2016-05-15T12:23:11Z</time>
      </trkpt>
      <trkpt lat="44.41407" lon="3.82923">
        <ele>1596</ele>
        <time>2016-05-15T12:23:21Z</time>
      </trkpt>
      <trkpt lat="44.4141" lon="3.82931">
        <ele>1597</ele>
        <time>2016-05-15T12:23:34Z</time>
      </trkpt>
      <trkpt lat="44.4141" lon="3.82936">
        <ele>1598</ele>
        <time>2016-05-15T12:23:45Z</time>
      </trkpt>
      <trkpt lat="44.4141" lon="3.82944">
        <ele>1598</ele>
        <time>2016-05-15T12:23:55Z</time>
      </trkpt>
      <trkpt lat="44.41411" lon="3.82944">
        <ele>1599</ele>
        <time>2016-05-15T12:24:04Z</time>
      </trkpt>
      <trkpt lat="44.41419" lon="3.82947">
        <ele>1599</ele>
        <time>2016-05-15T12:24:14Z</time>
      </trkpt>
      <trkpt lat="44.41422" lon="3.82955">
        <ele>1600</ele>
        <time>2016-05-15T12:24:25Z</time>
      </trkpt>
      <trkpt lat="44.41423" lon="3.82963">
        <ele>1600</ele>
        <time>2016-05-15T12:24:34Z</time>
      </trkpt>
      <trkpt lat="44.41423" lon="3.82972">
        <ele>1600</ele>
        <time>2016-05-15T12:24:44Z</time>
      </trkpt>
      <trkpt lat="44.41426" lon="3.82979">
        <ele>1600</ele>
        <time>2016-05-15T12:24:53Z</time>
      </trkpt>
      <trkpt lat="44.4143" lon="3.82987">
        <ele>1600</ele>
        <time>2016-05-15T12:25:02Z</time>
      </trkpt>
      <trkpt lat="44.41431" lon="3.82997">
        <ele>1601</ele>
        <time>2016-05-15T12:25:16Z</time>
      </trkpt>
      <trkpt lat="44.41436" lon="3.83008">
        <ele>1603</ele>
        <time>2016-05-15T12:25:26Z</time>
      </trkpt>
      <trkpt lat="44.41435" lon="3.83017">
        <ele>1603</ele>
        <time>2016-05-15T12:25:35Z</time>
      </trkpt>
      <trkpt lat="44.41436" lon="3.83029">
        <ele>1603</ele>
        <time>2016-05-15T12:25:44Z</time>
      </trkpt>
      <trkpt lat="44.41435" lon="3.83042">
        <ele>1603</ele>
        <time>2016-05-15T12:25:54Z</time>
      </trkpt>
      <trkpt lat="44.41435" lon="3.83046">
        <ele>1605</ele>
        <time>2016-05-15T12:26:05Z</time>
      </trkpt>
      <trkpt lat="44.41436" lon="3.83046">
        <ele>1607</ele>
        <time>2016-05-15T12:26:33Z</time>
      </trkpt>
      <trkpt lat="44.41436" lon="3.83046">
        <ele>1607</ele>
        <time>2016-05-15T12:27:14Z</time>
      </trkpt>
      <trkpt lat="44.41435" lon="3.83056">
        <ele>1607</ele>
        <time>2016-05-15T12:27:24Z</time>
      </trkpt>
      <trkpt lat="44.41434" lon="3.83062">
        <ele>1607</ele>
        <time>2016-05-15T12:27:35Z</time>
      </trkpt>
      <trkpt lat="44.41435" lon="3.83073">
        <ele>1607</ele>
        <time>2016-05-15T12:27:45Z</time>
      </trkpt>
      <trkpt lat="44.41437" lon="3.83086">
        <ele>1607</ele>
        <time>2016-05-15T12:27:55Z</time>
      </trkpt>
      <trkpt lat="44.41436" lon="3.831">
        <ele>1607</ele>
        <time>2016-05-15T12:28:05Z</time>
      </trkpt>
      <trkpt lat="44.41434" lon="3.83111">
        <ele>1607</ele>
        <time>2016-05-15T12:28:14Z</time>
      </trkpt>
      <trkpt lat="44.41432" lon="3.83117">
        <ele>1607</ele>
        <time>2016-05-15T12:28:24Z</time>
      </trkpt>
      <trkpt lat="44.41432" lon="3.83119">
        <ele>1608</ele>
        <time>2016-05-15T12:28:55Z</time>
      </trkpt>
      <trkpt lat="44.41435" lon="3.83117">
        <ele>1609</ele>
        <time>2016-05-15T12:29:04Z</time>
      </trkpt>
      <trkpt lat="44.41437" lon="3.83114">
        <ele>1609</ele>
        <time>2016-05-15T12:29:22Z</time>
      </trkpt>
      <trkpt lat="44.41436" lon="3.83114">
        <ele>1609</ele>
        <time>2016-05-15T12:29:41Z</time>
      </trkpt>
      <trkpt lat="44.41436" lon="3.83115">
        <ele>1609</ele>
        <time>2016-05-15T12:30:08Z</time>
      </trkpt>
      <trkpt lat="44.41438" lon="3.83113">
        <ele>1609</ele>
        <time>2016-05-15T12:30:32Z</time>
      </trkpt>
      <trkpt lat="44.41438" lon="3.83101">
        <ele>1609</ele>
        <time>2016-05-15T12:30:42Z</time>
      </trkpt>
      <trkpt lat="44.41437" lon="3.83089">
        <ele>1609</ele>
        <time>2016-05-15T12:30:52Z</time>
      </trkpt>
      <trkpt lat="44.41438" lon="3.83075">
        <ele>1609</ele>
        <time>2016-05-15T12:31:02Z</time>
      </trkpt>
      <trkpt lat="44.4144" lon="3.83061">
        <ele>1609</ele>
        <time>2016-05-15T12:31:13Z</time>
      </trkpt>
      <trkpt lat="44.41442" lon="3.83048">
        <ele>1609</ele>
        <time>2016-05-15T12:31:22Z</time>
      </trkpt>
      <trkpt lat="44.41442" lon="3.83035">
        <ele>1609</ele>
        <time>2016-05-15T12:31:31Z</time>
      </trkpt>
      <trkpt lat="44.41442" lon="3.83019">
        <ele>1609</ele>
        <time>2016-05-15T12:31:42Z</time>
      </trkpt>
      <trkpt lat="44.4144" lon="3.83006">
        <ele>1609</ele>
        <time>2016-05-15T12:31:52Z</time>
      </trkpt>
      <trkpt lat="44.41439" lon="3.82991">
        <ele>1609</ele>
        <time>2016-05-15T12:32:03Z</time>
      </trkpt>
      <trkpt lat="44.41436" lon="3.82978">
        <ele>1607</ele>
        <time>2016-05-15T12:32:12Z</time>
      </trkpt>
      <trkpt lat="44.41434" lon="3.82963">
        <ele>1607</ele>
        <time>2016-05-15T12:32:22Z</time>
      </trkpt>
      <trkpt lat="44.41431" lon="3.82949">
        <ele>1607</ele>
        <time>2016-05-15T12:32:33Z</time>
      </trkpt>
      <trkpt lat="44.41428" lon="3.82937">
        <ele>1605</ele>
        <time>2016-05-15T12:32:43Z</time>
      </trkpt>
      <trkpt lat="44.41427" lon="3.82924">
        <ele>1603</ele>
        <time>2016-05-15T12:32:52Z</time>
      </trkpt>
      <trkpt lat="44.41425" lon="3.8291">
        <ele>1602</ele>
        <time>2016-05-15T12:33:02Z</time>
      </trkpt>
      <trkpt lat="44.41418" lon="3.82899">
        <ele>1600</ele>
        <time>2016-05-15T12:33:12Z</time>
      </trkpt>
      <trkpt lat="44.4141" lon="3.8289">
        <ele>1598</ele>
        <time>2016-05-15T12:33:22Z</time>
      </trkpt>
      <trkpt lat="44.41403" lon="3.82879">
        <ele>1596</ele>
        <time>2016-05-15T12:33:32Z</time>
      </trkpt>
      <trkpt lat="44.41401" lon="3.82868">
        <ele>1595</ele>
        <time>2016-05-15T12:33:41Z</time>
      </trkpt>
      <trkpt lat="44.41399" lon="3.82862">
        <ele>1594</ele>
        <time>2016-05-15T12:33:51Z</time>
      </trkpt>
      <trkpt lat="44.41397" lon="3.82858">
        <ele>1594</ele>
        <time>2016-05-15T12:34:00Z</time>
      </trkpt>
      <trkpt lat="44.41395" lon="3.82853">
        <ele>1592</ele>
        <time>2016-05-15T12:34:09Z</time>
      </trkpt>
      <trkpt lat="44.41393" lon="3.82848">
        <ele>1591</ele>
        <time>2016-05-15T12:34:20Z</time>
      </trkpt>
      <trkpt lat="44.41389" lon="3.82844">
        <ele>1591</ele>
        <time>2016-05-15T12:34:35Z</time>
      </trkpt>
      <trkpt lat="44.41388" lon="3.82835">
        <ele>1589</ele>
        <time>2016-05-15T12:34:46Z</time>
      </trkpt>
      <trkpt lat="44.41388" lon="3.82823">
        <ele>1588</ele>
        <time>2016-05-15T12:34:56Z</time>
      </trkpt>
      <trkpt lat="44.4139" lon="3.82813">
        <ele>1586</ele>
        <time>2016-05-15T12:35:05Z</time>
      </trkpt>
      <trkpt lat="44.41389" lon="3.82801">
        <ele>1585</ele>
        <time>2016-05-15T12:35:14Z</time>
      </trkpt>
      <trkpt lat="44.41392" lon="3.82788">
        <ele>1584</ele>
        <time>2016-05-15T12:35:23Z</time>
      </trkpt>
      <trkpt lat="44.41397" lon="3.82775">
        <ele>1582</ele>
        <time>2016-05-15T12:35:33Z</time>
      </trkpt>
      <trkpt lat="44.41403" lon="3.82765">
        <ele>1580</ele>
        <time>2016-05-15T12:35:42Z</time>
      </trkpt>
      <trkpt lat="44.41409" lon="3.82752">
        <ele>1578</ele>
        <time>2016-05-15T12:35:52Z</time>
      </trkpt>
      <trkpt lat="44.41412" lon="3.82737">
        <ele>1577</ele>
        <time>2016-05-15T12:36:03Z</time>
      </trkpt>
      <trkpt lat="44.41413" lon="3.82725">
        <ele>1575</ele>
        <time>2016-05-15T12:36:13Z</time>
      </trkpt>
      <trkpt lat="44.41418" lon="3.82715">
        <ele>1572</ele>
        <time>2016-05-15T12:36:23Z</time>
      </trkpt>
      <trkpt lat="44.41422" lon="3.827">
        <ele>1571</ele>
        <time>2016-05-15T12:36:33Z</time>
      </trkpt>
      <trkpt lat="44.41424" lon="3.82687">
        <ele>1571</ele>
        <time>2016-05-15T12:36:42Z</time>
      </trkpt>
      <trkpt lat="44.41428" lon="3.82674">
        <ele>1568</ele>
        <time>2016-05-15T12:36:51Z</time>
      </trkpt>
      <trkpt lat="44.41434" lon="3.82663">
        <ele>1566</ele>
        <time>2016-05-15T12:37:01Z</time>
      </trkpt>
      <trkpt lat="44.41441" lon="3.8265">
        <ele>1565</ele>
        <time>2016-05-15T12:37:11Z</time>
      </trkpt>
      <trkpt lat="44.41447" lon="3.8264">
        <ele>1565</ele>
        <time>2016-05-15T12:37:20Z</time>
      </trkpt>
      <trkpt lat="44.41452" lon="3.82626">
        <ele>1563</ele>
        <time>2016-05-15T12:37:30Z</time>
      </trkpt>
      <trkpt lat="44.41457" lon="3.82614">
        <ele>1561</ele>
        <time>2016-05-15T12:37:39Z</time>
      </trkpt>
      <trkpt lat="44.41464" lon="3.82601">
        <ele>1561</ele>
        <time>2016-05-15T12:37:48Z</time>
      </trkpt>
      <trkpt lat="44.41472" lon="3.82594">
        <ele>1561</ele>
        <time>2016-05-15T12:37:57Z</time>
      </trkpt>
      <trkpt lat="44.41477" lon="3.82581">
        <ele>1560</ele>
        <time>2016-05-15T12:38:07Z</time>
      </trkpt>
      <trkpt lat="44.41486" lon="3.82565">
        <ele>1560</ele>
        <time>2016-05-15T12:38:18Z</time>
      </trkpt>
      <trkpt lat="44.41492" lon="3.82552">
        <ele>1560</ele>
        <time>2016-05-15T12:38:27Z</time>
      </trkpt>
      <trkpt lat="44.41499" lon="3.82536">
        <ele>1559</ele>
        <time>2016-05-15T12:38:37Z</time>
      </trkpt>
      <trkpt lat="44.41506" lon="3.8252">
        <ele>1558</ele>
        <time>2016-05-15T12:38:47Z</time>
      </trkpt>
      <trkpt lat="44.41512" lon="3.82503">
        <ele>1556</ele>
        <time>2016-05-15T12:38:57Z</time>
      </trkpt>
      <trkpt lat="44.4152" lon="3.82489">
        <ele>1554</ele>
        <time>2016-05-15T12:39:07Z</time>
      </trkpt>
      <trkpt lat="44.41523" lon="3.82472">
        <ele>1553</ele>
        <time>2016-05-15T12:39:17Z</time>
      </trkpt>
      <trkpt lat="44.41528" lon="3.82455">
        <ele>1552</ele>
        <time>2016-05-15T12:39:27Z</time>
      </trkpt>
      <trkpt lat="44.41531" lon="3.8244">
        <ele>1550</ele>
        <time>2016-05-15T12:39:37Z</time>
      </trkpt>
      <trkpt lat="44.41529" lon="3.82424">
        <ele>1549</ele>
        <time>2016-05-15T12:39:47Z</time>
      </trkpt>
      <trkpt lat="44.41528" lon="3.82412">
        <ele>1549</ele>
        <time>2016-05-15T12:39:56Z</time>
      </trkpt>
      <trkpt lat="44.41525" lon="3.82396">
        <ele>1549</ele>
        <time>2016-05-15T12:40:06Z</time>
      </trkpt>
      <trkpt lat="44.41523" lon="3.82379">
        <ele>1549</ele>
        <time>2016-05-15T12:40:16Z</time>
      </trkpt>
      <trkpt lat="44.41521" lon="3.82364">
        <ele>1549</ele>
        <time>2016-05-15T12:40:25Z</time>
      </trkpt>
      <trkpt lat="44.41522" lon="3.82346">
        <ele>1549</ele>
        <time>2016-05-15T12:40:36Z</time>
      </trkpt>
      <trkpt lat="44.41521" lon="3.82331">
        <ele>1550</ele>
        <time>2016-05-15T12:40:45Z</time>
      </trkpt>
      <trkpt lat="44.41521" lon="3.82316">
        <ele>1551</ele>
        <time>2016-05-15T12:40:55Z</time>
      </trkpt>
      <trkpt lat="44.4152" lon="3.82301">
        <ele>1552</ele>
        <time>2016-05-15T12:41:04Z</time>
      </trkpt>
      <trkpt lat="44.41518" lon="3.82288">
        <ele>1553</ele>
        <time>2016-05-15T12:41:13Z</time>
      </trkpt>
      <trkpt lat="44.41518" lon="3.82276">
        <ele>1553</ele>
        <time>2016-05-15T12:41:22Z</time>
      </trkpt>
      <trkpt lat="44.41518" lon="3.8226">
        <ele>1554</ele>
        <time>2016-05-15T12:41:33Z</time>
      </trkpt>
      <trkpt lat="44.41516" lon="3.8225">
        <ele>1554</ele>
        <time>2016-05-15T12:41:42Z</time>
      </trkpt>
      <trkpt lat="44.41516" lon="3.82249">
        <ele>1555</ele>
        <time>2016-05-15T12:41:52Z</time>
      </trkpt>
      <trkpt lat="44.41515" lon="3.8225">
        <ele>1555</ele>
        <time>2016-05-15T12:42:03Z</time>
      </trkpt>
      <trkpt lat="44.41516" lon="3.82251">
        <ele>1557</ele>
        <time>2016-05-15T12:42:14Z</time>
      </trkpt>
      <trkpt lat="44.41514" lon="3.82251">
        <ele>1557</ele>
        <time>2016-05-15T12:42:44Z</time>
      </trkpt>
      <trkpt lat="44.41514" lon="3.82248">
        <ele>1557</ele>
        <time>2016-05-15T12:42:55Z</time>
      </trkpt>
      <trkpt lat="44.41512" lon="3.82237">
        <ele>1557</ele>
        <time>2016-05-15T12:43:04Z</time>
      </trkpt>
      <trkpt lat="44.41509" lon="3.82223">
        <ele>1558</ele>
        <time>2016-05-15T12:43:13Z</time>
      </trkpt>
      <trkpt lat="44.41508" lon="3.82212">
        <ele>1558</ele>
        <time>2016-05-15T12:43:23Z</time>
      </trkpt>
      <trkpt lat="44.4151" lon="3.82207">
        <ele>1558</ele>
        <time>2016-05-15T12:43:32Z</time>
      </trkpt>
      <trkpt lat="44.41505" lon="3.82199">
        <ele>1558</ele>
        <time>2016-05-15T12:43:42Z</time>
      </trkpt>
      <trkpt lat="44.41505" lon="3.82185">
        <ele>1556</ele>
        <time>2016-05-15T12:43:53Z</time>
      </trkpt>
      <trkpt lat="44.41503" lon="3.82175">
        <ele>1553</ele>
        <time>2016-05-15T12:44:02Z</time>
      </trkpt>
      <trkpt lat="44.41501" lon="3.82164">
        <ele>1552</ele>
        <time>2016-05-15T12:44:14Z</time>
      </trkpt>
      <trkpt lat="44.41499" lon="3.82152">
        <ele>1552</ele>
        <time>2016-05-15T12:44:23Z</time>
      </trkpt>
      <trkpt lat="44.41497" lon="3.82138">
        <ele>1548</ele>
        <time>2016-05-15T12:44:33Z</time>
      </trkpt>
      <trkpt lat="44.415" lon="3.82126">
        <ele>1548</ele>
        <time>2016-05-15T12:44:42Z</time>
      </trkpt>
      <trkpt lat="44.41502" lon="3.82111">
        <ele>1548</ele>
        <time>2016-05-15T12:44:52Z</time>
      </trkpt>
      <trkpt lat="44.41504" lon="3.82098">
        <ele>1548</ele>
        <time>2016-05-15T12:45:02Z</time>
      </trkpt>
      <trkpt lat="44.41501" lon="3.82084">
        <ele>1548</ele>
        <time>2016-05-15T12:45:12Z</time>
      </trkpt>
      <trkpt lat="44.41503" lon="3.82069">
        <ele>1544</ele>
        <time>2016-05-15T12:45:22Z</time>
      </trkpt>
      <trkpt lat="44.41499" lon="3.8206">
        <ele>1544</ele>
        <time>2016-05-15T12:45:32Z</time>
      </trkpt>
      <trkpt lat="44.41496" lon="3.82049">
        <ele>1544</ele>
        <time>2016-05-15T12:45:42Z</time>
      </trkpt>
      <trkpt lat="44.41495" lon="3.82035">
        <ele>1544</ele>
        <time>2016-05-15T12:45:52Z</time>
      </trkpt>
      <trkpt lat="44.41492" lon="3.8202">
        <ele>1544</ele>
        <time>2016-05-15T12:46:03Z</time>
      </trkpt>
      <trkpt lat="44.41489" lon="3.82005">
        <ele>1544</ele>
        <time>2016-05-15T12:46:12Z</time>
      </trkpt>
      <trkpt lat="44.41489" lon="3.81991">
        <ele>1543</ele>
        <time>2016-05-15T12:46:23Z</time>
      </trkpt>
      <trkpt lat="44.41487" lon="3.81981">
        <ele>1543</ele>
        <time>2016-05-15T12:46:32Z</time>
      </trkpt>
      <trkpt lat="44.41479" lon="3.81967">
        <ele>1541</ele>
        <time>2016-05-15T12:46:42Z</time>
      </trkpt>
      <trkpt lat="44.41474" lon="3.81958">
        <ele>1536</ele>
        <time>2016-05-15T12:46:52Z</time>
      </trkpt>
      <trkpt lat="44.41461" lon="3.81957">
        <ele>1536</ele>
        <time>2016-05-15T12:47:02Z</time>
      </trkpt>
      <trkpt lat="44.41449" lon="3.81954">
        <ele>1536</ele>
        <time>2016-05-15T12:47:13Z</time>
      </trkpt>
      <trkpt lat="44.4144" lon="3.81945">
        <ele>1536</ele>
        <time>2016-05-15T12:47:22Z</time>
      </trkpt>
      <trkpt lat="44.41433" lon="3.81942">
        <ele>1536</ele>
        <time>2016-05-15T12:47:32Z</time>
      </trkpt>
      <trkpt lat="44.41424" lon="3.81939">
        <ele>1536</ele>
        <time>2016-05-15T12:47:42Z</time>
      </trkpt>
      <trkpt lat="44.41419" lon="3.81941">
        <ele>1537</ele>
        <time>2016-05-15T12:47:53Z</time>
      </trkpt>
      <trkpt lat="44.41417" lon="3.81938">
        <ele>1537</ele>
        <time>2016-05-15T12:48:05Z</time>
      </trkpt>
      <trkpt lat="44.41411" lon="3.81947">
        <ele>1537</ele>
        <time>2016-05-15T12:48:15Z</time>
      </trkpt>
      <trkpt lat="44.41406" lon="3.81957">
        <ele>1537</ele>
        <time>2016-05-15T12:48:24Z</time>
      </trkpt>
      <trkpt lat="44.41398" lon="3.81965">
        <ele>1537</ele>
        <time>2016-05-15T12:48:33Z</time>
      </trkpt>
      <trkpt lat="44.41389" lon="3.81974">
        <ele>1537</ele>
        <time>2016-05-15T12:48:42Z</time>
      </trkpt>
      <trkpt lat="44.41386" lon="3.81984">
        <ele>1536</ele>
        <time>2016-05-15T12:48:52Z</time>
      </trkpt>
      <trkpt lat="44.4138" lon="3.81998">
        <ele>1536</ele>
        <time>2016-05-15T12:49:02Z</time>
      </trkpt>
      <trkpt lat="44.41376" lon="3.82011">
        <ele>1536</ele>
        <time>2016-05-15T12:49:12Z</time>
      </trkpt>
      <trkpt lat="44.41371" lon="3.82024">
        <ele>1536</ele>
        <time>2016-05-15T12:49:22Z</time>
      </trkpt>
      <trkpt lat="44.41365" lon="3.82037">
        <ele>1536</ele>
        <time>2016-05-15T12:49:32Z</time>
      </trkpt>
      <trkpt lat="44.41362" lon="3.82049">
        <ele>1536</ele>
        <time>2016-05-15T12:49:43Z</time>
      </trkpt>
      <trkpt lat="44.41355" lon="3.82062">
        <ele>1536</ele>
        <time>2016-05-15T12:49:53Z</time>
      </trkpt>
      <trkpt lat="44.4135" lon="3.82075">
        <ele>1534</ele>
        <time>2016-05-15T12:50:02Z</time>
      </trkpt>
      <trkpt lat="44.41342" lon="3.82086">
        <ele>1534</ele>
        <time>2016-05-15T12:50:12Z</time>
      </trkpt>
      <trkpt lat="44.41331" lon="3.82095">
        <ele>1533</ele>
        <time>2016-05-15T12:50:22Z</time>
      </trkpt>
      <trkpt lat="44.41322" lon="3.82107">
        <ele>1533</ele>
        <time>2016-05-15T12:50:33Z</time>
      </trkpt>
      <trkpt lat="44.41315" lon="3.8212">
        <ele>1533</ele>
        <time>2016-05-15T12:50:42Z</time>
      </trkpt>
      <trkpt lat="44.41307" lon="3.82135">
        <ele>1533</ele>
        <time>2016-05-15T12:50:53Z</time>
      </trkpt>
      <trkpt lat="44.41299" lon="3.82146">
        <ele>1532</ele>
        <time>2016-05-15T12:51:02Z</time>
      </trkpt>
      <trkpt lat="44.4129" lon="3.8216">
        <ele>1530</ele>
        <time>2016-05-15T12:51:13Z</time>
      </trkpt>
      <trkpt lat="44.41283" lon="3.82169">
        <ele>1530</ele>
        <time>2016-05-15T12:51:22Z</time>
      </trkpt>
      <trkpt lat="44.41275" lon="3.82181">
        <ele>1530</ele>
        <time>2016-05-15T12:51:33Z</time>
      </trkpt>
      <trkpt lat="44.41269" lon="3.82191">
        <ele>1526</ele>
        <time>2016-05-15T12:51:42Z</time>
      </trkpt>
      <trkpt lat="44.41259" lon="3.82204">
        <ele>1522</ele>
        <time>2016-05-15T12:51:52Z</time>
      </trkpt>
      <trkpt lat="44.41251" lon="3.82215">
        <ele>1522</ele>
        <time>2016-05-15T12:52:02Z</time>
      </trkpt>
      <trkpt lat="44.41244" lon="3.82232">
        <ele>1521</ele>
        <time>2016-05-15T12:52:13Z</time>
      </trkpt>
      <trkpt lat="44.41236" lon="3.82245">
        <ele>1521</ele>
        <time>2016-05-15T12:52:23Z</time>
      </trkpt>
      <trkpt lat="44.41228" lon="3.82256">
        <ele>1521</ele>
        <time>2016-05-15T12:52:32Z</time>
      </trkpt>
      <trkpt lat="44.41224" lon="3.8227">
        <ele>1521</ele>
        <time>2016-05-15T12:52:42Z</time>
      </trkpt>
      <trkpt lat="44.41214" lon="3.82285">
        <ele>1519</ele>
        <time>2016-05-15T12:52:52Z</time>
      </trkpt>
      <trkpt lat="44.41203" lon="3.82297">
        <ele>1517</ele>
        <time>2016-05-15T12:53:02Z</time>
      </trkpt>
      <trkpt lat="44.41191" lon="3.82306">
        <ele>1517</ele>
        <time>2016-05-15T12:53:12Z</time>
      </trkpt>
      <trkpt lat="44.41177" lon="3.82315">
        <ele>1517</ele>
        <time>2016-05-15T12:53:23Z</time>
      </trkpt>
      <trkpt lat="44.41167" lon="3.82321">
        <ele>1517</ele>
        <time>2016-05-15T12:53:32Z</time>
      </trkpt>
      <trkpt lat="44.41154" lon="3.82324">
        <ele>1517</ele>
        <time>2016-05-15T12:53:42Z</time>
      </trkpt>
      <trkpt lat="44.4114" lon="3.82325">
        <ele>1518</ele>
        <time>2016-05-15T12:53:53Z</time>
      </trkpt>
      <trkpt lat="44.41129" lon="3.82323">
        <ele>1519</ele>
        <time>2016-05-15T12:54:03Z</time>
      </trkpt>
      <trkpt lat="44.41121" lon="3.82325">
        <ele>1519</ele>
        <time>2016-05-15T12:54:12Z</time>
      </trkpt>
      <trkpt lat="44.41112" lon="3.82323">
        <ele>1518</ele>
        <time>2016-05-15T12:54:23Z</time>
      </trkpt>
      <trkpt lat="44.41102" lon="3.8232">
        <ele>1518</ele>
        <time>2016-05-15T12:54:32Z</time>
      </trkpt>
      <trkpt lat="44.41089" lon="3.82316">
        <ele>1517</ele>
        <time>2016-05-15T12:54:42Z</time>
      </trkpt>
      <trkpt lat="44.41078" lon="3.82314">
        <ele>1517</ele>
        <time>2016-05-15T12:54:52Z</time>
      </trkpt>
      <trkpt lat="44.41066" lon="3.82309">
        <ele>1514</ele>
        <time>2016-05-15T12:55:02Z</time>
      </trkpt>
      <trkpt lat="44.41057" lon="3.82303">
        <ele>1511</ele>
        <time>2016-05-15T12:55:12Z</time>
      </trkpt>
      <trkpt lat="44.41045" lon="3.82295">
        <ele>1509</ele>
        <time>2016-05-15T12:55:23Z</time>
      </trkpt>
      <trkpt lat="44.41034" lon="3.82296">
        <ele>1509</ele>
        <time>2016-05-15T12:55:32Z</time>
      </trkpt>
      <trkpt lat="44.4102" lon="3.82295">
        <ele>1508</ele>
        <time>2016-05-15T12:55:43Z</time>
      </trkpt>
      <trkpt lat="44.41014" lon="3.823">
        <ele>1508</ele>
        <time>2016-05-15T12:55:53Z</time>
      </trkpt>
      <trkpt lat="44.41006" lon="3.82301">
        <ele>1508</ele>
        <time>2016-05-15T12:56:02Z</time>
      </trkpt>
      <trkpt lat="44.40998" lon="3.82299">
        <ele>1508</ele>
        <time>2016-05-15T12:56:13Z</time>
      </trkpt>
      <trkpt lat="44.40994" lon="3.82296">
        <ele>1504</ele>
        <time>2016-05-15T12:56:22Z</time>
      </trkpt>
      <trkpt lat="44.40989" lon="3.82302">
        <ele>1504</ele>
        <time>2016-05-15T12:56:41Z</time>
      </trkpt>
      <trkpt lat="44.4099" lon="3.82301">
        <ele>1504</ele>
        <time>2016-05-15T12:56:55Z</time>
      </trkpt>
      <trkpt lat="44.4099" lon="3.82299">
        <ele>1504</ele>
        <time>2016-05-15T12:57:04Z</time>
      </trkpt>
      <trkpt lat="44.40988" lon="3.823">
        <ele>1497</ele>
        <time>2016-05-15T12:57:15Z</time>
      </trkpt>
      <trkpt lat="44.40979" lon="3.82303">
        <ele>1497</ele>
        <time>2016-05-15T12:57:25Z</time>
      </trkpt>
      <trkpt lat="44.40968" lon="3.82306">
        <ele>1501</ele>
        <time>2016-05-15T12:57:34Z</time>
      </trkpt>
      <trkpt lat="44.40956" lon="3.82309">
        <ele>1505</ele>
        <time>2016-05-15T12:57:44Z</time>
      </trkpt>
      <trkpt lat="44.40947" lon="3.82311">
        <ele>1505</ele>
        <time>2016-05-15T12:57:53Z</time>
      </trkpt>
      <trkpt lat="44.40939" lon="3.82311">
        <ele>1504</ele>
        <time>2016-05-15T12:58:02Z</time>
      </trkpt>
      <trkpt lat="44.40924" lon="3.82314">
        <ele>1501</ele>
        <time>2016-05-15T12:58:13Z</time>
      </trkpt>
      <trkpt lat="44.40914" lon="3.82314">
        <ele>1501</ele>
        <time>2016-05-15T12:58:23Z</time>
      </trkpt>
      <trkpt lat="44.40902" lon="3.82316">
        <ele>1504</ele>
        <time>2016-05-15T12:58:33Z</time>
      </trkpt>
      <trkpt lat="44.40894" lon="3.82313">
        <ele>1504</ele>
        <time>2016-05-15T12:58:43Z</time>
      </trkpt>
      <trkpt lat="44.40883" lon="3.8232">
        <ele>1504</ele>
        <time>2016-05-15T12:58:53Z</time>
      </trkpt>
      <trkpt lat="44.40872" lon="3.82321">
        <ele>1504</ele>
        <time>2016-05-15T12:59:04Z</time>
      </trkpt>
      <trkpt lat="44.40864" lon="3.82322">
        <ele>1503</ele>
        <time>2016-05-15T12:59:14Z</time>
      </trkpt>
      <trkpt lat="44.40857" lon="3.82322">
        <ele>1498</ele>
        <time>2016-05-15T12:59:23Z</time>
      </trkpt>
      <trkpt lat="44.40843" lon="3.82322">
        <ele>1496</ele>
        <time>2016-05-15T12:59:33Z</time>
      </trkpt>
      <trkpt lat="44.40832" lon="3.82327">
        <ele>1495</ele>
        <time>2016-05-15T12:59:43Z</time>
      </trkpt>
      <trkpt lat="44.4082" lon="3.82331">
        <ele>1494</ele>
        <time>2016-05-15T12:59:52Z</time>
      </trkpt>
      <trkpt lat="44.40807" lon="3.82334">
        <ele>1494</ele>
        <time>2016-05-15T13:00:02Z</time>
      </trkpt>
      <trkpt lat="44.40794" lon="3.82343">
        <ele>1495</ele>
        <time>2016-05-15T13:00:12Z</time>
      </trkpt>
      <trkpt lat="44.40789" lon="3.82359">
        <ele>1496</ele>
        <time>2016-05-15T13:00:22Z</time>
      </trkpt>
      <trkpt lat="44.4078" lon="3.82372">
        <ele>1496</ele>
        <time>2016-05-15T13:00:33Z</time>
      </trkpt>
      <trkpt lat="44.40773" lon="3.82368">
        <ele>1493</ele>
        <time>2016-05-15T13:00:42Z</time>
      </trkpt>
      <trkpt lat="44.40768" lon="3.82361">
        <ele>1488</ele>
        <time>2016-05-15T13:00:53Z</time>
      </trkpt>
      <trkpt lat="44.40763" lon="3.82365">
        <ele>1488</ele>
        <time>2016-05-15T13:01:03Z</time>
      </trkpt>
      <trkpt lat="44.40753" lon="3.82371">
        <ele>1485</ele>
        <time>2016-05-15T13:01:12Z</time>
      </trkpt>
      <trkpt lat="44.40743" lon="3.82375">
        <ele>1481</ele>
        <time>2016-05-15T13:01:23Z</time>
      </trkpt>
      <trkpt lat="44.40732" lon="3.82379">
        <ele>1478</ele>
        <time>2016-05-15T13:01:33Z</time>
      </trkpt>
      <trkpt lat="44.40723" lon="3.8239">
        <ele>1478</ele>
        <time>2016-05-15T13:01:43Z</time>
      </trkpt>
      <trkpt lat="44.40712" lon="3.82398">
        <ele>1479</ele>
        <time>2016-05-15T13:01:52Z</time>
      </trkpt>
      <trkpt lat="44.40699" lon="3.82407">
        <ele>1481</ele>
        <time>2016-05-15T13:02:02Z</time>
      </trkpt>
      <trkpt lat="44.40687" lon="3.82409">
        <ele>1481</ele>
        <time>2016-05-15T13:02:12Z</time>
      </trkpt>
      <trkpt lat="44.40674" lon="3.82417">
        <ele>1481</ele>
        <time>2016-05-15T13:02:22Z</time>
      </trkpt>
      <trkpt lat="44.40665" lon="3.82421">
        <ele>1481</ele>
        <time>2016-05-15T13:02:32Z</time>
      </trkpt>
      <trkpt lat="44.40655" lon="3.8243">
        <ele>1481</ele>
        <time>2016-05-15T13:02:43Z</time>
      </trkpt>
      <trkpt lat="44.40645" lon="3.8244">
        <ele>1481</ele>
        <time>2016-05-15T13:02:52Z</time>
      </trkpt>
      <trkpt lat="44.40636" lon="3.82449">
        <ele>1481</ele>
        <time>2016-05-15T13:03:02Z</time>
      </trkpt>
      <trkpt lat="44.40622" lon="3.82458">
        <ele>1481</ele>
        <time>2016-05-15T13:03:12Z</time>
      </trkpt>
      <trkpt lat="44.40611" lon="3.8246">
        <ele>1481</ele>
        <time>2016-05-15T13:03:22Z</time>
      </trkpt>
      <trkpt lat="44.406" lon="3.82462">
        <ele>1481</ele>
        <time>2016-05-15T13:03:32Z</time>
      </trkpt>
      <trkpt lat="44.40586" lon="3.82465">
        <ele>1481</ele>
        <time>2016-05-15T13:03:43Z</time>
      </trkpt>
      <trkpt lat="44.40575" lon="3.82468">
        <ele>1481</ele>
        <time>2016-05-15T13:03:52Z</time>
      </trkpt>
      <trkpt lat="44.40567" lon="3.82472">
        <ele>1479</ele>
        <time>2016-05-15T13:04:03Z</time>
      </trkpt>
      <trkpt lat="44.40557" lon="3.82471">
        <ele>1478</ele>
        <time>2016-05-15T13:04:15Z</time>
      </trkpt>
      <trkpt lat="44.40548" lon="3.82471">
        <ele>1473</ele>
        <time>2016-05-15T13:04:24Z</time>
      </trkpt>
      <trkpt lat="44.40536" lon="3.8247">
        <ele>1471</ele>
        <time>2016-05-15T13:04:34Z</time>
      </trkpt>
      <trkpt lat="44.40525" lon="3.82466">
        <ele>1471</ele>
        <time>2016-05-15T13:04:44Z</time>
      </trkpt>
      <trkpt lat="44.40515" lon="3.82462">
        <ele>1471</ele>
        <time>2016-05-15T13:04:53Z</time>
      </trkpt>
      <trkpt lat="44.40506" lon="3.82455">
        <ele>1470</ele>
        <time>2016-05-15T13:05:03Z</time>
      </trkpt>
      <trkpt lat="44.40498" lon="3.82456">
        <ele>1468</ele>
        <time>2016-05-15T13:05:13Z</time>
      </trkpt>
      <trkpt lat="44.40485" lon="3.82456">
        <ele>1468</ele>
        <time>2016-05-15T13:05:23Z</time>
      </trkpt>
      <trkpt lat="44.40476" lon="3.82454">
        <ele>1467</ele>
        <time>2016-05-15T13:05:32Z</time>
      </trkpt>
      <trkpt lat="44.40468" lon="3.82449">
        <ele>1465</ele>
        <time>2016-05-15T13:05:42Z</time>
      </trkpt>
      <trkpt lat="44.40458" lon="3.82442">
        <ele>1461</ele>
        <time>2016-05-15T13:05:53Z</time>
      </trkpt>
      <trkpt lat="44.4045" lon="3.82439">
        <ele>1460</ele>
        <time>2016-05-15T13:06:03Z</time>
      </trkpt>
      <trkpt lat="44.40435" lon="3.82439">
        <ele>1458</ele>
        <time>2016-05-15T13:06:13Z</time>
      </trkpt>
      <trkpt lat="44.40428" lon="3.82431">
        <ele>1454</ele>
        <time>2016-05-15T13:06:22Z</time>
      </trkpt>
      <trkpt lat="44.40415" lon="3.8243">
        <ele>1453</ele>
        <time>2016-05-15T13:06:32Z</time>
      </trkpt>
      <trkpt lat="44.40411" lon="3.82431">
        <ele>1453</ele>
        <time>2016-05-15T13:06:44Z</time>
      </trkpt>
      <trkpt lat="44.40401" lon="3.82433">
        <ele>1453</ele>
        <time>2016-05-15T13:06:54Z</time>
      </trkpt>
      <trkpt lat="44.40393" lon="3.82438">
        <ele>1454</ele>
        <time>2016-05-15T13:07:03Z</time>
      </trkpt>
      <trkpt lat="44.40383" lon="3.82442">
        <ele>1454</ele>
        <time>2016-05-15T13:07:12Z</time>
      </trkpt>
      <trkpt lat="44.40371" lon="3.82444">
        <ele>1450</ele>
        <time>2016-05-15T13:07:22Z</time>
      </trkpt>
      <trkpt lat="44.40358" lon="3.82446">
        <ele>1449</ele>
        <time>2016-05-15T13:07:34Z</time>
      </trkpt>
      <trkpt lat="44.40349" lon="3.82447">
        <ele>1448</ele>
        <time>2016-05-15T13:07:46Z</time>
      </trkpt>
      <trkpt lat="44.40342" lon="3.82449">
        <ele>1448</ele>
        <time>2016-05-15T13:07:57Z</time>
      </trkpt>
      <trkpt lat="44.40333" lon="3.82454">
        <ele>1447</ele>
        <time>2016-05-15T13:08:07Z</time>
      </trkpt>
      <trkpt lat="44.40321" lon="3.82455">
        <ele>1444</ele>
        <time>2016-05-15T13:08:17Z</time>
      </trkpt>
      <trkpt lat="44.40308" lon="3.82455">
        <ele>1443</ele>
        <time>2016-05-15T13:08:27Z</time>
      </trkpt>
      <trkpt lat="44.40294" lon="3.82455">
        <ele>1443</ele>
        <time>2016-05-15T13:08:37Z</time>
      </trkpt>
      <trkpt lat="44.40286" lon="3.82455">
        <ele>1440</ele>
        <time>2016-05-15T13:08:47Z</time>
      </trkpt>
      <trkpt lat="44.40274" lon="3.82456">
        <ele>1436</ele>
        <time>2016-05-15T13:08:58Z</time>
      </trkpt>
      <trkpt lat="44.40261" lon="3.82457">
        <ele>1436</ele>
        <time>2016-05-15T13:09:08Z</time>
      </trkpt>
      <trkpt lat="44.40256" lon="3.82455">
        <ele>1429</ele>
        <time>2016-05-15T13:09:17Z</time>
      </trkpt>
      <trkpt lat="44.40243" lon="3.82459">
        <ele>1428</ele>
        <time>2016-05-15T13:09:27Z</time>
      </trkpt>
      <trkpt lat="44.40229" lon="3.82455">
        <ele>1429</ele>
        <time>2016-05-15T13:09:37Z</time>
      </trkpt>
      <trkpt lat="44.40224" lon="3.82456">
        <ele>1429</ele>
        <time>2016-05-15T13:09:48Z</time>
      </trkpt>
      <trkpt lat="44.40212" lon="3.82461">
        <ele>1426</ele>
        <time>2016-05-15T13:09:57Z</time>
      </trkpt>
      <trkpt lat="44.40202" lon="3.82461">
        <ele>1427</ele>
        <time>2016-05-15T13:10:07Z</time>
      </trkpt>
      <trkpt lat="44.40192" lon="3.82458">
        <ele>1428</ele>
        <time>2016-05-15T13:10:17Z</time>
      </trkpt>
      <trkpt lat="44.40186" lon="3.82454">
        <ele>1428</ele>
        <time>2016-05-15T13:10:26Z</time>
      </trkpt>
      <trkpt lat="44.40184" lon="3.82455">
        <ele>1427</ele>
        <time>2016-05-15T13:10:35Z</time>
      </trkpt>
      <trkpt lat="44.40184" lon="3.82452">
        <ele>1426</ele>
        <time>2016-05-15T13:10:51Z</time>
      </trkpt>
      <trkpt lat="44.40183" lon="3.82452">
        <ele>1423</ele>
        <time>2016-05-15T13:11:01Z</time>
      </trkpt>
      <trkpt lat="44.4017" lon="3.82454">
        <ele>1423</ele>
        <time>2016-05-15T13:11:11Z</time>
      </trkpt>
      <trkpt lat="44.40159" lon="3.82449">
        <ele>1423</ele>
        <time>2016-05-15T13:11:21Z</time>
      </trkpt>
      <trkpt lat="44.40147" lon="3.82446">
        <ele>1423</ele>
        <time>2016-05-15T13:11:30Z</time>
      </trkpt>
      <trkpt lat="44.40139" lon="3.82442">
        <ele>1424</ele>
        <time>2016-05-15T13:11:39Z</time>
      </trkpt>
      <trkpt lat="44.4013" lon="3.82438">
        <ele>1424</ele>
        <time>2016-05-15T13:11:48Z</time>
      </trkpt>
      <trkpt lat="44.4012" lon="3.82436">
        <ele>1424</ele>
        <time>2016-05-15T13:11:57Z</time>
      </trkpt>
      <trkpt lat="44.40112" lon="3.82433">
        <ele>1424</ele>
        <time>2016-05-15T13:12:07Z</time>
      </trkpt>
      <trkpt lat="44.40101" lon="3.82429">
        <ele>1425</ele>
        <time>2016-05-15T13:12:17Z</time>
      </trkpt>
      <trkpt lat="44.4009" lon="3.82427">
        <ele>1425</ele>
        <time>2016-05-15T13:12:27Z</time>
      </trkpt>
      <trkpt lat="44.40078" lon="3.82423">
        <ele>1424</ele>
        <time>2016-05-15T13:12:38Z</time>
      </trkpt>
      <trkpt lat="44.40066" lon="3.82424">
        <ele>1423</ele>
        <time>2016-05-15T13:12:47Z</time>
      </trkpt>
      <trkpt lat="44.40052" lon="3.82427">
        <ele>1422</ele>
        <time>2016-05-15T13:12:58Z</time>
      </trkpt>
      <trkpt lat="44.4004" lon="3.82425">
        <ele>1422</ele>
        <time>2016-05-15T13:13:07Z</time>
      </trkpt>
      <trkpt lat="44.40031" lon="3.82421">
        <ele>1422</ele>
        <time>2016-05-15T13:13:18Z</time>
      </trkpt>
      <trkpt lat="44.40025" lon="3.82421">
        <ele>1422</ele>
        <time>2016-05-15T13:13:27Z</time>
      </trkpt>
      <trkpt lat="44.40016" lon="3.82423">
        <ele>1421</ele>
        <time>2016-05-15T13:13:37Z</time>
      </trkpt>
      <trkpt lat="44.40005" lon="3.82417">
        <ele>1419</ele>
        <time>2016-05-15T13:13:47Z</time>
      </trkpt>
      <trkpt lat="44.39994" lon="3.82409">
        <ele>1419</ele>
        <time>2016-05-15T13:13:57Z</time>
      </trkpt>
      <trkpt lat="44.39981" lon="3.82405">
        <ele>1419</ele>
        <time>2016-05-15T13:14:07Z</time>
      </trkpt>
      <trkpt lat="44.3997" lon="3.824">
        <ele>1419</ele>
        <time>2016-05-15T13:14:16Z</time>
      </trkpt>
      <trkpt lat="44.39964" lon="3.82392">
        <ele>1416</ele>
        <time>2016-05-15T13:14:25Z</time>
      </trkpt>
      <trkpt lat="44.39952" lon="3.82387">
        <ele>1416</ele>
        <time>2016-05-15T13:14:34Z</time>
      </trkpt>
      <trkpt lat="44.39943" lon="3.82376">
        <ele>1416</ele>
        <time>2016-05-15T13:14:44Z</time>
      </trkpt>
      <trkpt lat="44.39933" lon="3.8237">
        <ele>1416</ele>
        <time>2016-05-15T13:14:53Z</time>
      </trkpt>
      <trkpt lat="44.39922" lon="3.82364">
        <ele>1416</ele>
        <time>2016-05-15T13:15:02Z</time>
      </trkpt>
      <trkpt lat="44.39912" lon="3.8236">
        <ele>1417</ele>
        <time>2016-05-15T13:15:11Z</time>
      </trkpt>
      <trkpt lat="44.39902" lon="3.82351">
        <ele>1414</ele>
        <time>2016-05-15T13:15:20Z</time>
      </trkpt>
      <trkpt lat="44.39893" lon="3.82343">
        <ele>1414</ele>
        <time>2016-05-15T13:15:29Z</time>
      </trkpt>
      <trkpt lat="44.39885" lon="3.82336">
        <ele>1414</ele>
        <time>2016-05-15T13:15:38Z</time>
      </trkpt>
      <trkpt lat="44.39875" lon="3.82334">
        <ele>1414</ele>
        <time>2016-05-15T13:15:47Z</time>
      </trkpt>
      <trkpt lat="44.39866" lon="3.82322">
        <ele>1414</ele>
        <time>2016-05-15T13:15:57Z</time>
      </trkpt>
      <trkpt lat="44.39858" lon="3.82308">
        <ele>1414</ele>
        <time>2016-05-15T13:16:06Z</time>
      </trkpt>
      <trkpt lat="44.39851" lon="3.82293">
        <ele>1413</ele>
        <time>2016-05-15T13:16:16Z</time>
      </trkpt>
      <trkpt lat="44.39846" lon="3.82279">
        <ele>1412</ele>
        <time>2016-05-15T13:16:25Z</time>
      </trkpt>
      <trkpt lat="44.39842" lon="3.82265">
        <ele>1412</ele>
        <time>2016-05-15T13:16:34Z</time>
      </trkpt>
      <trkpt lat="44.39834" lon="3.82255">
        <ele>1412</ele>
        <time>2016-05-15T13:16:43Z</time>
      </trkpt>
      <trkpt lat="44.39829" lon="3.82245">
        <ele>1412</ele>
        <time>2016-05-15T13:16:52Z</time>
      </trkpt>
      <trkpt lat="44.39824" lon="3.8223">
        <ele>1405</ele>
        <time>2016-05-15T13:17:02Z</time>
      </trkpt>
      <trkpt lat="44.39817" lon="3.82219">
        <ele>1403</ele>
        <time>2016-05-15T13:17:13Z</time>
      </trkpt>
      <trkpt lat="44.3981" lon="3.82212">
        <ele>1407</ele>
        <time>2016-05-15T13:17:22Z</time>
      </trkpt>
      <trkpt lat="44.39804" lon="3.82208">
        <ele>1411</ele>
        <time>2016-05-15T13:17:31Z</time>
      </trkpt>
      <trkpt lat="44.39796" lon="3.82209">
        <ele>1411</ele>
        <time>2016-05-15T13:17:40Z</time>
      </trkpt>
      <trkpt lat="44.39788" lon="3.82206">
        <ele>1410</ele>
        <time>2016-05-15T13:17:50Z</time>
      </trkpt>
      <trkpt lat="44.39783" lon="3.82204">
        <ele>1410</ele>
        <time>2016-05-15T13:18:00Z</time>
      </trkpt>
      <trkpt lat="44.39777" lon="3.82204">
        <ele>1410</ele>
        <time>2016-05-15T13:18:11Z</time>
      </trkpt>
      <trkpt lat="44.39773" lon="3.82202">
        <ele>1410</ele>
        <time>2016-05-15T13:18:21Z</time>
      </trkpt>
      <trkpt lat="44.39768" lon="3.82199">
        <ele>1410</ele>
        <time>2016-05-15T13:18:30Z</time>
      </trkpt>
      <trkpt lat="44.39767" lon="3.82199">
        <ele>1409</ele>
        <time>2016-05-15T13:18:39Z</time>
      </trkpt>
      <trkpt lat="44.39761" lon="3.822">
        <ele>1406</ele>
        <time>2016-05-15T13:18:48Z</time>
      </trkpt>
      <trkpt lat="44.39757" lon="3.82203">
        <ele>1406</ele>
        <time>2016-05-15T13:18:57Z</time>
      </trkpt>
      <trkpt lat="44.39749" lon="3.82205">
        <ele>1406</ele>
        <time>2016-05-15T13:19:06Z</time>
      </trkpt>
      <trkpt lat="44.39739" lon="3.82207">
        <ele>1405</ele>
        <time>2016-05-15T13:19:16Z</time>
      </trkpt>
      <trkpt lat="44.3973" lon="3.82208">
        <ele>1402</ele>
        <time>2016-05-15T13:19:25Z</time>
      </trkpt>
      <trkpt lat="44.39718" lon="3.82211">
        <ele>1401</ele>
        <time>2016-05-15T13:19:34Z</time>
      </trkpt>
      <trkpt lat="44.39707" lon="3.82215">
        <ele>1401</ele>
        <time>2016-05-15T13:19:44Z</time>
      </trkpt>
      <trkpt lat="44.39698" lon="3.82216">
        <ele>1401</ele>
        <time>2016-05-15T13:19:53Z</time>
      </trkpt>
      <trkpt lat="44.39687" lon="3.82222">
        <ele>1401</ele>
        <time>2016-05-15T13:20:03Z</time>
      </trkpt>
      <trkpt lat="44.39677" lon="3.82225">
        <ele>1401</ele>
        <time>2016-05-15T13:20:12Z</time>
      </trkpt>
      <trkpt lat="44.39666" lon="3.82225">
        <ele>1402</ele>
        <time>2016-05-15T13:20:22Z</time>
      </trkpt>
      <trkpt lat="44.39655" lon="3.82228">
        <ele>1402</ele>
        <time>2016-05-15T13:20:32Z</time>
      </trkpt>
      <trkpt lat="44.39642" lon="3.82227">
        <ele>1402</ele>
        <time>2016-05-15T13:20:43Z</time>
      </trkpt>
      <trkpt lat="44.39631" lon="3.82226">
        <ele>1402</ele>
        <time>2016-05-15T13:20:53Z</time>
      </trkpt>
      <trkpt lat="44.39624" lon="3.82224">
        <ele>1399</ele>
        <time>2016-05-15T13:21:05Z</time>
      </trkpt>
      <trkpt lat="44.39617" lon="3.82219">
        <ele>1399</ele>
        <time>2016-05-15T13:21:15Z</time>
      </trkpt>
      <trkpt lat="44.3961" lon="3.82218">
        <ele>1399</ele>
        <time>2016-05-15T13:21:24Z</time>
      </trkpt>
      <trkpt lat="44.39603" lon="3.82217">
        <ele>1399</ele>
        <time>2016-05-15T13:21:33Z</time>
      </trkpt>
      <trkpt lat="44.39592" lon="3.82216">
        <ele>1398</ele>
        <time>2016-05-15T13:21:42Z</time>
      </trkpt>
      <trkpt lat="44.39578" lon="3.82213">
        <ele>1396</ele>
        <time>2016-05-15T13:21:52Z</time>
      </trkpt>
      <trkpt lat="44.39566" lon="3.82216">
        <ele>1394</ele>
        <time>2016-05-15T13:22:03Z</time>
      </trkpt>
      <trkpt lat="44.39563" lon="3.82216">
        <ele>1393</ele>
        <time>2016-05-15T13:22:21Z</time>
      </trkpt>
      <trkpt lat="44.39553" lon="3.82212">
        <ele>1393</ele>
        <time>2016-05-15T13:22:31Z</time>
      </trkpt>
      <trkpt lat="44.39542" lon="3.82206">
        <ele>1395</ele>
        <time>2016-05-15T13:22:41Z</time>
      </trkpt>
      <trkpt lat="44.39533" lon="3.82203">
        <ele>1396</ele>
        <time>2016-05-15T13:22:50Z</time>
      </trkpt>
      <trkpt lat="44.39522" lon="3.82201">
        <ele>1396</ele>
        <time>2016-05-15T13:22:59Z</time>
      </trkpt>
      <trkpt lat="44.3951" lon="3.82197">
        <ele>1396</ele>
        <time>2016-05-15T13:23:08Z</time>
      </trkpt>
      <trkpt lat="44.39502" lon="3.82199">
        <ele>1395</ele>
        <time>2016-05-15T13:23:17Z</time>
      </trkpt>
      <trkpt lat="44.39491" lon="3.82198">
        <ele>1395</ele>
        <time>2016-05-15T13:23:27Z</time>
      </trkpt>
      <trkpt lat="44.39486" lon="3.82193">
        <ele>1395</ele>
        <time>2016-05-15T13:23:36Z</time>
      </trkpt>
      <trkpt lat="44.39481" lon="3.82195">
        <ele>1395</ele>
        <time>2016-05-15T13:23:46Z</time>
      </trkpt>
      <trkpt lat="44.39473" lon="3.82205">
        <ele>1393</ele>
        <time>2016-05-15T13:23:56Z</time>
      </trkpt>
      <trkpt lat="44.39463" lon="3.82208">
        <ele>1393</ele>
        <time>2016-05-15T13:24:05Z</time>
      </trkpt>
      <trkpt lat="44.39453" lon="3.82212">
        <ele>1393</ele>
        <time>2016-05-15T13:24:14Z</time>
      </trkpt>
      <trkpt lat="44.39442" lon="3.82218">
        <ele>1393</ele>
        <time>2016-05-15T13:24:23Z</time>
      </trkpt>
      <trkpt lat="44.39434" lon="3.8222">
        <ele>1392</ele>
        <time>2016-05-15T13:24:33Z</time>
      </trkpt>
      <trkpt lat="44.39428" lon="3.82221">
        <ele>1391</ele>
        <time>2016-05-15T13:24:43Z</time>
      </trkpt>
      <trkpt lat="44.39423" lon="3.82224">
        <ele>1391</ele>
        <time>2016-05-15T13:24:53Z</time>
      </trkpt>
      <trkpt lat="44.39417" lon="3.82224">
        <ele>1391</ele>
        <time>2016-05-15T13:25:02Z</time>
      </trkpt>
      <trkpt lat="44.3941" lon="3.82224">
        <ele>1391</ele>
        <time>2016-05-15T13:25:12Z</time>
      </trkpt>
      <trkpt lat="44.39402" lon="3.82227">
        <ele>1390</ele>
        <time>2016-05-15T13:25:22Z</time>
      </trkpt>
      <trkpt lat="44.39394" lon="3.82223">
        <ele>1388</ele>
        <time>2016-05-15T13:25:33Z</time>
      </trkpt>
      <trkpt lat="44.3939" lon="3.82217">
        <ele>1387</ele>
        <time>2016-05-15T13:25:43Z</time>
      </trkpt>
      <trkpt lat="44.39387" lon="3.82212">
        <ele>1387</ele>
        <time>2016-05-15T13:25:52Z</time>
      </trkpt>
      <trkpt lat="44.3938" lon="3.8221">
        <ele>1386</ele>
        <time>2016-05-15T13:26:02Z</time>
      </trkpt>
      <trkpt lat="44.39368" lon="3.82206">
        <ele>1386</ele>
        <time>2016-05-15T13:26:12Z</time>
      </trkpt>
      <trkpt lat="44.39361" lon="3.82198">
        <ele>1386</ele>
        <time>2016-05-15T13:26:22Z</time>
      </trkpt>
      <trkpt lat="44.39354" lon="3.82188">
        <ele>1386</ele>
        <time>2016-05-15T13:26:31Z</time>
      </trkpt>
      <trkpt lat="44.39349" lon="3.82175">
        <ele>1386</ele>
        <time>2016-05-15T13:26:40Z</time>
      </trkpt>
      <trkpt lat="44.39343" lon="3.82165">
        <ele>1386</ele>
        <time>2016-05-15T13:26:49Z</time>
      </trkpt>
      <trkpt lat="44.39337" lon="3.82151">
        <ele>1384</ele>
        <time>2016-05-15T13:26:58Z</time>
      </trkpt>
      <trkpt lat="44.39333" lon="3.82137">
        <ele>1384</ele>
        <time>2016-05-15T13:27:08Z</time>
      </trkpt>
      <trkpt lat="44.39326" lon="3.82125">
        <ele>1384</ele>
        <time>2016-05-15T13:27:17Z</time>
      </trkpt>
      <trkpt lat="44.39324" lon="3.82108">
        <ele>1382</ele>
        <time>2016-05-15T13:27:27Z</time>
      </trkpt>
      <trkpt lat="44.39321" lon="3.82104">
        <ele>1380</ele>
        <time>2016-05-15T13:27:38Z</time>
      </trkpt>
      <trkpt lat="44.3932" lon="3.82096">
        <ele>1378</ele>
        <time>2016-05-15T13:27:47Z</time>
      </trkpt>
      <trkpt lat="44.39316" lon="3.82085">
        <ele>1378</ele>
        <time>2016-05-15T13:27:56Z</time>
      </trkpt>
      <trkpt lat="44.39314" lon="3.82077">
        <ele>1378</ele>
        <time>2016-05-15T13:28:09Z</time>
      </trkpt>
      <trkpt lat="44.39314" lon="3.8207">
        <ele>1378</ele>
        <time>2016-05-15T13:28:20Z</time>
      </trkpt>
      <trkpt lat="44.39314" lon="3.82072">
        <ele>1380</ele>
        <time>2016-05-15T13:28:34Z</time>
      </trkpt>
      <trkpt lat="44.39312" lon="3.82076">
        <ele>1381</ele>
        <time>2016-05-15T13:28:48Z</time>
      </trkpt>
      <trkpt lat="44.39309" lon="3.82075">
        <ele>1378</ele>
        <time>2016-05-15T13:29:22Z</time>
      </trkpt>
      <trkpt lat="44.39309" lon="3.82075">
        <ele>1373</ele>
        <time>2016-05-15T13:29:33Z</time>
      </trkpt>
      <trkpt lat="44.3931" lon="3.82073">
        <ele>1371</ele>
        <time>2016-05-15T13:29:45Z</time>
      </trkpt>
      <trkpt lat="44.3931" lon="3.82073">
        <ele>1371</ele>
        <time>2016-05-15T13:30:07Z</time>
      </trkpt>
      <trkpt lat="44.3931" lon="3.82072">
        <ele>1372</ele>
        <time>2016-05-15T13:30:17Z</time>
      </trkpt>
      <trkpt lat="44.3931" lon="3.82073">
        <ele>1373</ele>
        <time>2016-05-15T13:30:47Z</time>
      </trkpt>
      <trkpt lat="44.39312" lon="3.82072">
        <ele>1368</ele>
        <time>2016-05-15T13:31:11Z</time>
      </trkpt>
      <trkpt lat="44.39312" lon="3.8207">
        <ele>1366</ele>
        <time>2016-05-15T13:31:28Z</time>
      </trkpt>
      <trkpt lat="44.39312" lon="3.82069">
        <ele>1367</ele>
        <time>2016-05-15T13:32:03Z</time>
      </trkpt>
      <trkpt lat="44.39312" lon="3.82058">
        <ele>1367</ele>
        <time>2016-05-15T13:32:13Z</time>
      </trkpt>
      <trkpt lat="44.39311" lon="3.82047">
        <ele>1367</ele>
        <time>2016-05-15T13:32:22Z</time>
      </trkpt>
      <trkpt lat="44.39308" lon="3.82035">
        <ele>1367</ele>
        <time>2016-05-15T13:32:32Z</time>
      </trkpt>
      <trkpt lat="44.39304" lon="3.82026">
        <ele>1369</ele>
        <time>2016-05-15T13:32:42Z</time>
      </trkpt>
      <trkpt lat="44.39299" lon="3.82017">
        <ele>1370</ele>
        <time>2016-05-15T13:32:51Z</time>
      </trkpt>
      <trkpt lat="44.39299" lon="3.82006">
        <ele>1370</ele>
        <time>2016-05-15T13:33:00Z</time>
      </trkpt>
      <trkpt lat="44.393" lon="3.81993">
        <ele>1370</ele>
        <time>2016-05-15T13:33:09Z</time>
      </trkpt>
      <trkpt lat="44.39301" lon="3.81981">
        <ele>1370</ele>
        <time>2016-05-15T13:33:19Z</time>
      </trkpt>
      <trkpt lat="44.39298" lon="3.81971">
        <ele>1370</ele>
        <time>2016-05-15T13:33:28Z</time>
      </trkpt>
      <trkpt lat="44.39297" lon="3.81958">
        <ele>1370</ele>
        <time>2016-05-15T13:33:38Z</time>
      </trkpt>
      <trkpt lat="44.39295" lon="3.81944">
        <ele>1370</ele>
        <time>2016-05-15T13:33:47Z</time>
      </trkpt>
      <trkpt lat="44.39295" lon="3.81932">
        <ele>1370</ele>
        <time>2016-05-15T13:33:57Z</time>
      </trkpt>
      <trkpt lat="44.39299" lon="3.81921">
        <ele>1370</ele>
        <time>2016-05-15T13:34:07Z</time>
      </trkpt>
      <trkpt lat="44.393" lon="3.81907">
        <ele>1370</ele>
        <time>2016-05-15T13:34:17Z</time>
      </trkpt>
      <trkpt lat="44.393" lon="3.81895">
        <ele>1370</ele>
        <time>2016-05-15T13:34:27Z</time>
      </trkpt>
      <trkpt lat="44.39299" lon="3.81882">
        <ele>1370</ele>
        <time>2016-05-15T13:34:36Z</time>
      </trkpt>
      <trkpt lat="44.39299" lon="3.81867">
        <ele>1370</ele>
        <time>2016-05-15T13:34:45Z</time>
      </trkpt>
      <trkpt lat="44.39298" lon="3.81853">
        <ele>1370</ele>
        <time>2016-05-15T13:34:55Z</time>
      </trkpt>
      <trkpt lat="44.39299" lon="3.81838">
        <ele>1370</ele>
        <time>2016-05-15T13:35:04Z</time>
      </trkpt>
      <trkpt lat="44.39294" lon="3.81829">
        <ele>1370</ele>
        <time>2016-05-15T13:35:14Z</time>
      </trkpt>
      <trkpt lat="44.39294" lon="3.81826">
        <ele>1370</ele>
        <time>2016-05-15T13:35:31Z</time>
      </trkpt>
      <trkpt lat="44.39287" lon="3.81824">
        <ele>1370</ele>
        <time>2016-05-15T13:35:44Z</time>
      </trkpt>
      <trkpt lat="44.39281" lon="3.81823">
        <ele>1371</ele>
        <time>2016-05-15T13:35:53Z</time>
      </trkpt>
      <trkpt lat="44.39273" lon="3.81823">
        <ele>1372</ele>
        <time>2016-05-15T13:36:03Z</time>
      </trkpt>
      <trkpt lat="44.39265" lon="3.81828">
        <ele>1372</ele>
        <time>2016-05-15T13:36:13Z</time>
      </trkpt>
      <trkpt lat="44.39255" lon="3.81825">
        <ele>1372</ele>
        <time>2016-05-15T13:36:23Z</time>
      </trkpt>
      <trkpt lat="44.39248" lon="3.81824">
        <ele>1372</ele>
        <time>2016-05-15T13:36:32Z</time>
      </trkpt>
      <trkpt lat="44.3924" lon="3.81826">
        <ele>1372</ele>
        <time>2016-05-15T13:36:41Z</time>
      </trkpt>
      <trkpt lat="44.39229" lon="3.81828">
        <ele>1372</ele>
        <time>2016-05-15T13:36:50Z</time>
      </trkpt>
      <trkpt lat="44.39217" lon="3.8183">
        <ele>1372</ele>
        <time>2016-05-15T13:36:59Z</time>
      </trkpt>
      <trkpt lat="44.39209" lon="3.81831">
        <ele>1372</ele>
        <time>2016-05-15T13:37:08Z</time>
      </trkpt>
      <trkpt lat="44.39202" lon="3.81836">
        <ele>1373</ele>
        <time>2016-05-15T13:37:17Z</time>
      </trkpt>
      <trkpt lat="44.39193" lon="3.8184">
        <ele>1373</ele>
        <time>2016-05-15T13:37:26Z</time>
      </trkpt>
      <trkpt lat="44.39186" lon="3.81845">
        <ele>1373</ele>
        <time>2016-05-15T13:37:36Z</time>
      </trkpt>
      <trkpt lat="44.3918" lon="3.81851">
        <ele>1372</ele>
        <time>2016-05-15T13:37:45Z</time>
      </trkpt>
      <trkpt lat="44.39175" lon="3.81855">
        <ele>1372</ele>
        <time>2016-05-15T13:37:54Z</time>
      </trkpt>
      <trkpt lat="44.39171" lon="3.8186">
        <ele>1372</ele>
        <time>2016-05-15T13:38:03Z</time>
      </trkpt>
      <trkpt lat="44.39163" lon="3.8187">
        <ele>1370</ele>
        <time>2016-05-15T13:38:12Z</time>
      </trkpt>
      <trkpt lat="44.39152" lon="3.81877">
        <ele>1368</ele>
        <time>2016-05-15T13:38:21Z</time>
      </trkpt>
      <trkpt lat="44.39139" lon="3.81884">
        <ele>1367</ele>
        <time>2016-05-15T13:38:31Z</time>
      </trkpt>
      <trkpt lat="44.39128" lon="3.81892">
        <ele>1367</ele>
        <time>2016-05-15T13:38:40Z</time>
      </trkpt>
      <trkpt lat="44.39117" lon="3.81899">
        <ele>1366</ele>
        <time>2016-05-15T13:38:49Z</time>
      </trkpt>
      <trkpt lat="44.39108" lon="3.81908">
        <ele>1366</ele>
        <time>2016-05-15T13:38:58Z</time>
      </trkpt>
      <trkpt lat="44.39097" lon="3.81914">
        <ele>1366</ele>
        <time>2016-05-15T13:39:07Z</time>
      </trkpt>
      <trkpt lat="44.39086" lon="3.81919">
        <ele>1365</ele>
        <time>2016-05-15T13:39:16Z</time>
      </trkpt>
      <trkpt lat="44.39074" lon="3.81916">
        <ele>1365</ele>
        <time>2016-05-15T13:39:25Z</time>
      </trkpt>
      <trkpt lat="44.39063" lon="3.81918">
        <ele>1364</ele>
        <time>2016-05-15T13:39:34Z</time>
      </trkpt>
      <trkpt lat="44.39052" lon="3.8192">
        <ele>1364</ele>
        <time>2016-05-15T13:39:43Z</time>
      </trkpt>
      <trkpt lat="44.3904" lon="3.81924">
        <ele>1364</ele>
        <time>2016-05-15T13:39:52Z</time>
      </trkpt>
      <trkpt lat="44.39031" lon="3.8193">
        <ele>1364</ele>
        <time>2016-05-15T13:40:01Z</time>
      </trkpt>
      <trkpt lat="44.39019" lon="3.81937">
        <ele>1364</ele>
        <time>2016-05-15T13:40:10Z</time>
      </trkpt>
      <trkpt lat="44.3901" lon="3.81936">
        <ele>1364</ele>
        <time>2016-05-15T13:40:20Z</time>
      </trkpt>
      <trkpt lat="44.39" lon="3.81934">
        <ele>1364</ele>
        <time>2016-05-15T13:40:30Z</time>
      </trkpt>
      <trkpt lat="44.38988" lon="3.81932">
        <ele>1364</ele>
        <time>2016-05-15T13:40:40Z</time>
      </trkpt>
      <trkpt lat="44.38978" lon="3.81934">
        <ele>1364</ele>
        <time>2016-05-15T13:40:49Z</time>
      </trkpt>
      <trkpt lat="44.38972" lon="3.81937">
        <ele>1363</ele>
        <time>2016-05-15T13:40:58Z</time>
      </trkpt>
      <trkpt lat="44.38965" lon="3.81941">
        <ele>1361</ele>
        <time>2016-05-15T13:41:08Z</time>
      </trkpt>
      <trkpt lat="44.38955" lon="3.8194">
        <ele>1359</ele>
        <time>2016-05-15T13:41:17Z</time>
      </trkpt>
      <trkpt lat="44.38946" lon="3.8194">
        <ele>1359</ele>
        <time>2016-05-15T13:41:26Z</time>
      </trkpt>
      <trkpt lat="44.38946" lon="3.81941">
        <ele>1359</ele>
        <time>2016-05-15T13:41:36Z</time>
      </trkpt>
      <trkpt lat="44.38944" lon="3.81941">
        <ele>1358</ele>
        <time>2016-05-15T13:41:53Z</time>
      </trkpt>
      <trkpt lat="44.38939" lon="3.81943">
        <ele>1357</ele>
        <time>2016-05-15T13:42:04Z</time>
      </trkpt>
      <trkpt lat="44.38932" lon="3.81942">
        <ele>1355</ele>
        <time>2016-05-15T13:42:13Z</time>
      </trkpt>
      <trkpt lat="44.38924" lon="3.81937">
        <ele>1355</ele>
        <time>2016-05-15T13:42:22Z</time>
      </trkpt>
      <trkpt lat="44.38914" lon="3.81934">
        <ele>1353</ele>
        <time>2016-05-15T13:42:31Z</time>
      </trkpt>
      <trkpt lat="44.38905" lon="3.81931">
        <ele>1352</ele>
        <time>2016-05-15T13:42:41Z</time>
      </trkpt>
      <trkpt lat="44.38901" lon="3.81927">
        <ele>1352</ele>
        <time>2016-05-15T13:42:50Z</time>
      </trkpt>
      <trkpt lat="44.38893" lon="3.81923">
        <ele>1351</ele>
        <time>2016-05-15T13:42:59Z</time>
      </trkpt>
      <trkpt lat="44.38881" lon="3.8192">
        <ele>1349</ele>
        <time>2016-05-15T13:43:08Z</time>
      </trkpt>
      <trkpt lat="44.38869" lon="3.81919">
        <ele>1349</ele>
        <time>2016-05-15T13:43:17Z</time>
      </trkpt>
      <trkpt lat="44.38861" lon="3.81912">
        <ele>1349</ele>
        <time>2016-05-15T13:43:26Z</time>
      </trkpt>
      <trkpt lat="44.38851" lon="3.81912">
        <ele>1349</ele>
        <time>2016-05-15T13:43:35Z</time>
      </trkpt>
      <trkpt lat="44.38845" lon="3.81912">
        <ele>1349</ele>
        <time>2016-05-15T13:43:45Z</time>
      </trkpt>
      <trkpt lat="44.38839" lon="3.81914">
        <ele>1349</ele>
        <time>2016-05-15T13:43:55Z</time>
      </trkpt>
      <trkpt lat="44.38832" lon="3.81915">
        <ele>1349</ele>
        <time>2016-05-15T13:44:04Z</time>
      </trkpt>
      <trkpt lat="44.38824" lon="3.81916">
        <ele>1349</ele>
        <time>2016-05-15T13:44:14Z</time>
      </trkpt>
      <trkpt lat="44.38816" lon="3.81918">
        <ele>1349</ele>
        <time>2016-05-15T13:44:24Z</time>
      </trkpt>
      <trkpt lat="44.38812" lon="3.81916">
        <ele>1349</ele>
        <time>2016-05-15T13:44:37Z</time>
      </trkpt>
      <trkpt lat="44.38811" lon="3.81913">
        <ele>1349</ele>
        <time>2016-05-15T13:44:48Z</time>
      </trkpt>
      <trkpt lat="44.3881" lon="3.8191">
        <ele>1349</ele>
        <time>2016-05-15T13:45:00Z</time>
      </trkpt>
      <trkpt lat="44.38807" lon="3.81912">
        <ele>1349</ele>
        <time>2016-05-15T13:45:09Z</time>
      </trkpt>
      <trkpt lat="44.38806" lon="3.81912">
        <ele>1349</ele>
        <time>2016-05-15T13:45:26Z</time>
      </trkpt>
      <trkpt lat="44.388" lon="3.81913">
        <ele>1349</ele>
        <time>2016-05-15T13:45:35Z</time>
      </trkpt>
      <trkpt lat="44.38792" lon="3.81913">
        <ele>1349</ele>
        <time>2016-05-15T13:45:44Z</time>
      </trkpt>
      <trkpt lat="44.38781" lon="3.81915">
        <ele>1349</ele>
        <time>2016-05-15T13:45:56Z</time>
      </trkpt>
      <trkpt lat="44.38772" lon="3.81915">
        <ele>1349</ele>
        <time>2016-05-15T13:46:05Z</time>
      </trkpt>
      <trkpt lat="44.38763" lon="3.81914">
        <ele>1348</ele>
        <time>2016-05-15T13:46:14Z</time>
      </trkpt>
      <trkpt lat="44.38754" lon="3.81911">
        <ele>1348</ele>
        <time>2016-05-15T13:46:23Z</time>
      </trkpt>
      <trkpt lat="44.38745" lon="3.8191">
        <ele>1348</ele>
        <time>2016-05-15T13:46:32Z</time>
      </trkpt>
      <trkpt lat="44.38737" lon="3.81905">
        <ele>1347</ele>
        <time>2016-05-15T13:46:41Z</time>
      </trkpt>
      <trkpt lat="44.38729" lon="3.81899">
        <ele>1347</ele>
        <time>2016-05-15T13:46:50Z</time>
      </trkpt>
      <trkpt lat="44.3872" lon="3.81892">
        <ele>1345</ele>
        <time>2016-05-15T13:47:00Z</time>
      </trkpt>
      <trkpt lat="44.38713" lon="3.81888">
        <ele>1343</ele>
        <time>2016-05-15T13:47:10Z</time>
      </trkpt>
      <trkpt lat="44.38705" lon="3.81891">
        <ele>1342</ele>
        <time>2016-05-15T13:47:24Z</time>
      </trkpt>
      <trkpt lat="44.38705" lon="3.81891">
        <ele>1342</ele>
        <time>2016-05-15T13:47:39Z</time>
      </trkpt>
    </trkseg>
  </trk>
</gpx>